<?xml version="1.0" encoding="UTF-8" standalone="no" ?>
<gpx xmlns="http://www.topografix.com/GPX/1/1" xmlns:xsi="http://www.w3.org/2001/XMLSchema-instance" xsi:schemaLocation="http://www.topografix.com/GPX/1/1 http://www.topografix.com/GPX/1/1/gpx.xsd" version="1.1" creator="VisuGPX - https://www.visugpx.com">
  <metadata>
    <name>Cuq Crémail</name>
    <desc><![CDATA[Superbe balade facile en raquettes. La première moitié de la montée jusqu'à la crête se fait sur piste pastorale. Là, il y a un refuge en excellent état très accueuillant. La suite de la montée est un peu plus soutenue sur la crête large comme un boulevard. La vue depuis le sommet est somptueuse. Attention toutefois sur la crête par conditions de glace.]]></desc>
  </metadata>
  <trk>
    <name><![CDATA[Current Track: 01 DEC 2012 08:15]]></name>
    <trkseg>
      <trkpt lat="43.04312" lon="0.04792">
        <ele>890.32</ele>
        <time>2012-12-01T07:15:52Z</time>
      </trkpt>
      <trkpt lat="43.0431" lon="0.0479">
        <ele>889.36</ele>
        <time>2012-12-01T07:16:24Z</time>
      </trkpt>
      <trkpt lat="43.04311" lon="0.04792">
        <ele>898.49</ele>
        <time>2012-12-01T07:17:16Z</time>
      </trkpt>
      <trkpt lat="43.04312" lon="0.04792">
        <ele>898.97</ele>
        <time>2012-12-01T07:17:44Z</time>
      </trkpt>
      <trkpt lat="43.04311" lon="0.04792">
        <ele>898.97</ele>
        <time>2012-12-01T07:18:01Z</time>
      </trkpt>
      <trkpt lat="43.0431" lon="0.048">
        <ele>897.53</ele>
        <time>2012-12-01T07:18:06Z</time>
      </trkpt>
      <trkpt lat="43.04306" lon="0.04805">
        <ele>896.09</ele>
        <time>2012-12-01T07:18:14Z</time>
      </trkpt>
      <trkpt lat="43.04312" lon="0.04791">
        <ele>895.12</ele>
        <time>2012-12-01T07:18:24Z</time>
      </trkpt>
      <trkpt lat="43.04317" lon="0.04759">
        <ele>896.09</ele>
        <time>2012-12-01T07:18:43Z</time>
      </trkpt>
      <trkpt lat="43.04318" lon="0.04757">
        <ele>896.57</ele>
        <time>2012-12-01T07:18:46Z</time>
      </trkpt>
      <trkpt lat="43.04316" lon="0.04765">
        <ele>896.09</ele>
        <time>2012-12-01T07:18:51Z</time>
      </trkpt>
      <trkpt lat="43.0431" lon="0.04791">
        <ele>895.61</ele>
        <time>2012-12-01T07:19:07Z</time>
      </trkpt>
      <trkpt lat="43.0431" lon="0.0479">
        <ele>896.09</ele>
        <time>2012-12-01T07:19:27Z</time>
      </trkpt>
      <trkpt lat="43.0431" lon="0.0479">
        <ele>895.61</ele>
        <time>2012-12-01T07:19:39Z</time>
      </trkpt>
      <trkpt lat="43.0431" lon="0.0479">
        <ele>895.61</ele>
        <time>2012-12-01T07:20:05Z</time>
      </trkpt>
      <trkpt lat="43.0431" lon="0.0479">
        <ele>896.09</ele>
        <time>2012-12-01T07:20:38Z</time>
      </trkpt>
      <trkpt lat="43.0431" lon="0.0479">
        <ele>896.09</ele>
        <time>2012-12-01T07:21:15Z</time>
      </trkpt>
      <trkpt lat="43.0431" lon="0.0479">
        <ele>896.09</ele>
        <time>2012-12-01T07:21:46Z</time>
      </trkpt>
      <trkpt lat="43.0431" lon="0.0479">
        <ele>896.09</ele>
        <time>2012-12-01T07:22:11Z</time>
      </trkpt>
      <trkpt lat="43.0431" lon="0.04791">
        <ele>896.09</ele>
        <time>2012-12-01T07:22:39Z</time>
      </trkpt>
      <trkpt lat="43.0431" lon="0.04791">
        <ele>896.09</ele>
        <time>2012-12-01T07:23:18Z</time>
      </trkpt>
      <trkpt lat="43.0431" lon="0.04792">
        <ele>896.09</ele>
        <time>2012-12-01T07:24:00Z</time>
      </trkpt>
      <trkpt lat="43.04311" lon="0.04792">
        <ele>895.61</ele>
        <time>2012-12-01T07:24:36Z</time>
      </trkpt>
      <trkpt lat="43.0431" lon="0.04792">
        <ele>896.09</ele>
        <time>2012-12-01T07:25:12Z</time>
      </trkpt>
      <trkpt lat="43.04311" lon="0.04792">
        <ele>896.09</ele>
        <time>2012-12-01T07:25:41Z</time>
      </trkpt>
      <trkpt lat="43.04311" lon="0.04792">
        <ele>896.09</ele>
        <time>2012-12-01T07:26:15Z</time>
      </trkpt>
      <trkpt lat="43.04312" lon="0.04793">
        <ele>894.64</ele>
        <time>2012-12-01T07:26:35Z</time>
      </trkpt>
      <trkpt lat="43.04312" lon="0.04794">
        <ele>894.64</ele>
        <time>2012-12-01T07:26:59Z</time>
      </trkpt>
      <trkpt lat="43.04313" lon="0.04795">
        <ele>894.16</ele>
        <time>2012-12-01T07:27:29Z</time>
      </trkpt>
      <trkpt lat="43.04313" lon="0.04794">
        <ele>894.16</ele>
        <time>2012-12-01T07:27:47Z</time>
      </trkpt>
      <trkpt lat="43.0431" lon="0.04789">
        <ele>895.12</ele>
        <time>2012-12-01T07:28:17Z</time>
      </trkpt>
      <trkpt lat="43.0431" lon="0.04792">
        <ele>898.01</ele>
        <time>2012-12-01T07:28:51Z</time>
      </trkpt>
      <trkpt lat="43.0431" lon="0.04793">
        <ele>894.16</ele>
        <time>2012-12-01T07:29:29Z</time>
      </trkpt>
      <trkpt lat="43.0431" lon="0.04793">
        <ele>893.68</ele>
        <time>2012-12-01T07:29:55Z</time>
      </trkpt>
      <trkpt lat="43.0431" lon="0.04792">
        <ele>894.16</ele>
        <time>2012-12-01T07:30:25Z</time>
      </trkpt>
      <trkpt lat="43.0431" lon="0.04792">
        <ele>894.16</ele>
        <time>2012-12-01T07:30:57Z</time>
      </trkpt>
      <trkpt lat="43.0431" lon="0.04792">
        <ele>894.16</ele>
        <time>2012-12-01T07:31:21Z</time>
      </trkpt>
      <trkpt lat="43.04309" lon="0.04787">
        <ele>895.61</ele>
        <time>2012-12-01T07:31:41Z</time>
      </trkpt>
      <trkpt lat="43.0431" lon="0.04783">
        <ele>896.09</ele>
        <time>2012-12-01T07:31:51Z</time>
      </trkpt>
      <trkpt lat="43.0431" lon="0.04783">
        <ele>896.09</ele>
        <time>2012-12-01T07:32:04Z</time>
      </trkpt>
      <trkpt lat="43.04311" lon="0.04783">
        <ele>895.12</ele>
        <time>2012-12-01T07:32:18Z</time>
      </trkpt>
      <trkpt lat="43.0431" lon="0.04784">
        <ele>895.12</ele>
        <time>2012-12-01T07:32:33Z</time>
      </trkpt>
      <trkpt lat="43.0431" lon="0.04784">
        <ele>895.12</ele>
        <time>2012-12-01T07:32:50Z</time>
      </trkpt>
      <trkpt lat="43.04312" lon="0.04787">
        <ele>895.12</ele>
        <time>2012-12-01T07:33:06Z</time>
      </trkpt>
      <trkpt lat="43.0431" lon="0.04783">
        <ele>895.12</ele>
        <time>2012-12-01T07:33:17Z</time>
      </trkpt>
      <trkpt lat="43.0431" lon="0.04783">
        <ele>895.12</ele>
        <time>2012-12-01T07:33:37Z</time>
      </trkpt>
      <trkpt lat="43.0431" lon="0.04783">
        <ele>895.12</ele>
        <time>2012-12-01T07:33:50Z</time>
      </trkpt>
      <trkpt lat="43.0431" lon="0.04783">
        <ele>895.12</ele>
        <time>2012-12-01T07:34:06Z</time>
      </trkpt>
      <trkpt lat="43.0431" lon="0.04783">
        <ele>895.12</ele>
        <time>2012-12-01T07:34:22Z</time>
      </trkpt>
      <trkpt lat="43.0431" lon="0.04783">
        <ele>895.12</ele>
        <time>2012-12-01T07:34:40Z</time>
      </trkpt>
      <trkpt lat="43.0431" lon="0.04783">
        <ele>895.12</ele>
        <time>2012-12-01T07:34:52Z</time>
      </trkpt>
      <trkpt lat="43.0431" lon="0.04783">
        <ele>895.12</ele>
        <time>2012-12-01T07:35:09Z</time>
      </trkpt>
      <trkpt lat="43.0431" lon="0.04782">
        <ele>895.12</ele>
        <time>2012-12-01T07:35:40Z</time>
      </trkpt>
      <trkpt lat="43.0431" lon="0.04782">
        <ele>895.12</ele>
        <time>2012-12-01T07:36:14Z</time>
      </trkpt>
      <trkpt lat="43.0431" lon="0.04782">
        <ele>895.12</ele>
        <time>2012-12-01T07:36:34Z</time>
      </trkpt>
      <trkpt lat="43.0431" lon="0.04781">
        <ele>895.61</ele>
        <time>2012-12-01T07:36:53Z</time>
      </trkpt>
      <trkpt lat="43.0431" lon="0.04782">
        <ele>895.61</ele>
        <time>2012-12-01T07:37:13Z</time>
      </trkpt>
      <trkpt lat="43.0431" lon="0.04782">
        <ele>895.61</ele>
        <time>2012-12-01T07:37:36Z</time>
      </trkpt>
      <trkpt lat="43.04311" lon="0.04782">
        <ele>895.61</ele>
        <time>2012-12-01T07:37:57Z</time>
      </trkpt>
      <trkpt lat="43.04311" lon="0.04783">
        <ele>895.61</ele>
        <time>2012-12-01T07:38:12Z</time>
      </trkpt>
      <trkpt lat="43.04311" lon="0.04783">
        <ele>895.61</ele>
        <time>2012-12-01T07:38:30Z</time>
      </trkpt>
      <trkpt lat="43.04311" lon="0.04783">
        <ele>895.61</ele>
        <time>2012-12-01T07:38:41Z</time>
      </trkpt>
      <trkpt lat="43.04311" lon="0.04783">
        <ele>895.61</ele>
        <time>2012-12-01T07:39:00Z</time>
      </trkpt>
      <trkpt lat="43.04311" lon="0.04783">
        <ele>896.09</ele>
        <time>2012-12-01T07:39:27Z</time>
      </trkpt>
      <trkpt lat="43.04311" lon="0.04784">
        <ele>896.09</ele>
        <time>2012-12-01T07:39:50Z</time>
      </trkpt>
      <trkpt lat="43.04315" lon="0.04785">
        <ele>896.09</ele>
        <time>2012-12-01T07:40:02Z</time>
      </trkpt>
      <trkpt lat="43.04315" lon="0.04781">
        <ele>896.57</ele>
        <time>2012-12-01T07:40:14Z</time>
      </trkpt>
      <trkpt lat="43.0432" lon="0.04748">
        <ele>898.01</ele>
        <time>2012-12-01T07:40:36Z</time>
      </trkpt>
      <trkpt lat="43.04322" lon="0.04727">
        <ele>897.53</ele>
        <time>2012-12-01T07:40:50Z</time>
      </trkpt>
      <trkpt lat="43.04321" lon="0.04727">
        <ele>898.01</ele>
        <time>2012-12-01T07:40:56Z</time>
      </trkpt>
      <trkpt lat="43.04317" lon="0.04755">
        <ele>898.97</ele>
        <time>2012-12-01T07:41:15Z</time>
      </trkpt>
      <trkpt lat="43.04314" lon="0.04775">
        <ele>898.49</ele>
        <time>2012-12-01T07:41:34Z</time>
      </trkpt>
      <trkpt lat="43.04314" lon="0.04774">
        <ele>898.49</ele>
        <time>2012-12-01T07:41:47Z</time>
      </trkpt>
      <trkpt lat="43.04316" lon="0.04767">
        <ele>898.01</ele>
        <time>2012-12-01T07:41:59Z</time>
      </trkpt>
      <trkpt lat="43.04319" lon="0.04754">
        <ele>896.57</ele>
        <time>2012-12-01T07:42:13Z</time>
      </trkpt>
      <trkpt lat="43.04321" lon="0.04731">
        <ele>896.09</ele>
        <time>2012-12-01T07:42:30Z</time>
      </trkpt>
      <trkpt lat="43.04325" lon="0.04699">
        <ele>896.09</ele>
        <time>2012-12-01T07:42:50Z</time>
      </trkpt>
      <trkpt lat="43.04332" lon="0.04674">
        <ele>895.12</ele>
        <time>2012-12-01T07:43:08Z</time>
      </trkpt>
      <trkpt lat="43.04332" lon="0.04672">
        <ele>895.12</ele>
        <time>2012-12-01T07:43:09Z</time>
      </trkpt>
      <trkpt lat="43.04333" lon="0.04645">
        <ele>895.61</ele>
        <time>2012-12-01T07:43:27Z</time>
      </trkpt>
      <trkpt lat="43.0433" lon="0.04639">
        <ele>895.61</ele>
        <time>2012-12-01T07:43:33Z</time>
      </trkpt>
      <trkpt lat="43.04326" lon="0.04609">
        <ele>896.09</ele>
        <time>2012-12-01T07:43:51Z</time>
      </trkpt>
      <trkpt lat="43.04318" lon="0.04587">
        <ele>896.57</ele>
        <time>2012-12-01T07:44:06Z</time>
      </trkpt>
      <trkpt lat="43.04314" lon="0.04578">
        <ele>897.05</ele>
        <time>2012-12-01T07:44:13Z</time>
      </trkpt>
      <trkpt lat="43.0431" lon="0.04567">
        <ele>896.57</ele>
        <time>2012-12-01T07:44:20Z</time>
      </trkpt>
      <trkpt lat="43.04308" lon="0.04558">
        <ele>894.64</ele>
        <time>2012-12-01T07:44:27Z</time>
      </trkpt>
      <trkpt lat="43.04307" lon="0.04555">
        <ele>894.64</ele>
        <time>2012-12-01T07:44:29Z</time>
      </trkpt>
      <trkpt lat="43.04306" lon="0.0455">
        <ele>894.64</ele>
        <time>2012-12-01T07:44:33Z</time>
      </trkpt>
      <trkpt lat="43.04297" lon="0.04524">
        <ele>894.64</ele>
        <time>2012-12-01T07:44:53Z</time>
      </trkpt>
      <trkpt lat="43.04288" lon="0.04503">
        <ele>895.12</ele>
        <time>2012-12-01T07:45:10Z</time>
      </trkpt>
      <trkpt lat="43.04282" lon="0.04496">
        <ele>896.09</ele>
        <time>2012-12-01T07:45:22Z</time>
      </trkpt>
      <trkpt lat="43.04286" lon="0.045">
        <ele>896.57</ele>
        <time>2012-12-01T07:45:35Z</time>
      </trkpt>
      <trkpt lat="43.04287" lon="0.04501">
        <ele>896.57</ele>
        <time>2012-12-01T07:45:50Z</time>
      </trkpt>
      <trkpt lat="43.04285" lon="0.045">
        <ele>897.05</ele>
        <time>2012-12-01T07:46:08Z</time>
      </trkpt>
      <trkpt lat="43.04282" lon="0.04497">
        <ele>897.53</ele>
        <time>2012-12-01T07:46:11Z</time>
      </trkpt>
      <trkpt lat="43.04276" lon="0.04489">
        <ele>898.01</ele>
        <time>2012-12-01T07:46:19Z</time>
      </trkpt>
      <trkpt lat="43.04266" lon="0.04473">
        <ele>898.49</ele>
        <time>2012-12-01T07:46:36Z</time>
      </trkpt>
      <trkpt lat="43.04256" lon="0.0446">
        <ele>900.41</ele>
        <time>2012-12-01T07:46:52Z</time>
      </trkpt>
      <trkpt lat="43.04248" lon="0.0445">
        <ele>900.89</ele>
        <time>2012-12-01T07:47:06Z</time>
      </trkpt>
      <trkpt lat="43.04238" lon="0.0444">
        <ele>902.82</ele>
        <time>2012-12-01T07:47:20Z</time>
      </trkpt>
      <trkpt lat="43.04231" lon="0.04431">
        <ele>903.78</ele>
        <time>2012-12-01T07:47:32Z</time>
      </trkpt>
      <trkpt lat="43.04221" lon="0.0442">
        <ele>905.22</ele>
        <time>2012-12-01T07:47:46Z</time>
      </trkpt>
      <trkpt lat="43.04211" lon="0.04406">
        <ele>907.14</ele>
        <time>2012-12-01T07:48:02Z</time>
      </trkpt>
      <trkpt lat="43.04202" lon="0.04397">
        <ele>907.62</ele>
        <time>2012-12-01T07:48:16Z</time>
      </trkpt>
      <trkpt lat="43.04192" lon="0.04383">
        <ele>908.1</ele>
        <time>2012-12-01T07:48:31Z</time>
      </trkpt>
      <trkpt lat="43.04186" lon="0.04374">
        <ele>908.58</ele>
        <time>2012-12-01T07:48:40Z</time>
      </trkpt>
      <trkpt lat="43.04184" lon="0.0437">
        <ele>908.58</ele>
        <time>2012-12-01T07:48:50Z</time>
      </trkpt>
      <trkpt lat="43.04177" lon="0.04361">
        <ele>908.58</ele>
        <time>2012-12-01T07:49:04Z</time>
      </trkpt>
      <trkpt lat="43.04166" lon="0.04345">
        <ele>910.03</ele>
        <time>2012-12-01T07:49:18Z</time>
      </trkpt>
      <trkpt lat="43.04158" lon="0.04325">
        <ele>911.47</ele>
        <time>2012-12-01T07:49:34Z</time>
      </trkpt>
      <trkpt lat="43.0415" lon="0.0431">
        <ele>911.95</ele>
        <time>2012-12-01T07:49:49Z</time>
      </trkpt>
      <trkpt lat="43.04141" lon="0.04298">
        <ele>913.39</ele>
        <time>2012-12-01T07:50:04Z</time>
      </trkpt>
      <trkpt lat="43.04141" lon="0.04298">
        <ele>913.39</ele>
        <time>2012-12-01T07:50:33Z</time>
      </trkpt>
      <trkpt lat="43.04141" lon="0.04298">
        <ele>913.39</ele>
        <time>2012-12-01T07:50:43Z</time>
      </trkpt>
      <trkpt lat="43.04139" lon="0.04297">
        <ele>913.87</ele>
        <time>2012-12-01T07:50:45Z</time>
      </trkpt>
      <trkpt lat="43.04126" lon="0.04285">
        <ele>915.79</ele>
        <time>2012-12-01T07:51:01Z</time>
      </trkpt>
      <trkpt lat="43.04115" lon="0.04274">
        <ele>917.24</ele>
        <time>2012-12-01T07:51:17Z</time>
      </trkpt>
      <trkpt lat="43.04102" lon="0.04264">
        <ele>920.12</ele>
        <time>2012-12-01T07:51:33Z</time>
      </trkpt>
      <trkpt lat="43.04095" lon="0.04259">
        <ele>921.56</ele>
        <time>2012-12-01T07:51:49Z</time>
      </trkpt>
      <trkpt lat="43.04084" lon="0.04252">
        <ele>923</ele>
        <time>2012-12-01T07:52:02Z</time>
      </trkpt>
      <trkpt lat="43.04071" lon="0.0424">
        <ele>925.41</ele>
        <time>2012-12-01T07:52:18Z</time>
      </trkpt>
      <trkpt lat="43.04059" lon="0.0423">
        <ele>927.81</ele>
        <time>2012-12-01T07:52:32Z</time>
      </trkpt>
      <trkpt lat="43.04052" lon="0.04224">
        <ele>928.29</ele>
        <time>2012-12-01T07:52:41Z</time>
      </trkpt>
      <trkpt lat="43.0404" lon="0.04212">
        <ele>929.25</ele>
        <time>2012-12-01T07:52:56Z</time>
      </trkpt>
      <trkpt lat="43.04029" lon="0.04201">
        <ele>930.21</ele>
        <time>2012-12-01T07:53:10Z</time>
      </trkpt>
      <trkpt lat="43.04018" lon="0.04189">
        <ele>932.14</ele>
        <time>2012-12-01T07:53:25Z</time>
      </trkpt>
      <trkpt lat="43.04006" lon="0.04174">
        <ele>933.1</ele>
        <time>2012-12-01T07:53:41Z</time>
      </trkpt>
      <trkpt lat="43.03997" lon="0.04159">
        <ele>933.1</ele>
        <time>2012-12-01T07:53:56Z</time>
      </trkpt>
      <trkpt lat="43.03993" lon="0.04146">
        <ele>933.58</ele>
        <time>2012-12-01T07:54:09Z</time>
      </trkpt>
      <trkpt lat="43.0399" lon="0.04136">
        <ele>934.54</ele>
        <time>2012-12-01T07:54:17Z</time>
      </trkpt>
      <trkpt lat="43.03988" lon="0.04129">
        <ele>935.5</ele>
        <time>2012-12-01T07:54:23Z</time>
      </trkpt>
      <trkpt lat="43.03981" lon="0.0412">
        <ele>936.94</ele>
        <time>2012-12-01T07:54:32Z</time>
      </trkpt>
      <trkpt lat="43.03972" lon="0.04127">
        <ele>937.9</ele>
        <time>2012-12-01T07:54:47Z</time>
      </trkpt>
      <trkpt lat="43.03974" lon="0.04135">
        <ele>938.38</ele>
        <time>2012-12-01T07:54:53Z</time>
      </trkpt>
      <trkpt lat="43.03976" lon="0.04138">
        <ele>938.38</ele>
        <time>2012-12-01T07:54:56Z</time>
      </trkpt>
      <trkpt lat="43.03982" lon="0.04158">
        <ele>939.35</ele>
        <time>2012-12-01T07:55:15Z</time>
      </trkpt>
      <trkpt lat="43.03982" lon="0.04172">
        <ele>939.83</ele>
        <time>2012-12-01T07:55:28Z</time>
      </trkpt>
      <trkpt lat="43.03982" lon="0.0418">
        <ele>940.31</ele>
        <time>2012-12-01T07:55:35Z</time>
      </trkpt>
      <trkpt lat="43.03983" lon="0.04186">
        <ele>939.83</ele>
        <time>2012-12-01T07:55:40Z</time>
      </trkpt>
      <trkpt lat="43.03983" lon="0.04194">
        <ele>940.31</ele>
        <time>2012-12-01T07:55:46Z</time>
      </trkpt>
      <trkpt lat="43.03986" lon="0.04217">
        <ele>942.23</ele>
        <time>2012-12-01T07:56:05Z</time>
      </trkpt>
      <trkpt lat="43.0399" lon="0.04235">
        <ele>944.15</ele>
        <time>2012-12-01T07:56:22Z</time>
      </trkpt>
      <trkpt lat="43.03994" lon="0.04256">
        <ele>946.07</ele>
        <time>2012-12-01T07:56:41Z</time>
      </trkpt>
      <trkpt lat="43.03998" lon="0.04273">
        <ele>947.04</ele>
        <time>2012-12-01T07:56:57Z</time>
      </trkpt>
      <trkpt lat="43.04002" lon="0.04293">
        <ele>947.52</ele>
        <time>2012-12-01T07:57:15Z</time>
      </trkpt>
      <trkpt lat="43.04005" lon="0.04311">
        <ele>948.48</ele>
        <time>2012-12-01T07:57:32Z</time>
      </trkpt>
      <trkpt lat="43.04009" lon="0.04327">
        <ele>949.44</ele>
        <time>2012-12-01T07:57:48Z</time>
      </trkpt>
      <trkpt lat="43.04014" lon="0.04345">
        <ele>951.36</ele>
        <time>2012-12-01T07:58:04Z</time>
      </trkpt>
      <trkpt lat="43.04018" lon="0.0436">
        <ele>952.32</ele>
        <time>2012-12-01T07:58:19Z</time>
      </trkpt>
      <trkpt lat="43.04022" lon="0.04376">
        <ele>953.77</ele>
        <time>2012-12-01T07:58:33Z</time>
      </trkpt>
      <trkpt lat="43.04026" lon="0.04393">
        <ele>955.69</ele>
        <time>2012-12-01T07:58:49Z</time>
      </trkpt>
      <trkpt lat="43.04029" lon="0.04411">
        <ele>956.65</ele>
        <time>2012-12-01T07:59:05Z</time>
      </trkpt>
      <trkpt lat="43.04035" lon="0.04432">
        <ele>958.57</ele>
        <time>2012-12-01T07:59:24Z</time>
      </trkpt>
      <trkpt lat="43.04043" lon="0.04453">
        <ele>960.49</ele>
        <time>2012-12-01T07:59:42Z</time>
      </trkpt>
      <trkpt lat="43.04048" lon="0.04477">
        <ele>961.94</ele>
        <time>2012-12-01T08:00:01Z</time>
      </trkpt>
      <trkpt lat="43.04046" lon="0.04496">
        <ele>962.9</ele>
        <time>2012-12-01T08:00:18Z</time>
      </trkpt>
      <trkpt lat="43.04044" lon="0.04514">
        <ele>963.86</ele>
        <time>2012-12-01T08:00:35Z</time>
      </trkpt>
      <trkpt lat="43.04041" lon="0.04533">
        <ele>965.3</ele>
        <time>2012-12-01T08:00:52Z</time>
      </trkpt>
      <trkpt lat="43.04039" lon="0.04545">
        <ele>967.22</ele>
        <time>2012-12-01T08:01:03Z</time>
      </trkpt>
      <trkpt lat="43.04037" lon="0.04563">
        <ele>968.67</ele>
        <time>2012-12-01T08:01:18Z</time>
      </trkpt>
      <trkpt lat="43.04032" lon="0.04581">
        <ele>968.67</ele>
        <time>2012-12-01T08:01:36Z</time>
      </trkpt>
      <trkpt lat="43.04022" lon="0.0458">
        <ele>970.59</ele>
        <time>2012-12-01T08:01:51Z</time>
      </trkpt>
      <trkpt lat="43.04019" lon="0.0457">
        <ele>972.51</ele>
        <time>2012-12-01T08:02:01Z</time>
      </trkpt>
      <trkpt lat="43.04013" lon="0.04554">
        <ele>974.91</ele>
        <time>2012-12-01T08:02:16Z</time>
      </trkpt>
      <trkpt lat="43.0401" lon="0.04547">
        <ele>975.88</ele>
        <time>2012-12-01T08:02:23Z</time>
      </trkpt>
      <trkpt lat="43.04007" lon="0.04538">
        <ele>977.32</ele>
        <time>2012-12-01T08:02:31Z</time>
      </trkpt>
      <trkpt lat="43.04" lon="0.04523">
        <ele>979.72</ele>
        <time>2012-12-01T08:02:45Z</time>
      </trkpt>
      <trkpt lat="43.03991" lon="0.04509">
        <ele>981.64</ele>
        <time>2012-12-01T08:03:00Z</time>
      </trkpt>
      <trkpt lat="43.03983" lon="0.04498">
        <ele>983.57</ele>
        <time>2012-12-01T08:03:13Z</time>
      </trkpt>
      <trkpt lat="43.03975" lon="0.04488">
        <ele>984.53</ele>
        <time>2012-12-01T08:03:27Z</time>
      </trkpt>
      <trkpt lat="43.03966" lon="0.04476">
        <ele>986.45</ele>
        <time>2012-12-01T08:03:43Z</time>
      </trkpt>
      <trkpt lat="43.03953" lon="0.04463">
        <ele>989.81</ele>
        <time>2012-12-01T08:04:02Z</time>
      </trkpt>
      <trkpt lat="43.03941" lon="0.04456">
        <ele>990.3</ele>
        <time>2012-12-01T08:04:18Z</time>
      </trkpt>
      <trkpt lat="43.03933" lon="0.04451">
        <ele>990.78</ele>
        <time>2012-12-01T08:04:33Z</time>
      </trkpt>
      <trkpt lat="43.03919" lon="0.04444">
        <ele>992.7</ele>
        <time>2012-12-01T08:04:50Z</time>
      </trkpt>
      <trkpt lat="43.03908" lon="0.04436">
        <ele>994.14</ele>
        <time>2012-12-01T08:05:05Z</time>
      </trkpt>
      <trkpt lat="43.03895" lon="0.04429">
        <ele>996.06</ele>
        <time>2012-12-01T08:05:21Z</time>
      </trkpt>
      <trkpt lat="43.03883" lon="0.04423">
        <ele>997.02</ele>
        <time>2012-12-01T08:05:36Z</time>
      </trkpt>
      <trkpt lat="43.03874" lon="0.04417">
        <ele>997.99</ele>
        <time>2012-12-01T08:05:48Z</time>
      </trkpt>
      <trkpt lat="43.0386" lon="0.04408">
        <ele>1000.39</ele>
        <time>2012-12-01T08:06:04Z</time>
      </trkpt>
      <trkpt lat="43.03851" lon="0.04398">
        <ele>1001.83</ele>
        <time>2012-12-01T08:06:18Z</time>
      </trkpt>
      <trkpt lat="43.03842" lon="0.04389">
        <ele>1003.27</ele>
        <time>2012-12-01T08:06:31Z</time>
      </trkpt>
      <trkpt lat="43.03833" lon="0.04376">
        <ele>1005.68</ele>
        <time>2012-12-01T08:06:46Z</time>
      </trkpt>
      <trkpt lat="43.03823" lon="0.04365">
        <ele>1008.56</ele>
        <time>2012-12-01T08:07:00Z</time>
      </trkpt>
      <trkpt lat="43.03819" lon="0.04361">
        <ele>1008.56</ele>
        <time>2012-12-01T08:07:26Z</time>
      </trkpt>
      <trkpt lat="43.03809" lon="0.04352">
        <ele>1009.52</ele>
        <time>2012-12-01T08:07:40Z</time>
      </trkpt>
      <trkpt lat="43.03797" lon="0.04342">
        <ele>1011.93</ele>
        <time>2012-12-01T08:07:54Z</time>
      </trkpt>
      <trkpt lat="43.03782" lon="0.04336">
        <ele>1014.33</ele>
        <time>2012-12-01T08:08:10Z</time>
      </trkpt>
      <trkpt lat="43.03769" lon="0.04325">
        <ele>1015.77</ele>
        <time>2012-12-01T08:08:27Z</time>
      </trkpt>
      <trkpt lat="43.03768" lon="0.04323">
        <ele>1016.25</ele>
        <time>2012-12-01T08:08:29Z</time>
      </trkpt>
      <trkpt lat="43.03758" lon="0.04312">
        <ele>1017.21</ele>
        <time>2012-12-01T08:08:44Z</time>
      </trkpt>
      <trkpt lat="43.03753" lon="0.04303">
        <ele>1018.17</ele>
        <time>2012-12-01T08:09:02Z</time>
      </trkpt>
      <trkpt lat="43.03746" lon="0.04304">
        <ele>1017.69</ele>
        <time>2012-12-01T08:09:15Z</time>
      </trkpt>
      <trkpt lat="43.03748" lon="0.04321">
        <ele>1018.65</ele>
        <time>2012-12-01T08:09:31Z</time>
      </trkpt>
      <trkpt lat="43.03752" lon="0.04323">
        <ele>1019.13</ele>
        <time>2012-12-01T08:09:39Z</time>
      </trkpt>
      <trkpt lat="43.03756" lon="0.0433">
        <ele>1019.62</ele>
        <time>2012-12-01T08:09:50Z</time>
      </trkpt>
      <trkpt lat="43.03763" lon="0.04344">
        <ele>1022.02</ele>
        <time>2012-12-01T08:10:06Z</time>
      </trkpt>
      <trkpt lat="43.03772" lon="0.04363">
        <ele>1023.94</ele>
        <time>2012-12-01T08:10:25Z</time>
      </trkpt>
      <trkpt lat="43.03778" lon="0.04379">
        <ele>1025.86</ele>
        <time>2012-12-01T08:10:40Z</time>
      </trkpt>
      <trkpt lat="43.03783" lon="0.04392">
        <ele>1026.34</ele>
        <time>2012-12-01T08:10:51Z</time>
      </trkpt>
      <trkpt lat="43.03789" lon="0.04411">
        <ele>1028.75</ele>
        <time>2012-12-01T08:11:09Z</time>
      </trkpt>
      <trkpt lat="43.03795" lon="0.04425">
        <ele>1030.67</ele>
        <time>2012-12-01T08:11:24Z</time>
      </trkpt>
      <trkpt lat="43.038" lon="0.04441">
        <ele>1032.11</ele>
        <time>2012-12-01T08:11:39Z</time>
      </trkpt>
      <trkpt lat="43.03806" lon="0.04457">
        <ele>1033.55</ele>
        <time>2012-12-01T08:11:55Z</time>
      </trkpt>
      <trkpt lat="43.0381" lon="0.04472">
        <ele>1034.52</ele>
        <time>2012-12-01T08:12:09Z</time>
      </trkpt>
      <trkpt lat="43.03812" lon="0.0448">
        <ele>1034.52</ele>
        <time>2012-12-01T08:12:16Z</time>
      </trkpt>
      <trkpt lat="43.03812" lon="0.04494">
        <ele>1035.48</ele>
        <time>2012-12-01T08:12:28Z</time>
      </trkpt>
      <trkpt lat="43.03812" lon="0.04495">
        <ele>1035.48</ele>
        <time>2012-12-01T08:12:48Z</time>
      </trkpt>
      <trkpt lat="43.03812" lon="0.04495">
        <ele>1035.48</ele>
        <time>2012-12-01T08:13:12Z</time>
      </trkpt>
      <trkpt lat="43.03811" lon="0.04498">
        <ele>1035.48</ele>
        <time>2012-12-01T08:13:37Z</time>
      </trkpt>
      <trkpt lat="43.03809" lon="0.04509">
        <ele>1035.48</ele>
        <time>2012-12-01T08:13:45Z</time>
      </trkpt>
      <trkpt lat="43.03808" lon="0.04517">
        <ele>1036.44</ele>
        <time>2012-12-01T08:13:50Z</time>
      </trkpt>
      <trkpt lat="43.03803" lon="0.04534">
        <ele>1037.88</ele>
        <time>2012-12-01T08:14:01Z</time>
      </trkpt>
      <trkpt lat="43.03801" lon="0.04553">
        <ele>1039.32</ele>
        <time>2012-12-01T08:14:16Z</time>
      </trkpt>
      <trkpt lat="43.03804" lon="0.04557">
        <ele>1039.32</ele>
        <time>2012-12-01T08:14:31Z</time>
      </trkpt>
      <trkpt lat="43.03804" lon="0.04558">
        <ele>1039.8</ele>
        <time>2012-12-01T08:14:56Z</time>
      </trkpt>
      <trkpt lat="43.03803" lon="0.04554">
        <ele>1039.8</ele>
        <time>2012-12-01T08:15:08Z</time>
      </trkpt>
      <trkpt lat="43.03803" lon="0.04554">
        <ele>1039.8</ele>
        <time>2012-12-01T08:15:18Z</time>
      </trkpt>
      <trkpt lat="43.03799" lon="0.04573">
        <ele>1040.28</ele>
        <time>2012-12-01T08:15:32Z</time>
      </trkpt>
      <trkpt lat="43.03794" lon="0.04592">
        <ele>1040.28</ele>
        <time>2012-12-01T08:15:42Z</time>
      </trkpt>
      <trkpt lat="43.03788" lon="0.04603">
        <ele>1040.28</ele>
        <time>2012-12-01T08:15:53Z</time>
      </trkpt>
      <trkpt lat="43.03781" lon="0.04609">
        <ele>1040.76</ele>
        <time>2012-12-01T08:16:04Z</time>
      </trkpt>
      <trkpt lat="43.03774" lon="0.04614">
        <ele>1041.73</ele>
        <time>2012-12-01T08:16:18Z</time>
      </trkpt>
      <trkpt lat="43.03774" lon="0.04614">
        <ele>1041.73</ele>
        <time>2012-12-01T08:16:39Z</time>
      </trkpt>
      <trkpt lat="43.03774" lon="0.04614">
        <ele>1041.73</ele>
        <time>2012-12-01T08:17:04Z</time>
      </trkpt>
      <trkpt lat="43.03774" lon="0.04614">
        <ele>1041.73</ele>
        <time>2012-12-01T08:17:07Z</time>
      </trkpt>
      <trkpt lat="43.03767" lon="0.04606">
        <ele>1042.69</ele>
        <time>2012-12-01T08:17:25Z</time>
      </trkpt>
      <trkpt lat="43.03767" lon="0.04606">
        <ele>1042.69</ele>
        <time>2012-12-01T08:17:45Z</time>
      </trkpt>
      <trkpt lat="43.03767" lon="0.04606">
        <ele>1042.69</ele>
        <time>2012-12-01T08:18:09Z</time>
      </trkpt>
      <trkpt lat="43.03767" lon="0.04606">
        <ele>1042.69</ele>
        <time>2012-12-01T08:18:32Z</time>
      </trkpt>
      <trkpt lat="43.03768" lon="0.04607">
        <ele>1042.69</ele>
        <time>2012-12-01T08:18:52Z</time>
      </trkpt>
      <trkpt lat="43.03768" lon="0.04607">
        <ele>1042.69</ele>
        <time>2012-12-01T08:19:16Z</time>
      </trkpt>
      <trkpt lat="43.03768" lon="0.04607">
        <ele>1042.69</ele>
        <time>2012-12-01T08:19:33Z</time>
      </trkpt>
      <trkpt lat="43.03769" lon="0.04607">
        <ele>1042.69</ele>
        <time>2012-12-01T08:19:37Z</time>
      </trkpt>
      <trkpt lat="43.03777" lon="0.04615">
        <ele>1041.25</ele>
        <time>2012-12-01T08:19:53Z</time>
      </trkpt>
      <trkpt lat="43.03777" lon="0.04615">
        <ele>1041.25</ele>
        <time>2012-12-01T08:20:17Z</time>
      </trkpt>
      <trkpt lat="43.03777" lon="0.04615">
        <ele>1041.25</ele>
        <time>2012-12-01T08:20:40Z</time>
      </trkpt>
      <trkpt lat="43.03777" lon="0.04615">
        <ele>1041.25</ele>
        <time>2012-12-01T08:20:58Z</time>
      </trkpt>
      <trkpt lat="43.03777" lon="0.04615">
        <ele>1041.25</ele>
        <time>2012-12-01T08:21:17Z</time>
      </trkpt>
      <trkpt lat="43.03777" lon="0.04616">
        <ele>1041.25</ele>
        <time>2012-12-01T08:21:42Z</time>
      </trkpt>
      <trkpt lat="43.03777" lon="0.04616">
        <ele>1041.25</ele>
        <time>2012-12-01T08:22:11Z</time>
      </trkpt>
      <trkpt lat="43.03777" lon="0.04616">
        <ele>1041.25</ele>
        <time>2012-12-01T08:22:39Z</time>
      </trkpt>
      <trkpt lat="43.03777" lon="0.04615">
        <ele>1041.25</ele>
        <time>2012-12-01T08:23:08Z</time>
      </trkpt>
      <trkpt lat="43.03773" lon="0.0461">
        <ele>1042.21</ele>
        <time>2012-12-01T08:23:23Z</time>
      </trkpt>
      <trkpt lat="43.0377" lon="0.04607">
        <ele>1041.73</ele>
        <time>2012-12-01T08:23:28Z</time>
      </trkpt>
      <trkpt lat="43.03764" lon="0.04594">
        <ele>1044.61</ele>
        <time>2012-12-01T08:23:44Z</time>
      </trkpt>
      <trkpt lat="43.0376" lon="0.04582">
        <ele>1045.57</ele>
        <time>2012-12-01T08:23:57Z</time>
      </trkpt>
      <trkpt lat="43.03757" lon="0.0457">
        <ele>1047.01</ele>
        <time>2012-12-01T08:24:11Z</time>
      </trkpt>
      <trkpt lat="43.03754" lon="0.04557">
        <ele>1048.94</ele>
        <time>2012-12-01T08:24:25Z</time>
      </trkpt>
      <trkpt lat="43.0375" lon="0.04541">
        <ele>1049.42</ele>
        <time>2012-12-01T08:24:41Z</time>
      </trkpt>
      <trkpt lat="43.03747" lon="0.0453">
        <ele>1050.86</ele>
        <time>2012-12-01T08:24:52Z</time>
      </trkpt>
      <trkpt lat="43.03747" lon="0.04527">
        <ele>1051.34</ele>
        <time>2012-12-01T08:24:54Z</time>
      </trkpt>
      <trkpt lat="43.03743" lon="0.0451">
        <ele>1053.74</ele>
        <time>2012-12-01T08:25:10Z</time>
      </trkpt>
      <trkpt lat="43.03738" lon="0.04497">
        <ele>1054.7</ele>
        <time>2012-12-01T08:25:24Z</time>
      </trkpt>
      <trkpt lat="43.03734" lon="0.04479">
        <ele>1056.15</ele>
        <time>2012-12-01T08:25:40Z</time>
      </trkpt>
      <trkpt lat="43.03729" lon="0.04463">
        <ele>1057.11</ele>
        <time>2012-12-01T08:25:56Z</time>
      </trkpt>
      <trkpt lat="43.03726" lon="0.04444">
        <ele>1057.59</ele>
        <time>2012-12-01T08:26:12Z</time>
      </trkpt>
      <trkpt lat="43.03722" lon="0.04431">
        <ele>1058.07</ele>
        <time>2012-12-01T08:26:25Z</time>
      </trkpt>
      <trkpt lat="43.03716" lon="0.04419">
        <ele>1059.03</ele>
        <time>2012-12-01T08:26:39Z</time>
      </trkpt>
      <trkpt lat="43.03707" lon="0.04411">
        <ele>1059.03</ele>
        <time>2012-12-01T08:26:54Z</time>
      </trkpt>
      <trkpt lat="43.03698" lon="0.04399">
        <ele>1060.95</ele>
        <time>2012-12-01T08:27:09Z</time>
      </trkpt>
      <trkpt lat="43.03688" lon="0.04392">
        <ele>1062.87</ele>
        <time>2012-12-01T08:27:22Z</time>
      </trkpt>
      <trkpt lat="43.03679" lon="0.04398">
        <ele>1063.36</ele>
        <time>2012-12-01T08:27:37Z</time>
      </trkpt>
      <trkpt lat="43.0368" lon="0.0441">
        <ele>1064.8</ele>
        <time>2012-12-01T08:27:52Z</time>
      </trkpt>
      <trkpt lat="43.03681" lon="0.04417">
        <ele>1065.28</ele>
        <time>2012-12-01T08:28:01Z</time>
      </trkpt>
      <trkpt lat="43.03686" lon="0.04431">
        <ele>1067.2</ele>
        <time>2012-12-01T08:28:16Z</time>
      </trkpt>
      <trkpt lat="43.03688" lon="0.04446">
        <ele>1068.64</ele>
        <time>2012-12-01T08:28:32Z</time>
      </trkpt>
      <trkpt lat="43.03686" lon="0.04448">
        <ele>1069.12</ele>
        <time>2012-12-01T08:28:35Z</time>
      </trkpt>
      <trkpt lat="43.03677" lon="0.0445">
        <ele>1070.57</ele>
        <time>2012-12-01T08:28:49Z</time>
      </trkpt>
      <trkpt lat="43.03672" lon="0.04442">
        <ele>1073.45</ele>
        <time>2012-12-01T08:29:04Z</time>
      </trkpt>
      <trkpt lat="43.03665" lon="0.04433">
        <ele>1075.85</ele>
        <time>2012-12-01T08:29:19Z</time>
      </trkpt>
      <trkpt lat="43.03657" lon="0.04425">
        <ele>1077.78</ele>
        <time>2012-12-01T08:29:36Z</time>
      </trkpt>
      <trkpt lat="43.03653" lon="0.04423">
        <ele>1078.74</ele>
        <time>2012-12-01T08:29:42Z</time>
      </trkpt>
      <trkpt lat="43.03644" lon="0.04422">
        <ele>1080.18</ele>
        <time>2012-12-01T08:29:56Z</time>
      </trkpt>
      <trkpt lat="43.03642" lon="0.04433">
        <ele>1080.18</ele>
        <time>2012-12-01T08:30:12Z</time>
      </trkpt>
      <trkpt lat="43.03645" lon="0.04444">
        <ele>1081.14</ele>
        <time>2012-12-01T08:30:26Z</time>
      </trkpt>
      <trkpt lat="43.03646" lon="0.04459">
        <ele>1082.58</ele>
        <time>2012-12-01T08:30:42Z</time>
      </trkpt>
      <trkpt lat="43.03645" lon="0.04474">
        <ele>1083.54</ele>
        <time>2012-12-01T08:30:58Z</time>
      </trkpt>
      <trkpt lat="43.03641" lon="0.04485">
        <ele>1084.5</ele>
        <time>2012-12-01T08:31:13Z</time>
      </trkpt>
      <trkpt lat="43.03637" lon="0.04477">
        <ele>1087.87</ele>
        <time>2012-12-01T08:31:30Z</time>
      </trkpt>
      <trkpt lat="43.0363" lon="0.04463">
        <ele>1090.27</ele>
        <time>2012-12-01T08:31:48Z</time>
      </trkpt>
      <trkpt lat="43.03623" lon="0.0445">
        <ele>1090.75</ele>
        <time>2012-12-01T08:32:05Z</time>
      </trkpt>
      <trkpt lat="43.03617" lon="0.04436">
        <ele>1092.2</ele>
        <time>2012-12-01T08:32:20Z</time>
      </trkpt>
      <trkpt lat="43.03611" lon="0.04427">
        <ele>1092.68</ele>
        <time>2012-12-01T08:32:32Z</time>
      </trkpt>
      <trkpt lat="43.03603" lon="0.04433">
        <ele>1093.16</ele>
        <time>2012-12-01T08:32:48Z</time>
      </trkpt>
      <trkpt lat="43.03603" lon="0.04445">
        <ele>1095.56</ele>
        <time>2012-12-01T08:33:05Z</time>
      </trkpt>
      <trkpt lat="43.03603" lon="0.0446">
        <ele>1096.04</ele>
        <time>2012-12-01T08:33:21Z</time>
      </trkpt>
      <trkpt lat="43.03603" lon="0.04463">
        <ele>1096.04</ele>
        <time>2012-12-01T08:33:25Z</time>
      </trkpt>
      <trkpt lat="43.03602" lon="0.04471">
        <ele>1096.52</ele>
        <time>2012-12-01T08:33:36Z</time>
      </trkpt>
      <trkpt lat="43.03602" lon="0.04482">
        <ele>1096.52</ele>
        <time>2012-12-01T08:33:50Z</time>
      </trkpt>
      <trkpt lat="43.03603" lon="0.04495">
        <ele>1097</ele>
        <time>2012-12-01T08:34:04Z</time>
      </trkpt>
      <trkpt lat="43.03602" lon="0.04508">
        <ele>1096.52</ele>
        <time>2012-12-01T08:34:19Z</time>
      </trkpt>
      <trkpt lat="43.03603" lon="0.04521">
        <ele>1097.96</ele>
        <time>2012-12-01T08:34:33Z</time>
      </trkpt>
      <trkpt lat="43.03603" lon="0.04533">
        <ele>1098.92</ele>
        <time>2012-12-01T08:34:46Z</time>
      </trkpt>
      <trkpt lat="43.03605" lon="0.04547">
        <ele>1100.37</ele>
        <time>2012-12-01T08:35:00Z</time>
      </trkpt>
      <trkpt lat="43.03606" lon="0.04561">
        <ele>1101.33</ele>
        <time>2012-12-01T08:35:13Z</time>
      </trkpt>
      <trkpt lat="43.03609" lon="0.04578">
        <ele>1102.29</ele>
        <time>2012-12-01T08:35:29Z</time>
      </trkpt>
      <trkpt lat="43.0361" lon="0.04592">
        <ele>1103.25</ele>
        <time>2012-12-01T08:35:43Z</time>
      </trkpt>
      <trkpt lat="43.03607" lon="0.04605">
        <ele>1104.69</ele>
        <time>2012-12-01T08:35:58Z</time>
      </trkpt>
      <trkpt lat="43.03605" lon="0.04611">
        <ele>1105.65</ele>
        <time>2012-12-01T08:36:11Z</time>
      </trkpt>
      <trkpt lat="43.03605" lon="0.04611">
        <ele>1105.65</ele>
        <time>2012-12-01T08:36:38Z</time>
      </trkpt>
      <trkpt lat="43.03605" lon="0.0461">
        <ele>1106.61</ele>
        <time>2012-12-01T08:37:07Z</time>
      </trkpt>
      <trkpt lat="43.03605" lon="0.0461">
        <ele>1106.61</ele>
        <time>2012-12-01T08:37:26Z</time>
      </trkpt>
      <trkpt lat="43.03605" lon="0.04609">
        <ele>1107.1</ele>
        <time>2012-12-01T08:37:43Z</time>
      </trkpt>
      <trkpt lat="43.03605" lon="0.04609">
        <ele>1107.1</ele>
        <time>2012-12-01T08:38:08Z</time>
      </trkpt>
      <trkpt lat="43.03605" lon="0.04609">
        <ele>1107.1</ele>
        <time>2012-12-01T08:38:29Z</time>
      </trkpt>
      <trkpt lat="43.03605" lon="0.04609">
        <ele>1107.1</ele>
        <time>2012-12-01T08:38:49Z</time>
      </trkpt>
      <trkpt lat="43.03605" lon="0.04609">
        <ele>1107.1</ele>
        <time>2012-12-01T08:39:14Z</time>
      </trkpt>
      <trkpt lat="43.03605" lon="0.04609">
        <ele>1107.1</ele>
        <time>2012-12-01T08:39:35Z</time>
      </trkpt>
      <trkpt lat="43.03605" lon="0.04609">
        <ele>1107.1</ele>
        <time>2012-12-01T08:39:53Z</time>
      </trkpt>
      <trkpt lat="43.03602" lon="0.04609">
        <ele>1109.02</ele>
        <time>2012-12-01T08:40:05Z</time>
      </trkpt>
      <trkpt lat="43.03591" lon="0.04606">
        <ele>1113.34</ele>
        <time>2012-12-01T08:40:21Z</time>
      </trkpt>
      <trkpt lat="43.03584" lon="0.04602">
        <ele>1114.31</ele>
        <time>2012-12-01T08:40:33Z</time>
      </trkpt>
      <trkpt lat="43.03579" lon="0.04596">
        <ele>1115.75</ele>
        <time>2012-12-01T08:40:46Z</time>
      </trkpt>
      <trkpt lat="43.03574" lon="0.04585">
        <ele>1118.15</ele>
        <time>2012-12-01T08:41:02Z</time>
      </trkpt>
      <trkpt lat="43.0357" lon="0.04575">
        <ele>1120.55</ele>
        <time>2012-12-01T08:41:16Z</time>
      </trkpt>
      <trkpt lat="43.03564" lon="0.04564">
        <ele>1122</ele>
        <time>2012-12-01T08:41:31Z</time>
      </trkpt>
      <trkpt lat="43.03559" lon="0.04552">
        <ele>1122</ele>
        <time>2012-12-01T08:41:48Z</time>
      </trkpt>
      <trkpt lat="43.03551" lon="0.04537">
        <ele>1123.92</ele>
        <time>2012-12-01T08:42:06Z</time>
      </trkpt>
      <trkpt lat="43.03545" lon="0.04527">
        <ele>1123.92</ele>
        <time>2012-12-01T08:42:21Z</time>
      </trkpt>
      <trkpt lat="43.03536" lon="0.0453">
        <ele>1125.36</ele>
        <time>2012-12-01T08:42:34Z</time>
      </trkpt>
      <trkpt lat="43.03537" lon="0.04539">
        <ele>1126.8</ele>
        <time>2012-12-01T08:42:47Z</time>
      </trkpt>
      <trkpt lat="43.03538" lon="0.04553">
        <ele>1128.24</ele>
        <time>2012-12-01T08:43:03Z</time>
      </trkpt>
      <trkpt lat="43.03538" lon="0.04567">
        <ele>1129.21</ele>
        <time>2012-12-01T08:43:18Z</time>
      </trkpt>
      <trkpt lat="43.03536" lon="0.04578">
        <ele>1131.13</ele>
        <time>2012-12-01T08:43:32Z</time>
      </trkpt>
      <trkpt lat="43.03534" lon="0.04593">
        <ele>1132.09</ele>
        <time>2012-12-01T08:43:47Z</time>
      </trkpt>
      <trkpt lat="43.0353" lon="0.04606">
        <ele>1133.53</ele>
        <time>2012-12-01T08:44:02Z</time>
      </trkpt>
      <trkpt lat="43.03527" lon="0.04618">
        <ele>1135.45</ele>
        <time>2012-12-01T08:44:17Z</time>
      </trkpt>
      <trkpt lat="43.03521" lon="0.04632">
        <ele>1136.9</ele>
        <time>2012-12-01T08:44:33Z</time>
      </trkpt>
      <trkpt lat="43.03518" lon="0.04646">
        <ele>1138.82</ele>
        <time>2012-12-01T08:44:50Z</time>
      </trkpt>
      <trkpt lat="43.03512" lon="0.04652">
        <ele>1139.78</ele>
        <time>2012-12-01T08:45:04Z</time>
      </trkpt>
      <trkpt lat="43.03506" lon="0.04644">
        <ele>1141.22</ele>
        <time>2012-12-01T08:45:21Z</time>
      </trkpt>
      <trkpt lat="43.03506" lon="0.04642">
        <ele>1141.22</ele>
        <time>2012-12-01T08:45:24Z</time>
      </trkpt>
      <trkpt lat="43.03507" lon="0.04634">
        <ele>1143.14</ele>
        <time>2012-12-01T08:45:37Z</time>
      </trkpt>
      <trkpt lat="43.03504" lon="0.04621">
        <ele>1143.63</ele>
        <time>2012-12-01T08:45:54Z</time>
      </trkpt>
      <trkpt lat="43.035" lon="0.04607">
        <ele>1144.59</ele>
        <time>2012-12-01T08:46:11Z</time>
      </trkpt>
      <trkpt lat="43.03496" lon="0.04595">
        <ele>1145.55</ele>
        <time>2012-12-01T08:46:25Z</time>
      </trkpt>
      <trkpt lat="43.03496" lon="0.04594">
        <ele>1146.03</ele>
        <time>2012-12-01T08:46:26Z</time>
      </trkpt>
      <trkpt lat="43.03493" lon="0.04576">
        <ele>1146.99</ele>
        <time>2012-12-01T08:46:43Z</time>
      </trkpt>
      <trkpt lat="43.03491" lon="0.04564">
        <ele>1148.43</ele>
        <time>2012-12-01T08:46:56Z</time>
      </trkpt>
      <trkpt lat="43.0349" lon="0.04558">
        <ele>1148.91</ele>
        <time>2012-12-01T08:47:09Z</time>
      </trkpt>
      <trkpt lat="43.03487" lon="0.04544">
        <ele>1151.8</ele>
        <time>2012-12-01T08:47:24Z</time>
      </trkpt>
      <trkpt lat="43.03481" lon="0.04531">
        <ele>1151.8</ele>
        <time>2012-12-01T08:47:39Z</time>
      </trkpt>
      <trkpt lat="43.03472" lon="0.0452">
        <ele>1154.68</ele>
        <time>2012-12-01T08:47:56Z</time>
      </trkpt>
      <trkpt lat="43.03464" lon="0.04524">
        <ele>1157.56</ele>
        <time>2012-12-01T08:48:11Z</time>
      </trkpt>
      <trkpt lat="43.0346" lon="0.04536">
        <ele>1158.05</ele>
        <time>2012-12-01T08:48:26Z</time>
      </trkpt>
      <trkpt lat="43.03455" lon="0.04548">
        <ele>1158.53</ele>
        <time>2012-12-01T08:48:43Z</time>
      </trkpt>
      <trkpt lat="43.03452" lon="0.04559">
        <ele>1158.53</ele>
        <time>2012-12-01T08:48:58Z</time>
      </trkpt>
      <trkpt lat="43.03448" lon="0.04572">
        <ele>1158.05</ele>
        <time>2012-12-01T08:49:14Z</time>
      </trkpt>
      <trkpt lat="43.03444" lon="0.04586">
        <ele>1159.01</ele>
        <time>2012-12-01T08:49:30Z</time>
      </trkpt>
      <trkpt lat="43.0344" lon="0.04597">
        <ele>1160.45</ele>
        <time>2012-12-01T08:49:43Z</time>
      </trkpt>
      <trkpt lat="43.03439" lon="0.04598">
        <ele>1160.93</ele>
        <time>2012-12-01T08:50:02Z</time>
      </trkpt>
      <trkpt lat="43.03439" lon="0.04599">
        <ele>1160.93</ele>
        <time>2012-12-01T08:50:27Z</time>
      </trkpt>
      <trkpt lat="43.03439" lon="0.04599">
        <ele>1160.93</ele>
        <time>2012-12-01T08:50:51Z</time>
      </trkpt>
      <trkpt lat="43.03439" lon="0.04599">
        <ele>1160.93</ele>
        <time>2012-12-01T08:51:14Z</time>
      </trkpt>
      <trkpt lat="43.03439" lon="0.046">
        <ele>1160.93</ele>
        <time>2012-12-01T08:51:31Z</time>
      </trkpt>
      <trkpt lat="43.03437" lon="0.04602">
        <ele>1160.93</ele>
        <time>2012-12-01T08:51:37Z</time>
      </trkpt>
      <trkpt lat="43.03436" lon="0.046">
        <ele>1161.89</ele>
        <time>2012-12-01T08:51:54Z</time>
      </trkpt>
      <trkpt lat="43.03436" lon="0.04601">
        <ele>1161.41</ele>
        <time>2012-12-01T08:52:08Z</time>
      </trkpt>
      <trkpt lat="43.03436" lon="0.04601">
        <ele>1161.41</ele>
        <time>2012-12-01T08:52:34Z</time>
      </trkpt>
      <trkpt lat="43.03437" lon="0.04601">
        <ele>1161.89</ele>
        <time>2012-12-01T08:53:04Z</time>
      </trkpt>
      <trkpt lat="43.03437" lon="0.04601">
        <ele>1161.89</ele>
        <time>2012-12-01T08:53:37Z</time>
      </trkpt>
      <trkpt lat="43.03438" lon="0.04601">
        <ele>1161.41</ele>
        <time>2012-12-01T08:53:56Z</time>
      </trkpt>
      <trkpt lat="43.03437" lon="0.04601">
        <ele>1161.89</ele>
        <time>2012-12-01T08:54:14Z</time>
      </trkpt>
      <trkpt lat="43.03437" lon="0.04601">
        <ele>1161.89</ele>
        <time>2012-12-01T08:54:31Z</time>
      </trkpt>
      <trkpt lat="43.03437" lon="0.04601">
        <ele>1161.89</ele>
        <time>2012-12-01T08:54:52Z</time>
      </trkpt>
      <trkpt lat="43.03437" lon="0.04601">
        <ele>1161.89</ele>
        <time>2012-12-01T08:55:20Z</time>
      </trkpt>
      <trkpt lat="43.03437" lon="0.04601">
        <ele>1162.37</ele>
        <time>2012-12-01T08:55:40Z</time>
      </trkpt>
      <trkpt lat="43.03437" lon="0.04601">
        <ele>1162.37</ele>
        <time>2012-12-01T08:56:03Z</time>
      </trkpt>
      <trkpt lat="43.03437" lon="0.04601">
        <ele>1162.37</ele>
        <time>2012-12-01T08:56:26Z</time>
      </trkpt>
      <trkpt lat="43.03437" lon="0.04602">
        <ele>1162.85</ele>
        <time>2012-12-01T08:56:43Z</time>
      </trkpt>
      <trkpt lat="43.03437" lon="0.04602">
        <ele>1162.37</ele>
        <time>2012-12-01T08:57:00Z</time>
      </trkpt>
      <trkpt lat="43.03431" lon="0.04604">
        <ele>1164.77</ele>
        <time>2012-12-01T08:57:15Z</time>
      </trkpt>
      <trkpt lat="43.03424" lon="0.04602">
        <ele>1164.77</ele>
        <time>2012-12-01T08:57:26Z</time>
      </trkpt>
      <trkpt lat="43.03414" lon="0.04604">
        <ele>1166.7</ele>
        <time>2012-12-01T08:57:40Z</time>
      </trkpt>
      <trkpt lat="43.03411" lon="0.04605">
        <ele>1167.18</ele>
        <time>2012-12-01T08:57:43Z</time>
      </trkpt>
      <trkpt lat="43.03402" lon="0.04608">
        <ele>1167.18</ele>
        <time>2012-12-01T08:57:58Z</time>
      </trkpt>
      <trkpt lat="43.03393" lon="0.04611">
        <ele>1167.66</ele>
        <time>2012-12-01T08:58:10Z</time>
      </trkpt>
      <trkpt lat="43.03386" lon="0.04613">
        <ele>1169.1</ele>
        <time>2012-12-01T08:58:22Z</time>
      </trkpt>
      <trkpt lat="43.03382" lon="0.04615">
        <ele>1169.58</ele>
        <time>2012-12-01T08:58:46Z</time>
      </trkpt>
      <trkpt lat="43.03368" lon="0.0462">
        <ele>1171.98</ele>
        <time>2012-12-01T08:59:04Z</time>
      </trkpt>
      <trkpt lat="43.03353" lon="0.04623">
        <ele>1172.47</ele>
        <time>2012-12-01T08:59:22Z</time>
      </trkpt>
      <trkpt lat="43.03344" lon="0.04627">
        <ele>1173.43</ele>
        <time>2012-12-01T08:59:35Z</time>
      </trkpt>
      <trkpt lat="43.03335" lon="0.04634">
        <ele>1174.39</ele>
        <time>2012-12-01T08:59:50Z</time>
      </trkpt>
      <trkpt lat="43.03326" lon="0.04641">
        <ele>1170.54</ele>
        <time>2012-12-01T09:00:03Z</time>
      </trkpt>
      <trkpt lat="43.03315" lon="0.04647">
        <ele>1171.5</ele>
        <time>2012-12-01T09:00:19Z</time>
      </trkpt>
      <trkpt lat="43.03313" lon="0.04648">
        <ele>1171.98</ele>
        <time>2012-12-01T09:00:21Z</time>
      </trkpt>
      <trkpt lat="43.03306" lon="0.04651">
        <ele>1174.39</ele>
        <time>2012-12-01T09:00:30Z</time>
      </trkpt>
      <trkpt lat="43.03304" lon="0.04652">
        <ele>1174.39</ele>
        <time>2012-12-01T09:00:32Z</time>
      </trkpt>
      <trkpt lat="43.03289" lon="0.04653">
        <ele>1175.83</ele>
        <time>2012-12-01T09:00:46Z</time>
      </trkpt>
      <trkpt lat="43.03276" lon="0.04653">
        <ele>1176.79</ele>
        <time>2012-12-01T09:00:59Z</time>
      </trkpt>
      <trkpt lat="43.03268" lon="0.04653">
        <ele>1177.27</ele>
        <time>2012-12-01T09:01:07Z</time>
      </trkpt>
      <trkpt lat="43.03266" lon="0.04654">
        <ele>1177.27</ele>
        <time>2012-12-01T09:01:09Z</time>
      </trkpt>
      <trkpt lat="43.03254" lon="0.0466">
        <ele>1177.27</ele>
        <time>2012-12-01T09:01:23Z</time>
      </trkpt>
      <trkpt lat="43.03244" lon="0.04664">
        <ele>1179.19</ele>
        <time>2012-12-01T09:01:36Z</time>
      </trkpt>
      <trkpt lat="43.03231" lon="0.04671">
        <ele>1177.75</ele>
        <time>2012-12-01T09:01:52Z</time>
      </trkpt>
      <trkpt lat="43.03221" lon="0.04678">
        <ele>1178.71</ele>
        <time>2012-12-01T09:02:06Z</time>
      </trkpt>
      <trkpt lat="43.03207" lon="0.04688">
        <ele>1181.6</ele>
        <time>2012-12-01T09:02:23Z</time>
      </trkpt>
      <trkpt lat="43.03198" lon="0.04696">
        <ele>1184.48</ele>
        <time>2012-12-01T09:02:36Z</time>
      </trkpt>
      <trkpt lat="43.03186" lon="0.04705">
        <ele>1184.48</ele>
        <time>2012-12-01T09:02:49Z</time>
      </trkpt>
      <trkpt lat="43.03177" lon="0.04712">
        <ele>1185.44</ele>
        <time>2012-12-01T09:03:02Z</time>
      </trkpt>
      <trkpt lat="43.03166" lon="0.04717">
        <ele>1184.96</ele>
        <time>2012-12-01T09:03:17Z</time>
      </trkpt>
      <trkpt lat="43.03155" lon="0.04722">
        <ele>1184.96</ele>
        <time>2012-12-01T09:03:33Z</time>
      </trkpt>
      <trkpt lat="43.03145" lon="0.04726">
        <ele>1185.92</ele>
        <time>2012-12-01T09:03:48Z</time>
      </trkpt>
      <trkpt lat="43.03137" lon="0.0473">
        <ele>1187.37</ele>
        <time>2012-12-01T09:04:02Z</time>
      </trkpt>
      <trkpt lat="43.03128" lon="0.04734">
        <ele>1189.77</ele>
        <time>2012-12-01T09:04:16Z</time>
      </trkpt>
      <trkpt lat="43.03119" lon="0.0474">
        <ele>1191.21</ele>
        <time>2012-12-01T09:04:30Z</time>
      </trkpt>
      <trkpt lat="43.0311" lon="0.04744">
        <ele>1195.06</ele>
        <time>2012-12-01T09:04:46Z</time>
      </trkpt>
      <trkpt lat="43.03102" lon="0.04746">
        <ele>1195.54</ele>
        <time>2012-12-01T09:04:59Z</time>
      </trkpt>
      <trkpt lat="43.03091" lon="0.04749">
        <ele>1199.38</ele>
        <time>2012-12-01T09:05:16Z</time>
      </trkpt>
      <trkpt lat="43.03084" lon="0.04748">
        <ele>1199.86</ele>
        <time>2012-12-01T09:05:31Z</time>
      </trkpt>
      <trkpt lat="43.03073" lon="0.04749">
        <ele>1202.27</ele>
        <time>2012-12-01T09:05:48Z</time>
      </trkpt>
      <trkpt lat="43.03064" lon="0.04749">
        <ele>1205.63</ele>
        <time>2012-12-01T09:06:03Z</time>
      </trkpt>
      <trkpt lat="43.03055" lon="0.04751">
        <ele>1209.48</ele>
        <time>2012-12-01T09:06:18Z</time>
      </trkpt>
      <trkpt lat="43.03047" lon="0.04754">
        <ele>1211.4</ele>
        <time>2012-12-01T09:06:35Z</time>
      </trkpt>
      <trkpt lat="43.03041" lon="0.04757">
        <ele>1212.36</ele>
        <time>2012-12-01T09:06:50Z</time>
      </trkpt>
      <trkpt lat="43.03035" lon="0.0476">
        <ele>1214.28</ele>
        <time>2012-12-01T09:07:02Z</time>
      </trkpt>
      <trkpt lat="43.03026" lon="0.04761">
        <ele>1213.32</ele>
        <time>2012-12-01T09:07:18Z</time>
      </trkpt>
      <trkpt lat="43.03019" lon="0.04759">
        <ele>1214.76</ele>
        <time>2012-12-01T09:07:32Z</time>
      </trkpt>
      <trkpt lat="43.03012" lon="0.04759">
        <ele>1216.21</ele>
        <time>2012-12-01T09:07:45Z</time>
      </trkpt>
      <trkpt lat="43.03004" lon="0.04759">
        <ele>1219.57</ele>
        <time>2012-12-01T09:08:01Z</time>
      </trkpt>
      <trkpt lat="43.02996" lon="0.0476">
        <ele>1220.53</ele>
        <time>2012-12-01T09:08:14Z</time>
      </trkpt>
      <trkpt lat="43.02986" lon="0.04757">
        <ele>1221.97</ele>
        <time>2012-12-01T09:08:30Z</time>
      </trkpt>
      <trkpt lat="43.02979" lon="0.04755">
        <ele>1221.97</ele>
        <time>2012-12-01T09:08:43Z</time>
      </trkpt>
      <trkpt lat="43.02972" lon="0.04752">
        <ele>1223.42</ele>
        <time>2012-12-01T09:08:57Z</time>
      </trkpt>
      <trkpt lat="43.02964" lon="0.04748">
        <ele>1226.3</ele>
        <time>2012-12-01T09:09:11Z</time>
      </trkpt>
      <trkpt lat="43.02956" lon="0.04745">
        <ele>1227.26</ele>
        <time>2012-12-01T09:09:25Z</time>
      </trkpt>
      <trkpt lat="43.02953" lon="0.04745">
        <ele>1228.22</ele>
        <time>2012-12-01T09:09:31Z</time>
      </trkpt>
      <trkpt lat="43.02948" lon="0.04742">
        <ele>1230.14</ele>
        <time>2012-12-01T09:09:42Z</time>
      </trkpt>
      <trkpt lat="43.02939" lon="0.04739">
        <ele>1232.07</ele>
        <time>2012-12-01T09:09:58Z</time>
      </trkpt>
      <trkpt lat="43.0293" lon="0.04736">
        <ele>1233.99</ele>
        <time>2012-12-01T09:10:12Z</time>
      </trkpt>
      <trkpt lat="43.02921" lon="0.04735">
        <ele>1235.43</ele>
        <time>2012-12-01T09:10:26Z</time>
      </trkpt>
      <trkpt lat="43.02911" lon="0.04734">
        <ele>1236.39</ele>
        <time>2012-12-01T09:10:42Z</time>
      </trkpt>
      <trkpt lat="43.02903" lon="0.04734">
        <ele>1237.35</ele>
        <time>2012-12-01T09:10:55Z</time>
      </trkpt>
      <trkpt lat="43.02893" lon="0.04734">
        <ele>1237.35</ele>
        <time>2012-12-01T09:11:11Z</time>
      </trkpt>
      <trkpt lat="43.02883" lon="0.04732">
        <ele>1235.91</ele>
        <time>2012-12-01T09:11:26Z</time>
      </trkpt>
      <trkpt lat="43.02883" lon="0.04732">
        <ele>1235.43</ele>
        <time>2012-12-01T09:11:42Z</time>
      </trkpt>
      <trkpt lat="43.02884" lon="0.04733">
        <ele>1235.43</ele>
        <time>2012-12-01T09:12:06Z</time>
      </trkpt>
      <trkpt lat="43.02884" lon="0.04733">
        <ele>1235.43</ele>
        <time>2012-12-01T09:12:34Z</time>
      </trkpt>
      <trkpt lat="43.02884" lon="0.04733">
        <ele>1234.47</ele>
        <time>2012-12-01T09:12:56Z</time>
      </trkpt>
      <trkpt lat="43.02883" lon="0.04733">
        <ele>1234.47</ele>
        <time>2012-12-01T09:13:13Z</time>
      </trkpt>
      <trkpt lat="43.02883" lon="0.04733">
        <ele>1234.47</ele>
        <time>2012-12-01T09:13:44Z</time>
      </trkpt>
      <trkpt lat="43.02883" lon="0.04733">
        <ele>1234.47</ele>
        <time>2012-12-01T09:14:07Z</time>
      </trkpt>
      <trkpt lat="43.02882" lon="0.04732">
        <ele>1234.47</ele>
        <time>2012-12-01T09:14:22Z</time>
      </trkpt>
      <trkpt lat="43.02882" lon="0.04732">
        <ele>1234.47</ele>
        <time>2012-12-01T09:14:40Z</time>
      </trkpt>
      <trkpt lat="43.02883" lon="0.04732">
        <ele>1234.47</ele>
        <time>2012-12-01T09:15:01Z</time>
      </trkpt>
      <trkpt lat="43.02883" lon="0.04732">
        <ele>1234.47</ele>
        <time>2012-12-01T09:15:21Z</time>
      </trkpt>
      <trkpt lat="43.02883" lon="0.04732">
        <ele>1234.47</ele>
        <time>2012-12-01T09:15:45Z</time>
      </trkpt>
      <trkpt lat="43.02883" lon="0.04732">
        <ele>1234.47</ele>
        <time>2012-12-01T09:16:00Z</time>
      </trkpt>
      <trkpt lat="43.02883" lon="0.04732">
        <ele>1234.47</ele>
        <time>2012-12-01T09:16:21Z</time>
      </trkpt>
      <trkpt lat="43.02883" lon="0.04733">
        <ele>1233.99</ele>
        <time>2012-12-01T09:16:47Z</time>
      </trkpt>
      <trkpt lat="43.02882" lon="0.04733">
        <ele>1234.47</ele>
        <time>2012-12-01T09:17:13Z</time>
      </trkpt>
      <trkpt lat="43.02882" lon="0.04733">
        <ele>1234.47</ele>
        <time>2012-12-01T09:17:38Z</time>
      </trkpt>
      <trkpt lat="43.02883" lon="0.04733">
        <ele>1234.47</ele>
        <time>2012-12-01T09:18:01Z</time>
      </trkpt>
      <trkpt lat="43.02883" lon="0.04733">
        <ele>1234.47</ele>
        <time>2012-12-01T09:18:23Z</time>
      </trkpt>
      <trkpt lat="43.0288" lon="0.04733">
        <ele>1233.99</ele>
        <time>2012-12-01T09:18:39Z</time>
      </trkpt>
      <trkpt lat="43.0288" lon="0.04733">
        <ele>1234.47</ele>
        <time>2012-12-01T09:19:00Z</time>
      </trkpt>
      <trkpt lat="43.02874" lon="0.04732">
        <ele>1234.95</ele>
        <time>2012-12-01T09:19:16Z</time>
      </trkpt>
      <trkpt lat="43.02872" lon="0.04733">
        <ele>1235.91</ele>
        <time>2012-12-01T09:19:19Z</time>
      </trkpt>
      <trkpt lat="43.02862" lon="0.04735">
        <ele>1239.28</ele>
        <time>2012-12-01T09:19:32Z</time>
      </trkpt>
      <trkpt lat="43.02855" lon="0.04737">
        <ele>1240.24</ele>
        <time>2012-12-01T09:19:44Z</time>
      </trkpt>
      <trkpt lat="43.02848" lon="0.0474">
        <ele>1240.72</ele>
        <time>2012-12-01T09:19:55Z</time>
      </trkpt>
      <trkpt lat="43.02844" lon="0.04745">
        <ele>1241.2</ele>
        <time>2012-12-01T09:20:07Z</time>
      </trkpt>
      <trkpt lat="43.02838" lon="0.04748">
        <ele>1240.24</ele>
        <time>2012-12-01T09:20:16Z</time>
      </trkpt>
      <trkpt lat="43.02831" lon="0.04755">
        <ele>1239.76</ele>
        <time>2012-12-01T09:20:30Z</time>
      </trkpt>
      <trkpt lat="43.02829" lon="0.04759">
        <ele>1240.72</ele>
        <time>2012-12-01T09:20:35Z</time>
      </trkpt>
      <trkpt lat="43.02824" lon="0.0477">
        <ele>1244.08</ele>
        <time>2012-12-01T09:20:49Z</time>
      </trkpt>
      <trkpt lat="43.02818" lon="0.04778">
        <ele>1246.01</ele>
        <time>2012-12-01T09:21:00Z</time>
      </trkpt>
      <trkpt lat="43.02815" lon="0.04787">
        <ele>1246.49</ele>
        <time>2012-12-01T09:21:10Z</time>
      </trkpt>
      <trkpt lat="43.02817" lon="0.04799">
        <ele>1246.01</ele>
        <time>2012-12-01T09:21:24Z</time>
      </trkpt>
      <trkpt lat="43.02809" lon="0.04791">
        <ele>1248.41</ele>
        <time>2012-12-01T09:21:38Z</time>
      </trkpt>
      <trkpt lat="43.02806" lon="0.04787">
        <ele>1247.93</ele>
        <time>2012-12-01T09:21:50Z</time>
      </trkpt>
      <trkpt lat="43.02806" lon="0.04787">
        <ele>1247.93</ele>
        <time>2012-12-01T09:22:11Z</time>
      </trkpt>
      <trkpt lat="43.02806" lon="0.04787">
        <ele>1247.93</ele>
        <time>2012-12-01T09:22:30Z</time>
      </trkpt>
      <trkpt lat="43.02805" lon="0.04785">
        <ele>1247.93</ele>
        <time>2012-12-01T09:22:45Z</time>
      </trkpt>
      <trkpt lat="43.02804" lon="0.04778">
        <ele>1247.93</ele>
        <time>2012-12-01T09:22:58Z</time>
      </trkpt>
      <trkpt lat="43.02814" lon="0.04783">
        <ele>1243.6</ele>
        <time>2012-12-01T09:23:10Z</time>
      </trkpt>
      <trkpt lat="43.02819" lon="0.04787">
        <ele>1242.16</ele>
        <time>2012-12-01T09:23:23Z</time>
      </trkpt>
      <trkpt lat="43.02819" lon="0.04787">
        <ele>1242.16</ele>
        <time>2012-12-01T09:23:41Z</time>
      </trkpt>
      <trkpt lat="43.0282" lon="0.04786">
        <ele>1242.16</ele>
        <time>2012-12-01T09:24:14Z</time>
      </trkpt>
      <trkpt lat="43.02821" lon="0.04786">
        <ele>1242.16</ele>
        <time>2012-12-01T09:24:38Z</time>
      </trkpt>
      <trkpt lat="43.02821" lon="0.04786">
        <ele>1242.16</ele>
        <time>2012-12-01T09:25:07Z</time>
      </trkpt>
      <trkpt lat="43.02821" lon="0.04786">
        <ele>1242.16</ele>
        <time>2012-12-01T09:25:29Z</time>
      </trkpt>
      <trkpt lat="43.02821" lon="0.04786">
        <ele>1242.16</ele>
        <time>2012-12-01T09:25:47Z</time>
      </trkpt>
      <trkpt lat="43.02822" lon="0.04786">
        <ele>1242.16</ele>
        <time>2012-12-01T09:26:13Z</time>
      </trkpt>
      <trkpt lat="43.02822" lon="0.04786">
        <ele>1242.64</ele>
        <time>2012-12-01T09:26:54Z</time>
      </trkpt>
      <trkpt lat="43.02821" lon="0.04787">
        <ele>1242.64</ele>
        <time>2012-12-01T09:27:26Z</time>
      </trkpt>
      <trkpt lat="43.0282" lon="0.04787">
        <ele>1242.16</ele>
        <time>2012-12-01T09:28:01Z</time>
      </trkpt>
      <trkpt lat="43.0282" lon="0.04787">
        <ele>1242.16</ele>
        <time>2012-12-01T09:28:29Z</time>
      </trkpt>
      <trkpt lat="43.0282" lon="0.04787">
        <ele>1242.16</ele>
        <time>2012-12-01T09:28:43Z</time>
      </trkpt>
      <trkpt lat="43.0282" lon="0.04787">
        <ele>1242.16</ele>
        <time>2012-12-01T09:28:58Z</time>
      </trkpt>
      <trkpt lat="43.0282" lon="0.04787">
        <ele>1242.16</ele>
        <time>2012-12-01T09:29:01Z</time>
      </trkpt>
      <trkpt lat="43.02821" lon="0.04788">
        <ele>1242.64</ele>
        <time>2012-12-01T09:29:07Z</time>
      </trkpt>
      <trkpt lat="43.02822" lon="0.04789">
        <ele>1242.64</ele>
        <time>2012-12-01T09:29:20Z</time>
      </trkpt>
      <trkpt lat="43.02822" lon="0.04789">
        <ele>1242.64</ele>
        <time>2012-12-01T09:29:40Z</time>
      </trkpt>
      <trkpt lat="43.02822" lon="0.04788">
        <ele>1242.64</ele>
        <time>2012-12-01T09:29:56Z</time>
      </trkpt>
      <trkpt lat="43.02823" lon="0.04787">
        <ele>1242.16</ele>
        <time>2012-12-01T09:30:10Z</time>
      </trkpt>
      <trkpt lat="43.02827" lon="0.04783">
        <ele>1241.2</ele>
        <time>2012-12-01T09:30:22Z</time>
      </trkpt>
      <trkpt lat="43.02827" lon="0.04783">
        <ele>1241.2</ele>
        <time>2012-12-01T09:30:24Z</time>
      </trkpt>
      <trkpt lat="43.02823" lon="0.04783">
        <ele>1240.24</ele>
        <time>2012-12-01T09:30:37Z</time>
      </trkpt>
      <trkpt lat="43.02823" lon="0.04783">
        <ele>1240.24</ele>
        <time>2012-12-01T09:30:54Z</time>
      </trkpt>
      <trkpt lat="43.02821" lon="0.04782">
        <ele>1240.72</ele>
        <time>2012-12-01T09:31:01Z</time>
      </trkpt>
      <trkpt lat="43.02814" lon="0.04775">
        <ele>1242.16</ele>
        <time>2012-12-01T09:31:14Z</time>
      </trkpt>
      <trkpt lat="43.02809" lon="0.04772">
        <ele>1243.12</ele>
        <time>2012-12-01T09:31:27Z</time>
      </trkpt>
      <trkpt lat="43.02809" lon="0.04772">
        <ele>1243.12</ele>
        <time>2012-12-01T09:31:43Z</time>
      </trkpt>
      <trkpt lat="43.02807" lon="0.04771">
        <ele>1244.08</ele>
        <time>2012-12-01T09:32:00Z</time>
      </trkpt>
      <trkpt lat="43.02807" lon="0.04771">
        <ele>1244.08</ele>
        <time>2012-12-01T09:32:25Z</time>
      </trkpt>
      <trkpt lat="43.02807" lon="0.04771">
        <ele>1244.08</ele>
        <time>2012-12-01T09:32:50Z</time>
      </trkpt>
      <trkpt lat="43.02806" lon="0.04771">
        <ele>1244.08</ele>
        <time>2012-12-01T09:33:16Z</time>
      </trkpt>
      <trkpt lat="43.02806" lon="0.04771">
        <ele>1244.08</ele>
        <time>2012-12-01T09:33:40Z</time>
      </trkpt>
      <trkpt lat="43.02806" lon="0.04771">
        <ele>1244.08</ele>
        <time>2012-12-01T09:33:59Z</time>
      </trkpt>
      <trkpt lat="43.02794" lon="0.04764">
        <ele>1246.49</ele>
        <time>2012-12-01T09:34:13Z</time>
      </trkpt>
      <trkpt lat="43.02785" lon="0.04758">
        <ele>1248.89</ele>
        <time>2012-12-01T09:34:27Z</time>
      </trkpt>
      <trkpt lat="43.02775" lon="0.04751">
        <ele>1251.29</ele>
        <time>2012-12-01T09:34:41Z</time>
      </trkpt>
      <trkpt lat="43.02767" lon="0.04746">
        <ele>1254.66</ele>
        <time>2012-12-01T09:34:55Z</time>
      </trkpt>
      <trkpt lat="43.02759" lon="0.04743">
        <ele>1257.06</ele>
        <time>2012-12-01T09:35:09Z</time>
      </trkpt>
      <trkpt lat="43.02749" lon="0.04739">
        <ele>1258.02</ele>
        <time>2012-12-01T09:35:22Z</time>
      </trkpt>
      <trkpt lat="43.02742" lon="0.04735">
        <ele>1259.46</ele>
        <time>2012-12-01T09:35:35Z</time>
      </trkpt>
      <trkpt lat="43.02732" lon="0.04732">
        <ele>1262.83</ele>
        <time>2012-12-01T09:35:51Z</time>
      </trkpt>
      <trkpt lat="43.02726" lon="0.04731">
        <ele>1262.83</ele>
        <time>2012-12-01T09:36:05Z</time>
      </trkpt>
      <trkpt lat="43.02719" lon="0.04729">
        <ele>1262.83</ele>
        <time>2012-12-01T09:36:20Z</time>
      </trkpt>
      <trkpt lat="43.02711" lon="0.04725">
        <ele>1263.31</ele>
        <time>2012-12-01T09:36:35Z</time>
      </trkpt>
      <trkpt lat="43.02704" lon="0.04721">
        <ele>1265.23</ele>
        <time>2012-12-01T09:36:49Z</time>
      </trkpt>
      <trkpt lat="43.02701" lon="0.0472">
        <ele>1265.23</ele>
        <time>2012-12-01T09:37:03Z</time>
      </trkpt>
      <trkpt lat="43.02697" lon="0.04717">
        <ele>1267.64</ele>
        <time>2012-12-01T09:37:16Z</time>
      </trkpt>
      <trkpt lat="43.02693" lon="0.04712">
        <ele>1271.48</ele>
        <time>2012-12-01T09:37:29Z</time>
      </trkpt>
      <trkpt lat="43.02691" lon="0.04709">
        <ele>1272.44</ele>
        <time>2012-12-01T09:37:42Z</time>
      </trkpt>
      <trkpt lat="43.02688" lon="0.04703">
        <ele>1273.4</ele>
        <time>2012-12-01T09:37:58Z</time>
      </trkpt>
      <trkpt lat="43.02686" lon="0.04701">
        <ele>1274.36</ele>
        <time>2012-12-01T09:38:13Z</time>
      </trkpt>
      <trkpt lat="43.0268" lon="0.04695">
        <ele>1276.77</ele>
        <time>2012-12-01T09:38:27Z</time>
      </trkpt>
      <trkpt lat="43.02675" lon="0.04691">
        <ele>1279.65</ele>
        <time>2012-12-01T09:38:40Z</time>
      </trkpt>
      <trkpt lat="43.02674" lon="0.04689">
        <ele>1280.13</ele>
        <time>2012-12-01T09:38:59Z</time>
      </trkpt>
      <trkpt lat="43.0267" lon="0.04689">
        <ele>1281.09</ele>
        <time>2012-12-01T09:39:23Z</time>
      </trkpt>
      <trkpt lat="43.02662" lon="0.04688">
        <ele>1282.54</ele>
        <time>2012-12-01T09:39:36Z</time>
      </trkpt>
      <trkpt lat="43.0266" lon="0.04677">
        <ele>1284.46</ele>
        <time>2012-12-01T09:39:49Z</time>
      </trkpt>
      <trkpt lat="43.02662" lon="0.04665">
        <ele>1285.9</ele>
        <time>2012-12-01T09:40:03Z</time>
      </trkpt>
      <trkpt lat="43.02661" lon="0.04658">
        <ele>1286.38</ele>
        <time>2012-12-01T09:40:17Z</time>
      </trkpt>
      <trkpt lat="43.02661" lon="0.04652">
        <ele>1286.38</ele>
        <time>2012-12-01T09:40:31Z</time>
      </trkpt>
      <trkpt lat="43.02657" lon="0.04633">
        <ele>1288.3</ele>
        <time>2012-12-01T09:40:47Z</time>
      </trkpt>
      <trkpt lat="43.02654" lon="0.04617">
        <ele>1289.75</ele>
        <time>2012-12-01T09:41:02Z</time>
      </trkpt>
      <trkpt lat="43.02652" lon="0.04606">
        <ele>1290.71</ele>
        <time>2012-12-01T09:41:15Z</time>
      </trkpt>
      <trkpt lat="43.0265" lon="0.04589">
        <ele>1292.63</ele>
        <time>2012-12-01T09:41:32Z</time>
      </trkpt>
      <trkpt lat="43.02647" lon="0.04576">
        <ele>1294.55</ele>
        <time>2012-12-01T09:41:45Z</time>
      </trkpt>
      <trkpt lat="43.02642" lon="0.04561">
        <ele>1297.44</ele>
        <time>2012-12-01T09:42:01Z</time>
      </trkpt>
      <trkpt lat="43.02638" lon="0.04549">
        <ele>1297.92</ele>
        <time>2012-12-01T09:42:16Z</time>
      </trkpt>
      <trkpt lat="43.02632" lon="0.04539">
        <ele>1297.44</ele>
        <time>2012-12-01T09:42:31Z</time>
      </trkpt>
      <trkpt lat="43.02625" lon="0.0453">
        <ele>1298.88</ele>
        <time>2012-12-01T09:42:45Z</time>
      </trkpt>
      <trkpt lat="43.02617" lon="0.04523">
        <ele>1300.32</ele>
        <time>2012-12-01T09:42:58Z</time>
      </trkpt>
      <trkpt lat="43.02608" lon="0.04516">
        <ele>1302.24</ele>
        <time>2012-12-01T09:43:13Z</time>
      </trkpt>
      <trkpt lat="43.02599" lon="0.04512">
        <ele>1302.24</ele>
        <time>2012-12-01T09:43:27Z</time>
      </trkpt>
      <trkpt lat="43.02588" lon="0.04509">
        <ele>1303.69</ele>
        <time>2012-12-01T09:43:41Z</time>
      </trkpt>
      <trkpt lat="43.02578" lon="0.04507">
        <ele>1302.72</ele>
        <time>2012-12-01T09:43:56Z</time>
      </trkpt>
      <trkpt lat="43.0257" lon="0.04507">
        <ele>1304.17</ele>
        <time>2012-12-01T09:44:08Z</time>
      </trkpt>
      <trkpt lat="43.0256" lon="0.04506">
        <ele>1306.09</ele>
        <time>2012-12-01T09:44:22Z</time>
      </trkpt>
      <trkpt lat="43.02552" lon="0.04506">
        <ele>1306.09</ele>
        <time>2012-12-01T09:44:35Z</time>
      </trkpt>
      <trkpt lat="43.02543" lon="0.04506">
        <ele>1308.01</ele>
        <time>2012-12-01T09:44:48Z</time>
      </trkpt>
      <trkpt lat="43.02539" lon="0.04505">
        <ele>1308.49</ele>
        <time>2012-12-01T09:44:53Z</time>
      </trkpt>
      <trkpt lat="43.02529" lon="0.04502">
        <ele>1310.9</ele>
        <time>2012-12-01T09:45:07Z</time>
      </trkpt>
      <trkpt lat="43.02519" lon="0.04496">
        <ele>1310.9</ele>
        <time>2012-12-01T09:45:24Z</time>
      </trkpt>
      <trkpt lat="43.02515" lon="0.04483">
        <ele>1313.3</ele>
        <time>2012-12-01T09:45:40Z</time>
      </trkpt>
      <trkpt lat="43.02514" lon="0.04481">
        <ele>1313.78</ele>
        <time>2012-12-01T09:45:42Z</time>
      </trkpt>
      <trkpt lat="43.02511" lon="0.04477">
        <ele>1314.26</ele>
        <time>2012-12-01T09:45:55Z</time>
      </trkpt>
      <trkpt lat="43.02511" lon="0.04477">
        <ele>1314.26</ele>
        <time>2012-12-01T09:46:13Z</time>
      </trkpt>
      <trkpt lat="43.02511" lon="0.04477">
        <ele>1314.26</ele>
        <time>2012-12-01T09:46:36Z</time>
      </trkpt>
      <trkpt lat="43.02511" lon="0.04477">
        <ele>1314.26</ele>
        <time>2012-12-01T09:46:58Z</time>
      </trkpt>
      <trkpt lat="43.02511" lon="0.04477">
        <ele>1314.26</ele>
        <time>2012-12-01T09:47:14Z</time>
      </trkpt>
      <trkpt lat="43.02511" lon="0.04477">
        <ele>1314.26</ele>
        <time>2012-12-01T09:47:35Z</time>
      </trkpt>
      <trkpt lat="43.02509" lon="0.0448">
        <ele>1313.78</ele>
        <time>2012-12-01T09:47:52Z</time>
      </trkpt>
      <trkpt lat="43.02511" lon="0.04493">
        <ele>1315.7</ele>
        <time>2012-12-01T09:48:06Z</time>
      </trkpt>
      <trkpt lat="43.02516" lon="0.04506">
        <ele>1318.1</ele>
        <time>2012-12-01T09:48:20Z</time>
      </trkpt>
      <trkpt lat="43.02523" lon="0.04515">
        <ele>1320.03</ele>
        <time>2012-12-01T09:48:32Z</time>
      </trkpt>
      <trkpt lat="43.02531" lon="0.04525">
        <ele>1320.51</ele>
        <time>2012-12-01T09:48:48Z</time>
      </trkpt>
      <trkpt lat="43.02538" lon="0.04531">
        <ele>1322.91</ele>
        <time>2012-12-01T09:49:02Z</time>
      </trkpt>
      <trkpt lat="43.0254" lon="0.04534">
        <ele>1323.39</ele>
        <time>2012-12-01T09:49:06Z</time>
      </trkpt>
      <trkpt lat="43.02548" lon="0.04543">
        <ele>1323.87</ele>
        <time>2012-12-01T09:49:22Z</time>
      </trkpt>
      <trkpt lat="43.02554" lon="0.04552">
        <ele>1324.35</ele>
        <time>2012-12-01T09:49:36Z</time>
      </trkpt>
      <trkpt lat="43.0256" lon="0.04563">
        <ele>1325.31</ele>
        <time>2012-12-01T09:49:51Z</time>
      </trkpt>
      <trkpt lat="43.02564" lon="0.04572">
        <ele>1326.76</ele>
        <time>2012-12-01T09:50:02Z</time>
      </trkpt>
      <trkpt lat="43.02567" lon="0.04587">
        <ele>1328.68</ele>
        <time>2012-12-01T09:50:17Z</time>
      </trkpt>
      <trkpt lat="43.02566" lon="0.04599">
        <ele>1330.12</ele>
        <time>2012-12-01T09:50:33Z</time>
      </trkpt>
      <trkpt lat="43.02565" lon="0.04613">
        <ele>1332.04</ele>
        <time>2012-12-01T09:50:47Z</time>
      </trkpt>
      <trkpt lat="43.02562" lon="0.04625">
        <ele>1332.52</ele>
        <time>2012-12-01T09:51:00Z</time>
      </trkpt>
      <trkpt lat="43.02558" lon="0.04639">
        <ele>1332.52</ele>
        <time>2012-12-01T09:51:14Z</time>
      </trkpt>
      <trkpt lat="43.02553" lon="0.0465">
        <ele>1333.97</ele>
        <time>2012-12-01T09:51:27Z</time>
      </trkpt>
      <trkpt lat="43.02547" lon="0.04661">
        <ele>1334.45</ele>
        <time>2012-12-01T09:51:41Z</time>
      </trkpt>
      <trkpt lat="43.0254" lon="0.04672">
        <ele>1334.93</ele>
        <time>2012-12-01T09:51:55Z</time>
      </trkpt>
      <trkpt lat="43.02534" lon="0.04684">
        <ele>1336.37</ele>
        <time>2012-12-01T09:52:10Z</time>
      </trkpt>
      <trkpt lat="43.02528" lon="0.04695">
        <ele>1337.81</ele>
        <time>2012-12-01T09:52:22Z</time>
      </trkpt>
      <trkpt lat="43.02519" lon="0.04693">
        <ele>1336.37</ele>
        <time>2012-12-01T09:52:35Z</time>
      </trkpt>
      <trkpt lat="43.0252" lon="0.04684">
        <ele>1337.33</ele>
        <time>2012-12-01T09:52:49Z</time>
      </trkpt>
      <trkpt lat="43.02523" lon="0.04674">
        <ele>1338.29</ele>
        <time>2012-12-01T09:53:01Z</time>
      </trkpt>
      <trkpt lat="43.02526" lon="0.0466">
        <ele>1338.77</ele>
        <time>2012-12-01T09:53:16Z</time>
      </trkpt>
      <trkpt lat="43.02526" lon="0.04647">
        <ele>1339.73</ele>
        <time>2012-12-01T09:53:30Z</time>
      </trkpt>
      <trkpt lat="43.02525" lon="0.04636">
        <ele>1340.7</ele>
        <time>2012-12-01T09:53:42Z</time>
      </trkpt>
      <trkpt lat="43.02521" lon="0.04624">
        <ele>1341.18</ele>
        <time>2012-12-01T09:53:56Z</time>
      </trkpt>
      <trkpt lat="43.02517" lon="0.04613">
        <ele>1342.14</ele>
        <time>2012-12-01T09:54:10Z</time>
      </trkpt>
      <trkpt lat="43.02514" lon="0.04601">
        <ele>1343.1</ele>
        <time>2012-12-01T09:54:24Z</time>
      </trkpt>
      <trkpt lat="43.02508" lon="0.04598">
        <ele>1344.54</ele>
        <time>2012-12-01T09:54:38Z</time>
      </trkpt>
      <trkpt lat="43.02509" lon="0.0461">
        <ele>1346.46</ele>
        <time>2012-12-01T09:54:52Z</time>
      </trkpt>
      <trkpt lat="43.02512" lon="0.04625">
        <ele>1348.87</ele>
        <time>2012-12-01T09:55:07Z</time>
      </trkpt>
      <trkpt lat="43.02509" lon="0.04639">
        <ele>1349.83</ele>
        <time>2012-12-01T09:55:21Z</time>
      </trkpt>
      <trkpt lat="43.02508" lon="0.04643">
        <ele>1350.31</ele>
        <time>2012-12-01T09:55:36Z</time>
      </trkpt>
      <trkpt lat="43.02503" lon="0.04658">
        <ele>1352.71</ele>
        <time>2012-12-01T09:55:51Z</time>
      </trkpt>
      <trkpt lat="43.02499" lon="0.0467">
        <ele>1354.63</ele>
        <time>2012-12-01T09:56:04Z</time>
      </trkpt>
      <trkpt lat="43.0249" lon="0.04678">
        <ele>1354.63</ele>
        <time>2012-12-01T09:56:18Z</time>
      </trkpt>
      <trkpt lat="43.02488" lon="0.04668">
        <ele>1355.12</ele>
        <time>2012-12-01T09:56:33Z</time>
      </trkpt>
      <trkpt lat="43.02489" lon="0.04663">
        <ele>1355.12</ele>
        <time>2012-12-01T09:56:46Z</time>
      </trkpt>
      <trkpt lat="43.0249" lon="0.04647">
        <ele>1355.12</ele>
        <time>2012-12-01T09:56:59Z</time>
      </trkpt>
      <trkpt lat="43.02488" lon="0.04635">
        <ele>1356.56</ele>
        <time>2012-12-01T09:57:12Z</time>
      </trkpt>
      <trkpt lat="43.02486" lon="0.04624">
        <ele>1356.56</ele>
        <time>2012-12-01T09:57:26Z</time>
      </trkpt>
      <trkpt lat="43.02481" lon="0.04615">
        <ele>1358.96</ele>
        <time>2012-12-01T09:57:40Z</time>
      </trkpt>
      <trkpt lat="43.02479" lon="0.04623">
        <ele>1360.88</ele>
        <time>2012-12-01T09:57:53Z</time>
      </trkpt>
      <trkpt lat="43.02477" lon="0.04633">
        <ele>1362.81</ele>
        <time>2012-12-01T09:58:06Z</time>
      </trkpt>
      <trkpt lat="43.02475" lon="0.04643">
        <ele>1364.25</ele>
        <time>2012-12-01T09:58:18Z</time>
      </trkpt>
      <trkpt lat="43.02471" lon="0.04655">
        <ele>1366.65</ele>
        <time>2012-12-01T09:58:32Z</time>
      </trkpt>
      <trkpt lat="43.02467" lon="0.04666">
        <ele>1367.61</ele>
        <time>2012-12-01T09:58:44Z</time>
      </trkpt>
      <trkpt lat="43.02463" lon="0.0467">
        <ele>1368.57</ele>
        <time>2012-12-01T09:58:51Z</time>
      </trkpt>
      <trkpt lat="43.02461" lon="0.04671">
        <ele>1368.57</ele>
        <time>2012-12-01T09:59:06Z</time>
      </trkpt>
      <trkpt lat="43.02461" lon="0.04671">
        <ele>1368.57</ele>
        <time>2012-12-01T09:59:32Z</time>
      </trkpt>
      <trkpt lat="43.02462" lon="0.04674">
        <ele>1368.09</ele>
        <time>2012-12-01T09:59:53Z</time>
      </trkpt>
      <trkpt lat="43.02462" lon="0.04673">
        <ele>1368.09</ele>
        <time>2012-12-01T10:00:09Z</time>
      </trkpt>
      <trkpt lat="43.02462" lon="0.04673">
        <ele>1368.09</ele>
        <time>2012-12-01T10:00:31Z</time>
      </trkpt>
      <trkpt lat="43.02462" lon="0.04673">
        <ele>1368.57</ele>
        <time>2012-12-01T10:00:53Z</time>
      </trkpt>
      <trkpt lat="43.02462" lon="0.04673">
        <ele>1368.57</ele>
        <time>2012-12-01T10:01:12Z</time>
      </trkpt>
      <trkpt lat="43.02462" lon="0.04674">
        <ele>1368.57</ele>
        <time>2012-12-01T10:01:37Z</time>
      </trkpt>
      <trkpt lat="43.02462" lon="0.04673">
        <ele>1368.57</ele>
        <time>2012-12-01T10:02:04Z</time>
      </trkpt>
      <trkpt lat="43.0246" lon="0.04671">
        <ele>1368.57</ele>
        <time>2012-12-01T10:02:36Z</time>
      </trkpt>
      <trkpt lat="43.02458" lon="0.04663">
        <ele>1368.57</ele>
        <time>2012-12-01T10:02:47Z</time>
      </trkpt>
      <trkpt lat="43.02458" lon="0.04652">
        <ele>1369.54</ele>
        <time>2012-12-01T10:03:01Z</time>
      </trkpt>
      <trkpt lat="43.02459" lon="0.04642">
        <ele>1370.02</ele>
        <time>2012-12-01T10:03:14Z</time>
      </trkpt>
      <trkpt lat="43.02458" lon="0.0464">
        <ele>1370.02</ele>
        <time>2012-12-01T10:03:26Z</time>
      </trkpt>
      <trkpt lat="43.02456" lon="0.04622">
        <ele>1370.02</ele>
        <time>2012-12-01T10:03:42Z</time>
      </trkpt>
      <trkpt lat="43.02454" lon="0.0461">
        <ele>1371.94</ele>
        <time>2012-12-01T10:03:56Z</time>
      </trkpt>
      <trkpt lat="43.02449" lon="0.046">
        <ele>1374.34</ele>
        <time>2012-12-01T10:04:11Z</time>
      </trkpt>
      <trkpt lat="43.02444" lon="0.04592">
        <ele>1376.26</ele>
        <time>2012-12-01T10:04:24Z</time>
      </trkpt>
      <trkpt lat="43.02439" lon="0.04583">
        <ele>1376.26</ele>
        <time>2012-12-01T10:04:37Z</time>
      </trkpt>
      <trkpt lat="43.02435" lon="0.04571">
        <ele>1377.23</ele>
        <time>2012-12-01T10:04:52Z</time>
      </trkpt>
      <trkpt lat="43.0243" lon="0.04559">
        <ele>1376.26</ele>
        <time>2012-12-01T10:05:07Z</time>
      </trkpt>
      <trkpt lat="43.02428" lon="0.04553">
        <ele>1377.71</ele>
        <time>2012-12-01T10:05:21Z</time>
      </trkpt>
      <trkpt lat="43.02428" lon="0.04553">
        <ele>1377.71</ele>
        <time>2012-12-01T10:05:33Z</time>
      </trkpt>
      <trkpt lat="43.02421" lon="0.04539">
        <ele>1379.63</ele>
        <time>2012-12-01T10:05:45Z</time>
      </trkpt>
      <trkpt lat="43.02414" lon="0.04538">
        <ele>1383.47</ele>
        <time>2012-12-01T10:05:58Z</time>
      </trkpt>
      <trkpt lat="43.02417" lon="0.04549">
        <ele>1387.32</ele>
        <time>2012-12-01T10:06:13Z</time>
      </trkpt>
      <trkpt lat="43.02419" lon="0.04562">
        <ele>1389.24</ele>
        <time>2012-12-01T10:06:27Z</time>
      </trkpt>
      <trkpt lat="43.02423" lon="0.04576">
        <ele>1392.13</ele>
        <time>2012-12-01T10:06:43Z</time>
      </trkpt>
      <trkpt lat="43.02424" lon="0.0459">
        <ele>1394.53</ele>
        <time>2012-12-01T10:06:57Z</time>
      </trkpt>
      <trkpt lat="43.02422" lon="0.04604">
        <ele>1395.97</ele>
        <time>2012-12-01T10:07:11Z</time>
      </trkpt>
      <trkpt lat="43.0242" lon="0.04619">
        <ele>1396.93</ele>
        <time>2012-12-01T10:07:26Z</time>
      </trkpt>
      <trkpt lat="43.02418" lon="0.04633">
        <ele>1397.89</ele>
        <time>2012-12-01T10:07:40Z</time>
      </trkpt>
      <trkpt lat="43.02415" lon="0.0465">
        <ele>1398.86</ele>
        <time>2012-12-01T10:07:55Z</time>
      </trkpt>
      <trkpt lat="43.02413" lon="0.04654">
        <ele>1399.34</ele>
        <time>2012-12-01T10:08:09Z</time>
      </trkpt>
      <trkpt lat="43.02413" lon="0.04654">
        <ele>1399.34</ele>
        <time>2012-12-01T10:08:29Z</time>
      </trkpt>
      <trkpt lat="43.02413" lon="0.04654">
        <ele>1399.34</ele>
        <time>2012-12-01T10:08:52Z</time>
      </trkpt>
      <trkpt lat="43.02413" lon="0.04654">
        <ele>1399.34</ele>
        <time>2012-12-01T10:09:10Z</time>
      </trkpt>
      <trkpt lat="43.02412" lon="0.04654">
        <ele>1398.86</ele>
        <time>2012-12-01T10:09:27Z</time>
      </trkpt>
      <trkpt lat="43.02407" lon="0.04648">
        <ele>1399.82</ele>
        <time>2012-12-01T10:09:40Z</time>
      </trkpt>
      <trkpt lat="43.02406" lon="0.04645">
        <ele>1400.3</ele>
        <time>2012-12-01T10:09:43Z</time>
      </trkpt>
      <trkpt lat="43.02404" lon="0.0463">
        <ele>1400.3</ele>
        <time>2012-12-01T10:09:57Z</time>
      </trkpt>
      <trkpt lat="43.02402" lon="0.04618">
        <ele>1401.26</ele>
        <time>2012-12-01T10:10:11Z</time>
      </trkpt>
      <trkpt lat="43.024" lon="0.0461">
        <ele>1401.26</ele>
        <time>2012-12-01T10:10:25Z</time>
      </trkpt>
      <trkpt lat="43.02397" lon="0.04599">
        <ele>1402.7</ele>
        <time>2012-12-01T10:10:40Z</time>
      </trkpt>
      <trkpt lat="43.02394" lon="0.04593">
        <ele>1402.22</ele>
        <time>2012-12-01T10:10:53Z</time>
      </trkpt>
      <trkpt lat="43.02394" lon="0.04593">
        <ele>1402.22</ele>
        <time>2012-12-01T10:11:05Z</time>
      </trkpt>
      <trkpt lat="43.02388" lon="0.0459">
        <ele>1406.07</ele>
        <time>2012-12-01T10:11:18Z</time>
      </trkpt>
      <trkpt lat="43.02387" lon="0.046">
        <ele>1410.39</ele>
        <time>2012-12-01T10:11:35Z</time>
      </trkpt>
      <trkpt lat="43.02387" lon="0.04612">
        <ele>1411.83</ele>
        <time>2012-12-01T10:11:51Z</time>
      </trkpt>
      <trkpt lat="43.02381" lon="0.0462">
        <ele>1413.76</ele>
        <time>2012-12-01T10:12:06Z</time>
      </trkpt>
      <trkpt lat="43.02376" lon="0.04616">
        <ele>1415.2</ele>
        <time>2012-12-01T10:12:22Z</time>
      </trkpt>
      <trkpt lat="43.02376" lon="0.04616">
        <ele>1415.2</ele>
        <time>2012-12-01T10:12:35Z</time>
      </trkpt>
      <trkpt lat="43.02376" lon="0.04616">
        <ele>1415.2</ele>
        <time>2012-12-01T10:12:52Z</time>
      </trkpt>
      <trkpt lat="43.02376" lon="0.04614">
        <ele>1414.72</ele>
        <time>2012-12-01T10:13:07Z</time>
      </trkpt>
      <trkpt lat="43.02376" lon="0.04614">
        <ele>1414.72</ele>
        <time>2012-12-01T10:13:23Z</time>
      </trkpt>
      <trkpt lat="43.02376" lon="0.04612">
        <ele>1414.72</ele>
        <time>2012-12-01T10:13:40Z</time>
      </trkpt>
      <trkpt lat="43.02376" lon="0.04612">
        <ele>1414.72</ele>
        <time>2012-12-01T10:13:54Z</time>
      </trkpt>
      <trkpt lat="43.02376" lon="0.04612">
        <ele>1414.72</ele>
        <time>2012-12-01T10:14:07Z</time>
      </trkpt>
      <trkpt lat="43.02375" lon="0.0461">
        <ele>1415.2</ele>
        <time>2012-12-01T10:14:24Z</time>
      </trkpt>
      <trkpt lat="43.02375" lon="0.0461">
        <ele>1415.2</ele>
        <time>2012-12-01T10:14:40Z</time>
      </trkpt>
      <trkpt lat="43.02359" lon="0.0457">
        <ele>1405.58</ele>
        <time>2012-12-01T10:14:53Z</time>
      </trkpt>
      <trkpt lat="43.02348" lon="0.04534">
        <ele>1404.62</ele>
        <time>2012-12-01T10:15:06Z</time>
      </trkpt>
      <trkpt lat="43.02342" lon="0.04513">
        <ele>1406.55</ele>
        <time>2012-12-01T10:15:17Z</time>
      </trkpt>
      <trkpt lat="43.02343" lon="0.04496">
        <ele>1411.83</ele>
        <time>2012-12-01T10:15:29Z</time>
      </trkpt>
      <trkpt lat="43.02342" lon="0.04475">
        <ele>1418.56</ele>
        <time>2012-12-01T10:15:43Z</time>
      </trkpt>
      <trkpt lat="43.02342" lon="0.04475">
        <ele>1418.56</ele>
        <time>2012-12-01T10:16:02Z</time>
      </trkpt>
      <trkpt lat="43.02342" lon="0.04475">
        <ele>1419.04</ele>
        <time>2012-12-01T10:16:27Z</time>
      </trkpt>
      <trkpt lat="43.02342" lon="0.04475">
        <ele>1419.04</ele>
        <time>2012-12-01T10:16:48Z</time>
      </trkpt>
      <trkpt lat="43.02342" lon="0.04474">
        <ele>1419.04</ele>
        <time>2012-12-01T10:17:07Z</time>
      </trkpt>
      <trkpt lat="43.02342" lon="0.04474">
        <ele>1419.04</ele>
        <time>2012-12-01T10:17:25Z</time>
      </trkpt>
      <trkpt lat="43.02342" lon="0.04474">
        <ele>1419.04</ele>
        <time>2012-12-01T10:17:46Z</time>
      </trkpt>
      <trkpt lat="43.0234" lon="0.04471">
        <ele>1420</ele>
        <time>2012-12-01T10:17:56Z</time>
      </trkpt>
      <trkpt lat="43.0233" lon="0.04461">
        <ele>1424.33</ele>
        <time>2012-12-01T10:18:11Z</time>
      </trkpt>
      <trkpt lat="43.0233" lon="0.04461">
        <ele>1424.33</ele>
        <time>2012-12-01T10:18:31Z</time>
      </trkpt>
      <trkpt lat="43.0233" lon="0.04461">
        <ele>1424.33</ele>
        <time>2012-12-01T10:18:57Z</time>
      </trkpt>
      <trkpt lat="43.0233" lon="0.04461">
        <ele>1424.33</ele>
        <time>2012-12-01T10:19:22Z</time>
      </trkpt>
      <trkpt lat="43.02328" lon="0.04457">
        <ele>1425.77</ele>
        <time>2012-12-01T10:19:39Z</time>
      </trkpt>
      <trkpt lat="43.02328" lon="0.04457">
        <ele>1426.25</ele>
        <time>2012-12-01T10:19:54Z</time>
      </trkpt>
      <trkpt lat="43.02328" lon="0.04457">
        <ele>1426.25</ele>
        <time>2012-12-01T10:20:14Z</time>
      </trkpt>
      <trkpt lat="43.02328" lon="0.04457">
        <ele>1426.25</ele>
        <time>2012-12-01T10:20:38Z</time>
      </trkpt>
      <trkpt lat="43.02327" lon="0.04457">
        <ele>1426.73</ele>
        <time>2012-12-01T10:21:08Z</time>
      </trkpt>
      <trkpt lat="43.02327" lon="0.04457">
        <ele>1426.73</ele>
        <time>2012-12-01T10:21:27Z</time>
      </trkpt>
      <trkpt lat="43.02327" lon="0.04457">
        <ele>1426.73</ele>
        <time>2012-12-01T10:21:42Z</time>
      </trkpt>
      <trkpt lat="43.02327" lon="0.04457">
        <ele>1426.73</ele>
        <time>2012-12-01T10:22:15Z</time>
      </trkpt>
      <trkpt lat="43.02327" lon="0.04457">
        <ele>1427.21</ele>
        <time>2012-12-01T10:22:40Z</time>
      </trkpt>
      <trkpt lat="43.02327" lon="0.04457">
        <ele>1427.21</ele>
        <time>2012-12-01T10:22:57Z</time>
      </trkpt>
      <trkpt lat="43.02327" lon="0.04457">
        <ele>1427.21</ele>
        <time>2012-12-01T10:23:14Z</time>
      </trkpt>
      <trkpt lat="43.02327" lon="0.04457">
        <ele>1427.21</ele>
        <time>2012-12-01T10:23:36Z</time>
      </trkpt>
      <trkpt lat="43.02327" lon="0.04458">
        <ele>1427.7</ele>
        <time>2012-12-01T10:23:54Z</time>
      </trkpt>
      <trkpt lat="43.02328" lon="0.04459">
        <ele>1428.18</ele>
        <time>2012-12-01T10:23:55Z</time>
      </trkpt>
      <trkpt lat="43.02326" lon="0.04464">
        <ele>1429.62</ele>
        <time>2012-12-01T10:24:00Z</time>
      </trkpt>
      <trkpt lat="43.0232" lon="0.04472">
        <ele>1432.02</ele>
        <time>2012-12-01T10:24:12Z</time>
      </trkpt>
      <trkpt lat="43.02315" lon="0.04476">
        <ele>1433.46</ele>
        <time>2012-12-01T10:24:24Z</time>
      </trkpt>
      <trkpt lat="43.02315" lon="0.04477">
        <ele>1433.94</ele>
        <time>2012-12-01T10:24:37Z</time>
      </trkpt>
      <trkpt lat="43.02319" lon="0.0449">
        <ele>1436.35</ele>
        <time>2012-12-01T10:24:50Z</time>
      </trkpt>
      <trkpt lat="43.02319" lon="0.04504">
        <ele>1438.75</ele>
        <time>2012-12-01T10:25:06Z</time>
      </trkpt>
      <trkpt lat="43.02318" lon="0.04507">
        <ele>1439.71</ele>
        <time>2012-12-01T10:25:19Z</time>
      </trkpt>
      <trkpt lat="43.02318" lon="0.04524">
        <ele>1441.15</ele>
        <time>2012-12-01T10:25:32Z</time>
      </trkpt>
      <trkpt lat="43.02314" lon="0.04535">
        <ele>1442.6</ele>
        <time>2012-12-01T10:25:46Z</time>
      </trkpt>
      <trkpt lat="43.02311" lon="0.04542">
        <ele>1444.04</ele>
        <time>2012-12-01T10:25:59Z</time>
      </trkpt>
      <trkpt lat="43.0231" lon="0.04546">
        <ele>1444.52</ele>
        <time>2012-12-01T10:26:11Z</time>
      </trkpt>
      <trkpt lat="43.0231" lon="0.04546">
        <ele>1444.52</ele>
        <time>2012-12-01T10:26:27Z</time>
      </trkpt>
      <trkpt lat="43.02305" lon="0.04555">
        <ele>1447.4</ele>
        <time>2012-12-01T10:26:40Z</time>
      </trkpt>
      <trkpt lat="43.023" lon="0.04566">
        <ele>1448.84</ele>
        <time>2012-12-01T10:26:52Z</time>
      </trkpt>
      <trkpt lat="43.02299" lon="0.04567">
        <ele>1449.32</ele>
        <time>2012-12-01T10:27:04Z</time>
      </trkpt>
      <trkpt lat="43.02299" lon="0.04567">
        <ele>1449.32</ele>
        <time>2012-12-01T10:27:18Z</time>
      </trkpt>
      <trkpt lat="43.02299" lon="0.04567">
        <ele>1449.32</ele>
        <time>2012-12-01T10:27:29Z</time>
      </trkpt>
      <trkpt lat="43.02298" lon="0.04568">
        <ele>1449.32</ele>
        <time>2012-12-01T10:27:40Z</time>
      </trkpt>
      <trkpt lat="43.02298" lon="0.04568">
        <ele>1449.32</ele>
        <time>2012-12-01T10:27:54Z</time>
      </trkpt>
      <trkpt lat="43.02298" lon="0.04574">
        <ele>1451.25</ele>
        <time>2012-12-01T10:28:08Z</time>
      </trkpt>
      <trkpt lat="43.02298" lon="0.04574">
        <ele>1451.25</ele>
        <time>2012-12-01T10:28:22Z</time>
      </trkpt>
      <trkpt lat="43.02289" lon="0.04605">
        <ele>1455.57</ele>
        <time>2012-12-01T10:28:36Z</time>
      </trkpt>
      <trkpt lat="43.02289" lon="0.04605">
        <ele>1455.57</ele>
        <time>2012-12-01T10:28:48Z</time>
      </trkpt>
      <trkpt lat="43.02289" lon="0.04605">
        <ele>1455.57</ele>
        <time>2012-12-01T10:29:01Z</time>
      </trkpt>
      <trkpt lat="43.0228" lon="0.04612">
        <ele>1456.53</ele>
        <time>2012-12-01T10:29:13Z</time>
      </trkpt>
      <trkpt lat="43.02261" lon="0.04635">
        <ele>1464.71</ele>
        <time>2012-12-01T10:29:27Z</time>
      </trkpt>
      <trkpt lat="43.02261" lon="0.04635">
        <ele>1464.71</ele>
        <time>2012-12-01T10:29:43Z</time>
      </trkpt>
      <trkpt lat="43.02261" lon="0.04636">
        <ele>1465.67</ele>
        <time>2012-12-01T10:30:04Z</time>
      </trkpt>
      <trkpt lat="43.02261" lon="0.04636">
        <ele>1465.67</ele>
        <time>2012-12-01T10:30:26Z</time>
      </trkpt>
      <trkpt lat="43.0226" lon="0.04637">
        <ele>1465.67</ele>
        <time>2012-12-01T10:30:51Z</time>
      </trkpt>
      <trkpt lat="43.0226" lon="0.04637">
        <ele>1465.67</ele>
        <time>2012-12-01T10:31:18Z</time>
      </trkpt>
      <trkpt lat="43.02259" lon="0.04638">
        <ele>1467.11</ele>
        <time>2012-12-01T10:31:42Z</time>
      </trkpt>
      <trkpt lat="43.02257" lon="0.0464">
        <ele>1467.59</ele>
        <time>2012-12-01T10:32:09Z</time>
      </trkpt>
      <trkpt lat="43.02257" lon="0.0464">
        <ele>1467.59</ele>
        <time>2012-12-01T10:32:30Z</time>
      </trkpt>
      <trkpt lat="43.02257" lon="0.0464">
        <ele>1467.59</ele>
        <time>2012-12-01T10:32:48Z</time>
      </trkpt>
      <trkpt lat="43.02257" lon="0.0464">
        <ele>1467.59</ele>
        <time>2012-12-01T10:33:14Z</time>
      </trkpt>
      <trkpt lat="43.02256" lon="0.0464">
        <ele>1467.59</ele>
        <time>2012-12-01T10:33:29Z</time>
      </trkpt>
      <trkpt lat="43.02254" lon="0.0464">
        <ele>1467.59</ele>
        <time>2012-12-01T10:33:44Z</time>
      </trkpt>
      <trkpt lat="43.02253" lon="0.04641">
        <ele>1466.63</ele>
        <time>2012-12-01T10:33:55Z</time>
      </trkpt>
      <trkpt lat="43.02244" lon="0.04646">
        <ele>1465.19</ele>
        <time>2012-12-01T10:34:11Z</time>
      </trkpt>
      <trkpt lat="43.02233" lon="0.04646">
        <ele>1465.19</ele>
        <time>2012-12-01T10:34:26Z</time>
      </trkpt>
      <trkpt lat="43.02227" lon="0.04652">
        <ele>1462.78</ele>
        <time>2012-12-01T10:34:39Z</time>
      </trkpt>
      <trkpt lat="43.02219" lon="0.04661">
        <ele>1460.86</ele>
        <time>2012-12-01T10:34:52Z</time>
      </trkpt>
      <trkpt lat="43.02209" lon="0.04668">
        <ele>1459.42</ele>
        <time>2012-12-01T10:35:06Z</time>
      </trkpt>
      <trkpt lat="43.02202" lon="0.04677">
        <ele>1459.42</ele>
        <time>2012-12-01T10:35:20Z</time>
      </trkpt>
      <trkpt lat="43.02194" lon="0.04688">
        <ele>1458.46</ele>
        <time>2012-12-01T10:35:34Z</time>
      </trkpt>
      <trkpt lat="43.02186" lon="0.04696">
        <ele>1457.98</ele>
        <time>2012-12-01T10:35:46Z</time>
      </trkpt>
      <trkpt lat="43.02184" lon="0.04698">
        <ele>1457.98</ele>
        <time>2012-12-01T10:36:00Z</time>
      </trkpt>
      <trkpt lat="43.02182" lon="0.04702">
        <ele>1457.5</ele>
        <time>2012-12-01T10:36:17Z</time>
      </trkpt>
      <trkpt lat="43.02178" lon="0.04704">
        <ele>1457.5</ele>
        <time>2012-12-01T10:36:36Z</time>
      </trkpt>
      <trkpt lat="43.02178" lon="0.04704">
        <ele>1457.5</ele>
        <time>2012-12-01T10:36:56Z</time>
      </trkpt>
      <trkpt lat="43.02171" lon="0.04713">
        <ele>1457.5</ele>
        <time>2012-12-01T10:37:11Z</time>
      </trkpt>
      <trkpt lat="43.02164" lon="0.04721">
        <ele>1457.98</ele>
        <time>2012-12-01T10:37:24Z</time>
      </trkpt>
      <trkpt lat="43.02157" lon="0.04728">
        <ele>1458.46</ele>
        <time>2012-12-01T10:37:36Z</time>
      </trkpt>
      <trkpt lat="43.02148" lon="0.04738">
        <ele>1458.46</ele>
        <time>2012-12-01T10:37:53Z</time>
      </trkpt>
      <trkpt lat="43.02146" lon="0.04747">
        <ele>1459.9</ele>
        <time>2012-12-01T10:38:05Z</time>
      </trkpt>
      <trkpt lat="43.02143" lon="0.0476">
        <ele>1461.82</ele>
        <time>2012-12-01T10:38:18Z</time>
      </trkpt>
      <trkpt lat="43.02138" lon="0.04772">
        <ele>1463.74</ele>
        <time>2012-12-01T10:38:33Z</time>
      </trkpt>
      <trkpt lat="43.0213" lon="0.0478">
        <ele>1465.19</ele>
        <time>2012-12-01T10:38:52Z</time>
      </trkpt>
      <trkpt lat="43.02124" lon="0.04786">
        <ele>1468.07</ele>
        <time>2012-12-01T10:39:07Z</time>
      </trkpt>
      <trkpt lat="43.02119" lon="0.04789">
        <ele>1469.99</ele>
        <time>2012-12-01T10:39:20Z</time>
      </trkpt>
      <trkpt lat="43.02116" lon="0.04796">
        <ele>1471.92</ele>
        <time>2012-12-01T10:39:33Z</time>
      </trkpt>
      <trkpt lat="43.02113" lon="0.04804">
        <ele>1473.84</ele>
        <time>2012-12-01T10:39:47Z</time>
      </trkpt>
      <trkpt lat="43.02112" lon="0.04811">
        <ele>1475.28</ele>
        <time>2012-12-01T10:39:59Z</time>
      </trkpt>
      <trkpt lat="43.02109" lon="0.04818">
        <ele>1476.72</ele>
        <time>2012-12-01T10:40:13Z</time>
      </trkpt>
      <trkpt lat="43.02108" lon="0.04826">
        <ele>1478.65</ele>
        <time>2012-12-01T10:40:27Z</time>
      </trkpt>
      <trkpt lat="43.02104" lon="0.04833">
        <ele>1480.09</ele>
        <time>2012-12-01T10:40:41Z</time>
      </trkpt>
      <trkpt lat="43.02097" lon="0.04838">
        <ele>1482.49</ele>
        <time>2012-12-01T10:40:56Z</time>
      </trkpt>
      <trkpt lat="43.02092" lon="0.04843">
        <ele>1483.45</ele>
        <time>2012-12-01T10:41:13Z</time>
      </trkpt>
      <trkpt lat="43.02086" lon="0.04849">
        <ele>1485.37</ele>
        <time>2012-12-01T10:41:29Z</time>
      </trkpt>
      <trkpt lat="43.02077" lon="0.04852">
        <ele>1487.3</ele>
        <time>2012-12-01T10:41:44Z</time>
      </trkpt>
      <trkpt lat="43.0207" lon="0.04855">
        <ele>1488.26</ele>
        <time>2012-12-01T10:41:57Z</time>
      </trkpt>
      <trkpt lat="43.02071" lon="0.0486">
        <ele>1487.78</ele>
        <time>2012-12-01T10:42:09Z</time>
      </trkpt>
      <trkpt lat="43.02073" lon="0.04857">
        <ele>1487.78</ele>
        <time>2012-12-01T10:42:23Z</time>
      </trkpt>
      <trkpt lat="43.02074" lon="0.04858">
        <ele>1487.78</ele>
        <time>2012-12-01T10:42:28Z</time>
      </trkpt>
      <trkpt lat="43.0208" lon="0.0486">
        <ele>1487.3</ele>
        <time>2012-12-01T10:42:43Z</time>
      </trkpt>
      <trkpt lat="43.02084" lon="0.0486">
        <ele>1487.3</ele>
        <time>2012-12-01T10:43:05Z</time>
      </trkpt>
      <trkpt lat="43.02083" lon="0.04859">
        <ele>1487.3</ele>
        <time>2012-12-01T10:43:23Z</time>
      </trkpt>
      <trkpt lat="43.02078" lon="0.04858">
        <ele>1486.82</ele>
        <time>2012-12-01T10:43:29Z</time>
      </trkpt>
      <trkpt lat="43.02072" lon="0.04858">
        <ele>1487.3</ele>
        <time>2012-12-01T10:43:42Z</time>
      </trkpt>
      <trkpt lat="43.02072" lon="0.04858">
        <ele>1487.3</ele>
        <time>2012-12-01T10:44:03Z</time>
      </trkpt>
      <trkpt lat="43.02069" lon="0.04857">
        <ele>1487.78</ele>
        <time>2012-12-01T10:44:15Z</time>
      </trkpt>
      <trkpt lat="43.02059" lon="0.04861">
        <ele>1488.74</ele>
        <time>2012-12-01T10:44:29Z</time>
      </trkpt>
      <trkpt lat="43.02052" lon="0.04864">
        <ele>1490.66</ele>
        <time>2012-12-01T10:44:42Z</time>
      </trkpt>
      <trkpt lat="43.02045" lon="0.04864">
        <ele>1492.1</ele>
        <time>2012-12-01T10:44:55Z</time>
      </trkpt>
      <trkpt lat="43.02038" lon="0.04869">
        <ele>1493.55</ele>
        <time>2012-12-01T10:45:08Z</time>
      </trkpt>
      <trkpt lat="43.02031" lon="0.04874">
        <ele>1494.03</ele>
        <time>2012-12-01T10:45:21Z</time>
      </trkpt>
      <trkpt lat="43.02025" lon="0.04882">
        <ele>1494.51</ele>
        <time>2012-12-01T10:45:36Z</time>
      </trkpt>
      <trkpt lat="43.02022" lon="0.04887">
        <ele>1495.95</ele>
        <time>2012-12-01T10:45:48Z</time>
      </trkpt>
      <trkpt lat="43.02021" lon="0.04888">
        <ele>1495.95</ele>
        <time>2012-12-01T10:46:02Z</time>
      </trkpt>
      <trkpt lat="43.0202" lon="0.04889">
        <ele>1495.95</ele>
        <time>2012-12-01T10:46:21Z</time>
      </trkpt>
      <trkpt lat="43.0202" lon="0.04889">
        <ele>1495.95</ele>
        <time>2012-12-01T10:46:39Z</time>
      </trkpt>
      <trkpt lat="43.0202" lon="0.04889">
        <ele>1495.95</ele>
        <time>2012-12-01T10:46:59Z</time>
      </trkpt>
      <trkpt lat="43.0202" lon="0.04889">
        <ele>1495.95</ele>
        <time>2012-12-01T10:47:19Z</time>
      </trkpt>
      <trkpt lat="43.0202" lon="0.04889">
        <ele>1495.95</ele>
        <time>2012-12-01T10:47:33Z</time>
      </trkpt>
      <trkpt lat="43.0202" lon="0.04889">
        <ele>1495.95</ele>
        <time>2012-12-01T10:48:01Z</time>
      </trkpt>
      <trkpt lat="43.0202" lon="0.0489">
        <ele>1496.43</ele>
        <time>2012-12-01T10:48:13Z</time>
      </trkpt>
      <trkpt lat="43.02022" lon="0.04892">
        <ele>1496.91</ele>
        <time>2012-12-01T10:48:31Z</time>
      </trkpt>
      <trkpt lat="43.02025" lon="0.04897">
        <ele>1498.35</ele>
        <time>2012-12-01T10:48:45Z</time>
      </trkpt>
      <trkpt lat="43.02025" lon="0.04897">
        <ele>1498.35</ele>
        <time>2012-12-01T10:49:13Z</time>
      </trkpt>
      <trkpt lat="43.02025" lon="0.04896">
        <ele>1498.35</ele>
        <time>2012-12-01T10:49:28Z</time>
      </trkpt>
      <trkpt lat="43.02025" lon="0.04896">
        <ele>1498.35</ele>
        <time>2012-12-01T10:49:53Z</time>
      </trkpt>
      <trkpt lat="43.02026" lon="0.04896">
        <ele>1497.87</ele>
        <time>2012-12-01T10:50:05Z</time>
      </trkpt>
      <trkpt lat="43.02026" lon="0.04896">
        <ele>1497.87</ele>
        <time>2012-12-01T10:50:30Z</time>
      </trkpt>
      <trkpt lat="43.02026" lon="0.04896">
        <ele>1497.87</ele>
        <time>2012-12-01T10:51:03Z</time>
      </trkpt>
      <trkpt lat="43.02025" lon="0.04895">
        <ele>1497.39</ele>
        <time>2012-12-01T10:51:18Z</time>
      </trkpt>
      <trkpt lat="43.02023" lon="0.04895">
        <ele>1497.39</ele>
        <time>2012-12-01T10:51:26Z</time>
      </trkpt>
      <trkpt lat="43.02012" lon="0.04898">
        <ele>1499.79</ele>
        <time>2012-12-01T10:51:40Z</time>
      </trkpt>
      <trkpt lat="43.02005" lon="0.04906">
        <ele>1501.72</ele>
        <time>2012-12-01T10:51:54Z</time>
      </trkpt>
      <trkpt lat="43.01999" lon="0.04913">
        <ele>1503.16</ele>
        <time>2012-12-01T10:52:07Z</time>
      </trkpt>
      <trkpt lat="43.01994" lon="0.0492">
        <ele>1505.08</ele>
        <time>2012-12-01T10:52:23Z</time>
      </trkpt>
      <trkpt lat="43.0199" lon="0.04925">
        <ele>1506.52</ele>
        <time>2012-12-01T10:52:31Z</time>
      </trkpt>
      <trkpt lat="43.01984" lon="0.04931">
        <ele>1507.97</ele>
        <time>2012-12-01T10:52:47Z</time>
      </trkpt>
      <trkpt lat="43.0198" lon="0.04937">
        <ele>1509.89</ele>
        <time>2012-12-01T10:52:59Z</time>
      </trkpt>
      <trkpt lat="43.01974" lon="0.04943">
        <ele>1510.85</ele>
        <time>2012-12-01T10:53:14Z</time>
      </trkpt>
      <trkpt lat="43.01969" lon="0.04947">
        <ele>1511.81</ele>
        <time>2012-12-01T10:53:27Z</time>
      </trkpt>
      <trkpt lat="43.01963" lon="0.04951">
        <ele>1513.25</ele>
        <time>2012-12-01T10:53:45Z</time>
      </trkpt>
      <trkpt lat="43.01958" lon="0.04955">
        <ele>1515.18</ele>
        <time>2012-12-01T10:54:00Z</time>
      </trkpt>
      <trkpt lat="43.01954" lon="0.04961">
        <ele>1517.58</ele>
        <time>2012-12-01T10:54:14Z</time>
      </trkpt>
      <trkpt lat="43.01949" lon="0.04965">
        <ele>1519.02</ele>
        <time>2012-12-01T10:54:30Z</time>
      </trkpt>
      <trkpt lat="43.01945" lon="0.0497">
        <ele>1519.5</ele>
        <time>2012-12-01T10:54:45Z</time>
      </trkpt>
      <trkpt lat="43.0194" lon="0.04976">
        <ele>1520.46</ele>
        <time>2012-12-01T10:54:58Z</time>
      </trkpt>
      <trkpt lat="43.01936" lon="0.0498">
        <ele>1520.46</ele>
        <time>2012-12-01T10:55:12Z</time>
      </trkpt>
      <trkpt lat="43.01932" lon="0.04989">
        <ele>1521.9</ele>
        <time>2012-12-01T10:55:26Z</time>
      </trkpt>
      <trkpt lat="43.01929" lon="0.04994">
        <ele>1521.9</ele>
        <time>2012-12-01T10:55:38Z</time>
      </trkpt>
      <trkpt lat="43.01926" lon="0.04997">
        <ele>1523.35</ele>
        <time>2012-12-01T10:55:50Z</time>
      </trkpt>
      <trkpt lat="43.01922" lon="0.05004">
        <ele>1523.35</ele>
        <time>2012-12-01T10:56:06Z</time>
      </trkpt>
      <trkpt lat="43.01919" lon="0.05008">
        <ele>1524.79</ele>
        <time>2012-12-01T10:56:17Z</time>
      </trkpt>
      <trkpt lat="43.01918" lon="0.05011">
        <ele>1525.75</ele>
        <time>2012-12-01T10:56:32Z</time>
      </trkpt>
      <trkpt lat="43.01914" lon="0.05015">
        <ele>1526.71</ele>
        <time>2012-12-01T10:56:46Z</time>
      </trkpt>
      <trkpt lat="43.0191" lon="0.05019">
        <ele>1528.63</ele>
        <time>2012-12-01T10:56:59Z</time>
      </trkpt>
      <trkpt lat="43.01908" lon="0.0502">
        <ele>1529.11</ele>
        <time>2012-12-01T10:57:20Z</time>
      </trkpt>
      <trkpt lat="43.01904" lon="0.05025">
        <ele>1530.56</ele>
        <time>2012-12-01T10:57:33Z</time>
      </trkpt>
      <trkpt lat="43.01901" lon="0.05028">
        <ele>1532.48</ele>
        <time>2012-12-01T10:57:49Z</time>
      </trkpt>
      <trkpt lat="43.01897" lon="0.05032">
        <ele>1533.44</ele>
        <time>2012-12-01T10:58:04Z</time>
      </trkpt>
      <trkpt lat="43.01894" lon="0.05035">
        <ele>1535.36</ele>
        <time>2012-12-01T10:58:18Z</time>
      </trkpt>
      <trkpt lat="43.01891" lon="0.05038">
        <ele>1536.32</ele>
        <time>2012-12-01T10:58:33Z</time>
      </trkpt>
      <trkpt lat="43.01887" lon="0.05044">
        <ele>1538.73</ele>
        <time>2012-12-01T10:58:45Z</time>
      </trkpt>
      <trkpt lat="43.01885" lon="0.05046">
        <ele>1539.69</ele>
        <time>2012-12-01T10:59:01Z</time>
      </trkpt>
      <trkpt lat="43.01881" lon="0.05052">
        <ele>1540.17</ele>
        <time>2012-12-01T10:59:18Z</time>
      </trkpt>
      <trkpt lat="43.01876" lon="0.05058">
        <ele>1542.09</ele>
        <time>2012-12-01T10:59:32Z</time>
      </trkpt>
      <trkpt lat="43.0187" lon="0.05062">
        <ele>1543.53</ele>
        <time>2012-12-01T10:59:46Z</time>
      </trkpt>
      <trkpt lat="43.01865" lon="0.05067">
        <ele>1544.98</ele>
        <time>2012-12-01T10:59:59Z</time>
      </trkpt>
      <trkpt lat="43.01863" lon="0.0507">
        <ele>1545.94</ele>
        <time>2012-12-01T11:00:13Z</time>
      </trkpt>
      <trkpt lat="43.01858" lon="0.05076">
        <ele>1546.9</ele>
        <time>2012-12-01T11:00:27Z</time>
      </trkpt>
      <trkpt lat="43.01852" lon="0.05083">
        <ele>1546.9</ele>
        <time>2012-12-01T11:00:45Z</time>
      </trkpt>
      <trkpt lat="43.01848" lon="0.05088">
        <ele>1548.34</ele>
        <time>2012-12-01T11:00:58Z</time>
      </trkpt>
      <trkpt lat="43.01843" lon="0.05092">
        <ele>1548.82</ele>
        <time>2012-12-01T11:01:13Z</time>
      </trkpt>
      <trkpt lat="43.01837" lon="0.05097">
        <ele>1550.26</ele>
        <time>2012-12-01T11:01:29Z</time>
      </trkpt>
      <trkpt lat="43.01833" lon="0.051">
        <ele>1550.74</ele>
        <time>2012-12-01T11:01:43Z</time>
      </trkpt>
      <trkpt lat="43.0183" lon="0.05103">
        <ele>1552.67</ele>
        <time>2012-12-01T11:01:55Z</time>
      </trkpt>
      <trkpt lat="43.0183" lon="0.05103">
        <ele>1552.67</ele>
        <time>2012-12-01T11:02:19Z</time>
      </trkpt>
      <trkpt lat="43.01829" lon="0.05105">
        <ele>1553.15</ele>
        <time>2012-12-01T11:02:45Z</time>
      </trkpt>
      <trkpt lat="43.01818" lon="0.05112">
        <ele>1553.15</ele>
        <time>2012-12-01T11:02:57Z</time>
      </trkpt>
      <trkpt lat="43.01818" lon="0.05112">
        <ele>1553.63</ele>
        <time>2012-12-01T11:02:58Z</time>
      </trkpt>
      <trkpt lat="43.01806" lon="0.0512">
        <ele>1555.07</ele>
        <time>2012-12-01T11:03:13Z</time>
      </trkpt>
      <trkpt lat="43.018" lon="0.05126">
        <ele>1556.03</ele>
        <time>2012-12-01T11:03:27Z</time>
      </trkpt>
      <trkpt lat="43.01797" lon="0.0513">
        <ele>1556.51</ele>
        <time>2012-12-01T11:03:41Z</time>
      </trkpt>
      <trkpt lat="43.01791" lon="0.05136">
        <ele>1557.47</ele>
        <time>2012-12-01T11:03:56Z</time>
      </trkpt>
      <trkpt lat="43.01785" lon="0.05142">
        <ele>1558.92</ele>
        <time>2012-12-01T11:04:09Z</time>
      </trkpt>
      <trkpt lat="43.01781" lon="0.05147">
        <ele>1559.88</ele>
        <time>2012-12-01T11:04:25Z</time>
      </trkpt>
      <trkpt lat="43.01776" lon="0.05152">
        <ele>1561.8</ele>
        <time>2012-12-01T11:04:40Z</time>
      </trkpt>
      <trkpt lat="43.01772" lon="0.05155">
        <ele>1562.28</ele>
        <time>2012-12-01T11:04:58Z</time>
      </trkpt>
      <trkpt lat="43.01771" lon="0.05156">
        <ele>1562.76</ele>
        <time>2012-12-01T11:05:20Z</time>
      </trkpt>
      <trkpt lat="43.01766" lon="0.05161">
        <ele>1564.2</ele>
        <time>2012-12-01T11:05:35Z</time>
      </trkpt>
      <trkpt lat="43.01761" lon="0.05167">
        <ele>1565.64</ele>
        <time>2012-12-01T11:05:50Z</time>
      </trkpt>
      <trkpt lat="43.0176" lon="0.05169">
        <ele>1566.61</ele>
        <time>2012-12-01T11:06:10Z</time>
      </trkpt>
      <trkpt lat="43.01756" lon="0.05175">
        <ele>1567.57</ele>
        <time>2012-12-01T11:06:24Z</time>
      </trkpt>
      <trkpt lat="43.01752" lon="0.05182">
        <ele>1569.97</ele>
        <time>2012-12-01T11:06:38Z</time>
      </trkpt>
      <trkpt lat="43.0175" lon="0.05187">
        <ele>1570.93</ele>
        <time>2012-12-01T11:06:54Z</time>
      </trkpt>
      <trkpt lat="43.01746" lon="0.05195">
        <ele>1572.37</ele>
        <time>2012-12-01T11:07:11Z</time>
      </trkpt>
      <trkpt lat="43.01743" lon="0.05201">
        <ele>1573.33</ele>
        <time>2012-12-01T11:07:25Z</time>
      </trkpt>
      <trkpt lat="43.0174" lon="0.05206">
        <ele>1574.78</ele>
        <time>2012-12-01T11:07:39Z</time>
      </trkpt>
      <trkpt lat="43.01737" lon="0.05215">
        <ele>1575.26</ele>
        <time>2012-12-01T11:07:55Z</time>
      </trkpt>
      <trkpt lat="43.01734" lon="0.0521">
        <ele>1576.7</ele>
        <time>2012-12-01T11:08:09Z</time>
      </trkpt>
      <trkpt lat="43.0173" lon="0.05206">
        <ele>1578.14</ele>
        <time>2012-12-01T11:08:26Z</time>
      </trkpt>
      <trkpt lat="43.01729" lon="0.05208">
        <ele>1578.62</ele>
        <time>2012-12-01T11:08:41Z</time>
      </trkpt>
      <trkpt lat="43.01725" lon="0.05212">
        <ele>1579.58</ele>
        <time>2012-12-01T11:08:54Z</time>
      </trkpt>
      <trkpt lat="43.01725" lon="0.05213">
        <ele>1580.54</ele>
        <time>2012-12-01T11:09:13Z</time>
      </trkpt>
      <trkpt lat="43.01725" lon="0.05221">
        <ele>1581.99</ele>
        <time>2012-12-01T11:09:26Z</time>
      </trkpt>
      <trkpt lat="43.01724" lon="0.05223">
        <ele>1581.99</ele>
        <time>2012-12-01T11:09:36Z</time>
      </trkpt>
      <trkpt lat="43.01724" lon="0.05223">
        <ele>1581.99</ele>
        <time>2012-12-01T11:10:03Z</time>
      </trkpt>
      <trkpt lat="43.01724" lon="0.05223">
        <ele>1581.99</ele>
        <time>2012-12-01T11:10:26Z</time>
      </trkpt>
      <trkpt lat="43.01724" lon="0.05223">
        <ele>1581.99</ele>
        <time>2012-12-01T11:10:52Z</time>
      </trkpt>
      <trkpt lat="43.01723" lon="0.0522">
        <ele>1582.47</ele>
        <time>2012-12-01T11:11:11Z</time>
      </trkpt>
      <trkpt lat="43.01723" lon="0.0522">
        <ele>1582.47</ele>
        <time>2012-12-01T11:11:35Z</time>
      </trkpt>
      <trkpt lat="43.01723" lon="0.0522">
        <ele>1582.47</ele>
        <time>2012-12-01T11:11:59Z</time>
      </trkpt>
      <trkpt lat="43.01719" lon="0.0522">
        <ele>1582.47</ele>
        <time>2012-12-01T11:12:17Z</time>
      </trkpt>
      <trkpt lat="43.01708" lon="0.05223">
        <ele>1581.99</ele>
        <time>2012-12-01T11:12:33Z</time>
      </trkpt>
      <trkpt lat="43.01697" lon="0.05227">
        <ele>1582.47</ele>
        <time>2012-12-01T11:12:49Z</time>
      </trkpt>
      <trkpt lat="43.0169" lon="0.0523">
        <ele>1584.39</ele>
        <time>2012-12-01T11:13:03Z</time>
      </trkpt>
      <trkpt lat="43.01689" lon="0.05231">
        <ele>1584.39</ele>
        <time>2012-12-01T11:13:19Z</time>
      </trkpt>
      <trkpt lat="43.01689" lon="0.05231">
        <ele>1584.39</ele>
        <time>2012-12-01T11:13:33Z</time>
      </trkpt>
      <trkpt lat="43.01687" lon="0.05231">
        <ele>1584.87</ele>
        <time>2012-12-01T11:13:51Z</time>
      </trkpt>
      <trkpt lat="43.01687" lon="0.05231">
        <ele>1584.87</ele>
        <time>2012-12-01T11:14:05Z</time>
      </trkpt>
      <trkpt lat="43.01687" lon="0.05231">
        <ele>1584.87</ele>
        <time>2012-12-01T11:14:20Z</time>
      </trkpt>
      <trkpt lat="43.01686" lon="0.05233">
        <ele>1585.35</ele>
        <time>2012-12-01T11:14:34Z</time>
      </trkpt>
      <trkpt lat="43.01686" lon="0.05233">
        <ele>1585.35</ele>
        <time>2012-12-01T11:14:49Z</time>
      </trkpt>
      <trkpt lat="43.01686" lon="0.05233">
        <ele>1585.35</ele>
        <time>2012-12-01T11:15:02Z</time>
      </trkpt>
      <trkpt lat="43.01676" lon="0.05234">
        <ele>1587.75</ele>
        <time>2012-12-01T11:15:14Z</time>
      </trkpt>
      <trkpt lat="43.01647" lon="0.0524">
        <ele>1593.04</ele>
        <time>2012-12-01T11:15:28Z</time>
      </trkpt>
      <trkpt lat="43.01634" lon="0.05251">
        <ele>1597.37</ele>
        <time>2012-12-01T11:15:42Z</time>
      </trkpt>
      <trkpt lat="43.01625" lon="0.05252">
        <ele>1600.73</ele>
        <time>2012-12-01T11:15:55Z</time>
      </trkpt>
      <trkpt lat="43.01617" lon="0.05255">
        <ele>1604.58</ele>
        <time>2012-12-01T11:16:11Z</time>
      </trkpt>
      <trkpt lat="43.01614" lon="0.05263">
        <ele>1607.94</ele>
        <time>2012-12-01T11:16:25Z</time>
      </trkpt>
      <trkpt lat="43.01613" lon="0.05264">
        <ele>1607.94</ele>
        <time>2012-12-01T11:16:37Z</time>
      </trkpt>
      <trkpt lat="43.01613" lon="0.05264">
        <ele>1607.94</ele>
        <time>2012-12-01T11:16:58Z</time>
      </trkpt>
      <trkpt lat="43.01613" lon="0.05265">
        <ele>1608.42</ele>
        <time>2012-12-01T11:17:21Z</time>
      </trkpt>
      <trkpt lat="43.01609" lon="0.05264">
        <ele>1609.86</ele>
        <time>2012-12-01T11:17:34Z</time>
      </trkpt>
      <trkpt lat="43.01603" lon="0.0527">
        <ele>1613.23</ele>
        <time>2012-12-01T11:17:50Z</time>
      </trkpt>
      <trkpt lat="43.01599" lon="0.05276">
        <ele>1615.15</ele>
        <time>2012-12-01T11:18:03Z</time>
      </trkpt>
      <trkpt lat="43.01592" lon="0.05278">
        <ele>1617.07</ele>
        <time>2012-12-01T11:18:18Z</time>
      </trkpt>
      <trkpt lat="43.0159" lon="0.05281">
        <ele>1618.52</ele>
        <time>2012-12-01T11:18:41Z</time>
      </trkpt>
      <trkpt lat="43.01583" lon="0.05287">
        <ele>1620.92</ele>
        <time>2012-12-01T11:18:54Z</time>
      </trkpt>
      <trkpt lat="43.01573" lon="0.0529">
        <ele>1623.8</ele>
        <time>2012-12-01T11:19:10Z</time>
      </trkpt>
      <trkpt lat="43.01563" lon="0.05289">
        <ele>1625.73</ele>
        <time>2012-12-01T11:19:26Z</time>
      </trkpt>
      <trkpt lat="43.01558" lon="0.05288">
        <ele>1626.69</ele>
        <time>2012-12-01T11:19:40Z</time>
      </trkpt>
      <trkpt lat="43.01555" lon="0.05287">
        <ele>1627.65</ele>
        <time>2012-12-01T11:19:53Z</time>
      </trkpt>
      <trkpt lat="43.01551" lon="0.05293">
        <ele>1630.53</ele>
        <time>2012-12-01T11:20:07Z</time>
      </trkpt>
      <trkpt lat="43.01549" lon="0.05299">
        <ele>1631.49</ele>
        <time>2012-12-01T11:20:22Z</time>
      </trkpt>
      <trkpt lat="43.01549" lon="0.05299">
        <ele>1631.49</ele>
        <time>2012-12-01T11:20:38Z</time>
      </trkpt>
      <trkpt lat="43.01549" lon="0.05299">
        <ele>1631.49</ele>
        <time>2012-12-01T11:20:59Z</time>
      </trkpt>
      <trkpt lat="43.01549" lon="0.05299">
        <ele>1631.49</ele>
        <time>2012-12-01T11:21:15Z</time>
      </trkpt>
      <trkpt lat="43.01549" lon="0.05299">
        <ele>1631.49</ele>
        <time>2012-12-01T11:21:39Z</time>
      </trkpt>
      <trkpt lat="43.01549" lon="0.053">
        <ele>1631.49</ele>
        <time>2012-12-01T11:22:04Z</time>
      </trkpt>
      <trkpt lat="43.01549" lon="0.053">
        <ele>1631.49</ele>
        <time>2012-12-01T11:22:24Z</time>
      </trkpt>
      <trkpt lat="43.01549" lon="0.053">
        <ele>1631.49</ele>
        <time>2012-12-01T11:22:42Z</time>
      </trkpt>
      <trkpt lat="43.01549" lon="0.053">
        <ele>1631.49</ele>
        <time>2012-12-01T11:23:01Z</time>
      </trkpt>
      <trkpt lat="43.01549" lon="0.053">
        <ele>1631.49</ele>
        <time>2012-12-01T11:23:21Z</time>
      </trkpt>
      <trkpt lat="43.01549" lon="0.053">
        <ele>1631.49</ele>
        <time>2012-12-01T11:23:40Z</time>
      </trkpt>
      <trkpt lat="43.01547" lon="0.05302">
        <ele>1631.98</ele>
        <time>2012-12-01T11:23:54Z</time>
      </trkpt>
      <trkpt lat="43.01547" lon="0.05302">
        <ele>1631.98</ele>
        <time>2012-12-01T11:24:10Z</time>
      </trkpt>
      <trkpt lat="43.01546" lon="0.05302">
        <ele>1631.49</ele>
        <time>2012-12-01T11:24:26Z</time>
      </trkpt>
      <trkpt lat="43.01545" lon="0.05303">
        <ele>1631.49</ele>
        <time>2012-12-01T11:24:49Z</time>
      </trkpt>
      <trkpt lat="43.01546" lon="0.05303">
        <ele>1631.01</ele>
        <time>2012-12-01T11:25:10Z</time>
      </trkpt>
      <trkpt lat="43.01546" lon="0.05303">
        <ele>1631.01</ele>
        <time>2012-12-01T11:25:49Z</time>
      </trkpt>
      <trkpt lat="43.01546" lon="0.05303">
        <ele>1631.01</ele>
        <time>2012-12-01T11:26:13Z</time>
      </trkpt>
      <trkpt lat="43.01546" lon="0.05304">
        <ele>1631.49</ele>
        <time>2012-12-01T11:26:24Z</time>
      </trkpt>
      <trkpt lat="43.01546" lon="0.05304">
        <ele>1631.49</ele>
        <time>2012-12-01T11:26:48Z</time>
      </trkpt>
      <trkpt lat="43.01546" lon="0.05304">
        <ele>1631.01</ele>
        <time>2012-12-01T11:27:22Z</time>
      </trkpt>
      <trkpt lat="43.01546" lon="0.05304">
        <ele>1631.01</ele>
        <time>2012-12-01T11:27:52Z</time>
      </trkpt>
      <trkpt lat="43.01546" lon="0.05304">
        <ele>1631.01</ele>
        <time>2012-12-01T11:28:14Z</time>
      </trkpt>
      <trkpt lat="43.01546" lon="0.05304">
        <ele>1631.01</ele>
        <time>2012-12-01T11:28:34Z</time>
      </trkpt>
      <trkpt lat="43.01546" lon="0.05304">
        <ele>1631.01</ele>
        <time>2012-12-01T11:28:55Z</time>
      </trkpt>
      <trkpt lat="43.01546" lon="0.05304">
        <ele>1631.01</ele>
        <time>2012-12-01T11:29:02Z</time>
      </trkpt>
      <trkpt lat="43.01548" lon="0.05298">
        <ele>1630.53</ele>
        <time>2012-12-01T11:29:13Z</time>
      </trkpt>
      <trkpt lat="43.01547" lon="0.05303">
        <ele>1631.49</ele>
        <time>2012-12-01T11:29:26Z</time>
      </trkpt>
      <trkpt lat="43.01547" lon="0.05303">
        <ele>1631.49</ele>
        <time>2012-12-01T11:29:49Z</time>
      </trkpt>
      <trkpt lat="43.01547" lon="0.05304">
        <ele>1631.49</ele>
        <time>2012-12-01T11:30:11Z</time>
      </trkpt>
      <trkpt lat="43.01547" lon="0.05304">
        <ele>1631.49</ele>
        <time>2012-12-01T11:30:21Z</time>
      </trkpt>
      <trkpt lat="43.01546" lon="0.05296">
        <ele>1631.01</ele>
        <time>2012-12-01T11:30:33Z</time>
      </trkpt>
      <trkpt lat="43.01546" lon="0.05302">
        <ele>1631.98</ele>
        <time>2012-12-01T11:30:47Z</time>
      </trkpt>
      <trkpt lat="43.01546" lon="0.05303">
        <ele>1631.49</ele>
        <time>2012-12-01T11:31:05Z</time>
      </trkpt>
      <trkpt lat="43.01546" lon="0.05303">
        <ele>1631.49</ele>
        <time>2012-12-01T11:31:32Z</time>
      </trkpt>
      <trkpt lat="43.01546" lon="0.05303">
        <ele>1631.49</ele>
        <time>2012-12-01T11:31:50Z</time>
      </trkpt>
      <trkpt lat="43.01546" lon="0.05299">
        <ele>1631.01</ele>
        <time>2012-12-01T11:32:06Z</time>
      </trkpt>
      <trkpt lat="43.01546" lon="0.05299">
        <ele>1631.01</ele>
        <time>2012-12-01T11:32:39Z</time>
      </trkpt>
      <trkpt lat="43.01546" lon="0.05299">
        <ele>1631.01</ele>
        <time>2012-12-01T11:33:04Z</time>
      </trkpt>
      <trkpt lat="43.01548" lon="0.05298">
        <ele>1630.53</ele>
        <time>2012-12-01T11:33:17Z</time>
      </trkpt>
      <trkpt lat="43.01548" lon="0.05298">
        <ele>1630.53</ele>
        <time>2012-12-01T11:33:38Z</time>
      </trkpt>
      <trkpt lat="43.01548" lon="0.05298">
        <ele>1630.53</ele>
        <time>2012-12-01T11:34:00Z</time>
      </trkpt>
      <trkpt lat="43.01548" lon="0.05298">
        <ele>1630.53</ele>
        <time>2012-12-01T11:34:18Z</time>
      </trkpt>
      <trkpt lat="43.01548" lon="0.05298">
        <ele>1630.53</ele>
        <time>2012-12-01T11:34:36Z</time>
      </trkpt>
      <trkpt lat="43.01548" lon="0.05298">
        <ele>1630.53</ele>
        <time>2012-12-01T11:35:04Z</time>
      </trkpt>
      <trkpt lat="43.01548" lon="0.05297">
        <ele>1630.53</ele>
        <time>2012-12-01T11:35:27Z</time>
      </trkpt>
      <trkpt lat="43.01548" lon="0.05301">
        <ele>1630.53</ele>
        <time>2012-12-01T11:35:45Z</time>
      </trkpt>
      <trkpt lat="43.01548" lon="0.05302">
        <ele>1630.53</ele>
        <time>2012-12-01T11:36:04Z</time>
      </trkpt>
      <trkpt lat="43.01548" lon="0.05298">
        <ele>1631.49</ele>
        <time>2012-12-01T11:36:20Z</time>
      </trkpt>
      <trkpt lat="43.01548" lon="0.05298">
        <ele>1631.49</ele>
        <time>2012-12-01T11:36:38Z</time>
      </trkpt>
      <trkpt lat="43.01548" lon="0.05297">
        <ele>1631.49</ele>
        <time>2012-12-01T11:36:57Z</time>
      </trkpt>
      <trkpt lat="43.01549" lon="0.05301">
        <ele>1631.49</ele>
        <time>2012-12-01T11:37:12Z</time>
      </trkpt>
      <trkpt lat="43.01549" lon="0.05301">
        <ele>1631.49</ele>
        <time>2012-12-01T11:37:33Z</time>
      </trkpt>
      <trkpt lat="43.01549" lon="0.05302">
        <ele>1631.01</ele>
        <time>2012-12-01T11:37:51Z</time>
      </trkpt>
      <trkpt lat="43.0155" lon="0.05302">
        <ele>1631.01</ele>
        <time>2012-12-01T11:38:07Z</time>
      </trkpt>
      <trkpt lat="43.0155" lon="0.05302">
        <ele>1631.01</ele>
        <time>2012-12-01T11:38:38Z</time>
      </trkpt>
      <trkpt lat="43.0155" lon="0.053">
        <ele>1631.01</ele>
        <time>2012-12-01T11:38:51Z</time>
      </trkpt>
      <trkpt lat="43.0155" lon="0.05301">
        <ele>1631.01</ele>
        <time>2012-12-01T11:39:11Z</time>
      </trkpt>
      <trkpt lat="43.01549" lon="0.05301">
        <ele>1631.01</ele>
        <time>2012-12-01T11:39:33Z</time>
      </trkpt>
      <trkpt lat="43.01549" lon="0.05297">
        <ele>1630.53</ele>
        <time>2012-12-01T11:39:53Z</time>
      </trkpt>
      <trkpt lat="43.0155" lon="0.05291">
        <ele>1629.57</ele>
        <time>2012-12-01T11:39:59Z</time>
      </trkpt>
      <trkpt lat="43.01556" lon="0.05282">
        <ele>1626.21</ele>
        <time>2012-12-01T11:40:11Z</time>
      </trkpt>
      <trkpt lat="43.01559" lon="0.05278">
        <ele>1624.77</ele>
        <time>2012-12-01T11:40:16Z</time>
      </trkpt>
      <trkpt lat="43.01565" lon="0.05277">
        <ele>1622.84</ele>
        <time>2012-12-01T11:40:22Z</time>
      </trkpt>
      <trkpt lat="43.01576" lon="0.05272">
        <ele>1619</ele>
        <time>2012-12-01T11:40:33Z</time>
      </trkpt>
      <trkpt lat="43.01581" lon="0.05271">
        <ele>1618.04</ele>
        <time>2012-12-01T11:40:37Z</time>
      </trkpt>
      <trkpt lat="43.01584" lon="0.05269">
        <ele>1617.56</ele>
        <time>2012-12-01T11:40:40Z</time>
      </trkpt>
      <trkpt lat="43.01587" lon="0.05264">
        <ele>1616.11</ele>
        <time>2012-12-01T11:40:45Z</time>
      </trkpt>
      <trkpt lat="43.01598" lon="0.05258">
        <ele>1612.75</ele>
        <time>2012-12-01T11:40:58Z</time>
      </trkpt>
      <trkpt lat="43.0161" lon="0.05255">
        <ele>1608.9</ele>
        <time>2012-12-01T11:41:10Z</time>
      </trkpt>
      <trkpt lat="43.01611" lon="0.05255">
        <ele>1608.42</ele>
        <time>2012-12-01T11:41:11Z</time>
      </trkpt>
      <trkpt lat="43.01613" lon="0.05255">
        <ele>1607.94</ele>
        <time>2012-12-01T11:41:13Z</time>
      </trkpt>
      <trkpt lat="43.01629" lon="0.05256">
        <ele>1602.66</ele>
        <time>2012-12-01T11:41:29Z</time>
      </trkpt>
      <trkpt lat="43.01632" lon="0.0525">
        <ele>1600.73</ele>
        <time>2012-12-01T11:41:37Z</time>
      </trkpt>
      <trkpt lat="43.01634" lon="0.05247">
        <ele>1599.77</ele>
        <time>2012-12-01T11:41:40Z</time>
      </trkpt>
      <trkpt lat="43.01654" lon="0.05235">
        <ele>1592.56</ele>
        <time>2012-12-01T11:41:54Z</time>
      </trkpt>
      <trkpt lat="43.01676" lon="0.0523">
        <ele>1585.35</ele>
        <time>2012-12-01T11:42:06Z</time>
      </trkpt>
      <trkpt lat="43.01682" lon="0.05229">
        <ele>1583.43</ele>
        <time>2012-12-01T11:42:09Z</time>
      </trkpt>
      <trkpt lat="43.01685" lon="0.05229">
        <ele>1581.99</ele>
        <time>2012-12-01T11:42:12Z</time>
      </trkpt>
      <trkpt lat="43.01702" lon="0.05224">
        <ele>1580.54</ele>
        <time>2012-12-01T11:42:27Z</time>
      </trkpt>
      <trkpt lat="43.01713" lon="0.05221">
        <ele>1579.1</ele>
        <time>2012-12-01T11:42:39Z</time>
      </trkpt>
      <trkpt lat="43.01724" lon="0.05215">
        <ele>1578.14</ele>
        <time>2012-12-01T11:42:52Z</time>
      </trkpt>
      <trkpt lat="43.01726" lon="0.05215">
        <ele>1578.14</ele>
        <time>2012-12-01T11:43:02Z</time>
      </trkpt>
      <trkpt lat="43.01738" lon="0.05222">
        <ele>1575.26</ele>
        <time>2012-12-01T11:43:14Z</time>
      </trkpt>
      <trkpt lat="43.01738" lon="0.05222">
        <ele>1574.78</ele>
        <time>2012-12-01T11:43:33Z</time>
      </trkpt>
      <trkpt lat="43.01739" lon="0.05224">
        <ele>1574.3</ele>
        <time>2012-12-01T11:43:52Z</time>
      </trkpt>
      <trkpt lat="43.01741" lon="0.05233">
        <ele>1573.82</ele>
        <time>2012-12-01T11:44:06Z</time>
      </trkpt>
      <trkpt lat="43.01751" lon="0.05242">
        <ele>1571.89</ele>
        <time>2012-12-01T11:44:20Z</time>
      </trkpt>
      <trkpt lat="43.01754" lon="0.05246">
        <ele>1570.93</ele>
        <time>2012-12-01T11:44:25Z</time>
      </trkpt>
      <trkpt lat="43.01755" lon="0.05247">
        <ele>1570.45</ele>
        <time>2012-12-01T11:44:39Z</time>
      </trkpt>
      <trkpt lat="43.01755" lon="0.05247">
        <ele>1570.45</ele>
        <time>2012-12-01T11:44:56Z</time>
      </trkpt>
      <trkpt lat="43.01755" lon="0.05247">
        <ele>1570.45</ele>
        <time>2012-12-01T11:45:17Z</time>
      </trkpt>
      <trkpt lat="43.01755" lon="0.05247">
        <ele>1570.45</ele>
        <time>2012-12-01T11:45:35Z</time>
      </trkpt>
      <trkpt lat="43.01755" lon="0.05247">
        <ele>1570.45</ele>
        <time>2012-12-01T11:45:57Z</time>
      </trkpt>
      <trkpt lat="43.01755" lon="0.05247">
        <ele>1570.45</ele>
        <time>2012-12-01T11:46:16Z</time>
      </trkpt>
      <trkpt lat="43.01755" lon="0.05247">
        <ele>1570.45</ele>
        <time>2012-12-01T11:46:33Z</time>
      </trkpt>
      <trkpt lat="43.01755" lon="0.05247">
        <ele>1570.45</ele>
        <time>2012-12-01T11:46:45Z</time>
      </trkpt>
      <trkpt lat="43.01755" lon="0.05246">
        <ele>1570.45</ele>
        <time>2012-12-01T11:47:22Z</time>
      </trkpt>
      <trkpt lat="43.01755" lon="0.05246">
        <ele>1571.41</ele>
        <time>2012-12-01T11:47:50Z</time>
      </trkpt>
      <trkpt lat="43.01755" lon="0.05246">
        <ele>1571.41</ele>
        <time>2012-12-01T11:48:27Z</time>
      </trkpt>
      <trkpt lat="43.01755" lon="0.05246">
        <ele>1571.89</ele>
        <time>2012-12-01T11:49:07Z</time>
      </trkpt>
      <trkpt lat="43.01755" lon="0.05246">
        <ele>1572.37</ele>
        <time>2012-12-01T11:49:44Z</time>
      </trkpt>
      <trkpt lat="43.01755" lon="0.05246">
        <ele>1572.37</ele>
        <time>2012-12-01T11:50:15Z</time>
      </trkpt>
      <trkpt lat="43.01755" lon="0.05246">
        <ele>1572.85</ele>
        <time>2012-12-01T11:50:42Z</time>
      </trkpt>
      <trkpt lat="43.01755" lon="0.05246">
        <ele>1572.85</ele>
        <time>2012-12-01T11:51:20Z</time>
      </trkpt>
      <trkpt lat="43.01755" lon="0.05246">
        <ele>1572.85</ele>
        <time>2012-12-01T11:51:47Z</time>
      </trkpt>
      <trkpt lat="43.01755" lon="0.05246">
        <ele>1572.85</ele>
        <time>2012-12-01T11:52:17Z</time>
      </trkpt>
      <trkpt lat="43.01755" lon="0.05246">
        <ele>1573.33</ele>
        <time>2012-12-01T11:52:55Z</time>
      </trkpt>
      <trkpt lat="43.01755" lon="0.05246">
        <ele>1573.33</ele>
        <time>2012-12-01T11:53:32Z</time>
      </trkpt>
      <trkpt lat="43.01755" lon="0.05246">
        <ele>1573.33</ele>
        <time>2012-12-01T11:53:59Z</time>
      </trkpt>
      <trkpt lat="43.01755" lon="0.05246">
        <ele>1573.82</ele>
        <time>2012-12-01T11:54:31Z</time>
      </trkpt>
      <trkpt lat="43.01755" lon="0.05246">
        <ele>1573.82</ele>
        <time>2012-12-01T11:54:57Z</time>
      </trkpt>
      <trkpt lat="43.01755" lon="0.05246">
        <ele>1573.82</ele>
        <time>2012-12-01T11:55:35Z</time>
      </trkpt>
      <trkpt lat="43.01754" lon="0.05246">
        <ele>1573.82</ele>
        <time>2012-12-01T11:56:16Z</time>
      </trkpt>
      <trkpt lat="43.01754" lon="0.05246">
        <ele>1573.82</ele>
        <time>2012-12-01T11:56:43Z</time>
      </trkpt>
      <trkpt lat="43.01754" lon="0.05246">
        <ele>1573.82</ele>
        <time>2012-12-01T11:57:22Z</time>
      </trkpt>
      <trkpt lat="43.01755" lon="0.05246">
        <ele>1573.82</ele>
        <time>2012-12-01T11:57:55Z</time>
      </trkpt>
      <trkpt lat="43.01755" lon="0.05246">
        <ele>1573.82</ele>
        <time>2012-12-01T11:58:33Z</time>
      </trkpt>
      <trkpt lat="43.01754" lon="0.05246">
        <ele>1573.82</ele>
        <time>2012-12-01T11:59:15Z</time>
      </trkpt>
      <trkpt lat="43.01755" lon="0.05246">
        <ele>1574.3</ele>
        <time>2012-12-01T11:59:54Z</time>
      </trkpt>
      <trkpt lat="43.01755" lon="0.05246">
        <ele>1574.3</ele>
        <time>2012-12-01T12:00:23Z</time>
      </trkpt>
      <trkpt lat="43.01755" lon="0.05246">
        <ele>1573.82</ele>
        <time>2012-12-01T12:01:01Z</time>
      </trkpt>
      <trkpt lat="43.01755" lon="0.05246">
        <ele>1573.82</ele>
        <time>2012-12-01T12:01:45Z</time>
      </trkpt>
      <trkpt lat="43.01755" lon="0.05246">
        <ele>1573.82</ele>
        <time>2012-12-01T12:02:20Z</time>
      </trkpt>
      <trkpt lat="43.01755" lon="0.05246">
        <ele>1574.3</ele>
        <time>2012-12-01T12:02:57Z</time>
      </trkpt>
      <trkpt lat="43.01755" lon="0.05246">
        <ele>1574.3</ele>
        <time>2012-12-01T12:03:37Z</time>
      </trkpt>
      <trkpt lat="43.01755" lon="0.05246">
        <ele>1574.3</ele>
        <time>2012-12-01T12:04:18Z</time>
      </trkpt>
      <trkpt lat="43.01755" lon="0.05246">
        <ele>1573.82</ele>
        <time>2012-12-01T12:04:58Z</time>
      </trkpt>
      <trkpt lat="43.01755" lon="0.05246">
        <ele>1573.82</ele>
        <time>2012-12-01T12:05:37Z</time>
      </trkpt>
      <trkpt lat="43.01755" lon="0.05246">
        <ele>1573.82</ele>
        <time>2012-12-01T12:06:18Z</time>
      </trkpt>
      <trkpt lat="43.01755" lon="0.05246">
        <ele>1573.82</ele>
        <time>2012-12-01T12:06:52Z</time>
      </trkpt>
      <trkpt lat="43.01755" lon="0.05246">
        <ele>1573.82</ele>
        <time>2012-12-01T12:07:22Z</time>
      </trkpt>
      <trkpt lat="43.01755" lon="0.05246">
        <ele>1574.3</ele>
        <time>2012-12-01T12:07:57Z</time>
      </trkpt>
      <trkpt lat="43.01755" lon="0.05246">
        <ele>1574.3</ele>
        <time>2012-12-01T12:08:29Z</time>
      </trkpt>
      <trkpt lat="43.01755" lon="0.05246">
        <ele>1574.3</ele>
        <time>2012-12-01T12:09:06Z</time>
      </trkpt>
      <trkpt lat="43.01755" lon="0.05246">
        <ele>1573.82</ele>
        <time>2012-12-01T12:09:54Z</time>
      </trkpt>
      <trkpt lat="43.01755" lon="0.05246">
        <ele>1573.82</ele>
        <time>2012-12-01T12:10:38Z</time>
      </trkpt>
      <trkpt lat="43.01755" lon="0.05246">
        <ele>1573.82</ele>
        <time>2012-12-01T12:11:24Z</time>
      </trkpt>
      <trkpt lat="43.01755" lon="0.05246">
        <ele>1573.82</ele>
        <time>2012-12-01T12:12:00Z</time>
      </trkpt>
      <trkpt lat="43.01755" lon="0.05246">
        <ele>1573.82</ele>
        <time>2012-12-01T12:12:47Z</time>
      </trkpt>
      <trkpt lat="43.01755" lon="0.05246">
        <ele>1573.82</ele>
        <time>2012-12-01T12:13:25Z</time>
      </trkpt>
      <trkpt lat="43.01755" lon="0.05246">
        <ele>1573.33</ele>
        <time>2012-12-01T12:13:55Z</time>
      </trkpt>
      <trkpt lat="43.01755" lon="0.05246">
        <ele>1573.82</ele>
        <time>2012-12-01T12:14:29Z</time>
      </trkpt>
      <trkpt lat="43.01755" lon="0.05246">
        <ele>1573.82</ele>
        <time>2012-12-01T12:15:03Z</time>
      </trkpt>
      <trkpt lat="43.01755" lon="0.05246">
        <ele>1573.33</ele>
        <time>2012-12-01T12:15:34Z</time>
      </trkpt>
      <trkpt lat="43.01755" lon="0.05246">
        <ele>1573.82</ele>
        <time>2012-12-01T12:16:12Z</time>
      </trkpt>
      <trkpt lat="43.01755" lon="0.05246">
        <ele>1573.33</ele>
        <time>2012-12-01T12:16:46Z</time>
      </trkpt>
      <trkpt lat="43.01755" lon="0.05246">
        <ele>1573.82</ele>
        <time>2012-12-01T12:17:25Z</time>
      </trkpt>
      <trkpt lat="43.01755" lon="0.05246">
        <ele>1573.82</ele>
        <time>2012-12-01T12:18:06Z</time>
      </trkpt>
      <trkpt lat="43.01755" lon="0.05246">
        <ele>1573.82</ele>
        <time>2012-12-01T12:18:41Z</time>
      </trkpt>
      <trkpt lat="43.01755" lon="0.05246">
        <ele>1573.82</ele>
        <time>2012-12-01T12:19:15Z</time>
      </trkpt>
      <trkpt lat="43.01755" lon="0.05246">
        <ele>1573.82</ele>
        <time>2012-12-01T12:19:44Z</time>
      </trkpt>
      <trkpt lat="43.01755" lon="0.05246">
        <ele>1573.33</ele>
        <time>2012-12-01T12:20:20Z</time>
      </trkpt>
      <trkpt lat="43.01755" lon="0.05246">
        <ele>1573.82</ele>
        <time>2012-12-01T12:20:58Z</time>
      </trkpt>
      <trkpt lat="43.01755" lon="0.05246">
        <ele>1573.82</ele>
        <time>2012-12-01T12:21:30Z</time>
      </trkpt>
      <trkpt lat="43.01755" lon="0.05246">
        <ele>1574.3</ele>
        <time>2012-12-01T12:22:06Z</time>
      </trkpt>
      <trkpt lat="43.01755" lon="0.05246">
        <ele>1574.3</ele>
        <time>2012-12-01T12:22:36Z</time>
      </trkpt>
      <trkpt lat="43.01755" lon="0.05246">
        <ele>1574.3</ele>
        <time>2012-12-01T12:23:10Z</time>
      </trkpt>
      <trkpt lat="43.01755" lon="0.05246">
        <ele>1574.3</ele>
        <time>2012-12-01T12:23:29Z</time>
      </trkpt>
      <trkpt lat="43.01755" lon="0.05245">
        <ele>1574.3</ele>
        <time>2012-12-01T12:23:44Z</time>
      </trkpt>
      <trkpt lat="43.01755" lon="0.05245">
        <ele>1574.3</ele>
        <time>2012-12-01T12:24:05Z</time>
      </trkpt>
      <trkpt lat="43.01755" lon="0.05245">
        <ele>1574.3</ele>
        <time>2012-12-01T12:24:20Z</time>
      </trkpt>
      <trkpt lat="43.01757" lon="0.05244">
        <ele>1573.82</ele>
        <time>2012-12-01T12:24:28Z</time>
      </trkpt>
      <trkpt lat="43.01757" lon="0.05247">
        <ele>1573.33</ele>
        <time>2012-12-01T12:24:41Z</time>
      </trkpt>
      <trkpt lat="43.01761" lon="0.05247">
        <ele>1573.33</ele>
        <time>2012-12-01T12:24:54Z</time>
      </trkpt>
      <trkpt lat="43.01764" lon="0.05243">
        <ele>1573.82</ele>
        <time>2012-12-01T12:25:05Z</time>
      </trkpt>
      <trkpt lat="43.0177" lon="0.05235">
        <ele>1573.82</ele>
        <time>2012-12-01T12:25:20Z</time>
      </trkpt>
      <trkpt lat="43.01774" lon="0.05227">
        <ele>1572.37</ele>
        <time>2012-12-01T12:25:28Z</time>
      </trkpt>
      <trkpt lat="43.01777" lon="0.05224">
        <ele>1570.93</ele>
        <time>2012-12-01T12:25:32Z</time>
      </trkpt>
      <trkpt lat="43.01787" lon="0.05213">
        <ele>1569.49</ele>
        <time>2012-12-01T12:25:46Z</time>
      </trkpt>
      <trkpt lat="43.01794" lon="0.05204">
        <ele>1568.05</ele>
        <time>2012-12-01T12:25:59Z</time>
      </trkpt>
      <trkpt lat="43.01803" lon="0.05196">
        <ele>1567.57</ele>
        <time>2012-12-01T12:26:12Z</time>
      </trkpt>
      <trkpt lat="43.01804" lon="0.05194">
        <ele>1567.57</ele>
        <time>2012-12-01T12:26:14Z</time>
      </trkpt>
      <trkpt lat="43.01813" lon="0.05182">
        <ele>1565.16</ele>
        <time>2012-12-01T12:26:29Z</time>
      </trkpt>
      <trkpt lat="43.01822" lon="0.05174">
        <ele>1562.76</ele>
        <time>2012-12-01T12:26:42Z</time>
      </trkpt>
      <trkpt lat="43.0183" lon="0.05166">
        <ele>1561.32</ele>
        <time>2012-12-01T12:26:54Z</time>
      </trkpt>
      <trkpt lat="43.01839" lon="0.05159">
        <ele>1558.92</ele>
        <time>2012-12-01T12:27:07Z</time>
      </trkpt>
      <trkpt lat="43.01848" lon="0.05149">
        <ele>1557.47</ele>
        <time>2012-12-01T12:27:21Z</time>
      </trkpt>
      <trkpt lat="43.01856" lon="0.0514">
        <ele>1554.59</ele>
        <time>2012-12-01T12:27:32Z</time>
      </trkpt>
      <trkpt lat="43.01864" lon="0.05132">
        <ele>1551.71</ele>
        <time>2012-12-01T12:27:44Z</time>
      </trkpt>
      <trkpt lat="43.01872" lon="0.05121">
        <ele>1549.3</ele>
        <time>2012-12-01T12:27:58Z</time>
      </trkpt>
      <trkpt lat="43.01882" lon="0.05111">
        <ele>1547.86</ele>
        <time>2012-12-01T12:28:11Z</time>
      </trkpt>
      <trkpt lat="43.01884" lon="0.05109">
        <ele>1547.38</ele>
        <time>2012-12-01T12:28:15Z</time>
      </trkpt>
      <trkpt lat="43.01894" lon="0.05102">
        <ele>1544.5</ele>
        <time>2012-12-01T12:28:29Z</time>
      </trkpt>
      <trkpt lat="43.019" lon="0.05099">
        <ele>1544.98</ele>
        <time>2012-12-01T12:28:47Z</time>
      </trkpt>
      <trkpt lat="43.01902" lon="0.05098">
        <ele>1544.01</ele>
        <time>2012-12-01T12:28:50Z</time>
      </trkpt>
      <trkpt lat="43.01911" lon="0.05089">
        <ele>1540.17</ele>
        <time>2012-12-01T12:29:05Z</time>
      </trkpt>
      <trkpt lat="43.01912" lon="0.05089">
        <ele>1540.17</ele>
        <time>2012-12-01T12:29:07Z</time>
      </trkpt>
      <trkpt lat="43.01922" lon="0.05079">
        <ele>1535.84</ele>
        <time>2012-12-01T12:29:21Z</time>
      </trkpt>
      <trkpt lat="43.01925" lon="0.05077">
        <ele>1535.36</ele>
        <time>2012-12-01T12:29:25Z</time>
      </trkpt>
      <trkpt lat="43.01929" lon="0.05072">
        <ele>1533.44</ele>
        <time>2012-12-01T12:29:38Z</time>
      </trkpt>
      <trkpt lat="43.01935" lon="0.05067">
        <ele>1531.04</ele>
        <time>2012-12-01T12:29:46Z</time>
      </trkpt>
      <trkpt lat="43.01942" lon="0.05063">
        <ele>1529.11</ele>
        <time>2012-12-01T12:29:56Z</time>
      </trkpt>
      <trkpt lat="43.0195" lon="0.05063">
        <ele>1529.59</ele>
        <time>2012-12-01T12:30:05Z</time>
      </trkpt>
      <trkpt lat="43.01955" lon="0.05063">
        <ele>1529.11</ele>
        <time>2012-12-01T12:30:17Z</time>
      </trkpt>
      <trkpt lat="43.01955" lon="0.05063">
        <ele>1529.11</ele>
        <time>2012-12-01T12:30:40Z</time>
      </trkpt>
      <trkpt lat="43.01956" lon="0.05062">
        <ele>1529.11</ele>
        <time>2012-12-01T12:31:09Z</time>
      </trkpt>
      <trkpt lat="43.01956" lon="0.05062">
        <ele>1529.11</ele>
        <time>2012-12-01T12:31:27Z</time>
      </trkpt>
      <trkpt lat="43.01955" lon="0.05057">
        <ele>1527.67</ele>
        <time>2012-12-01T12:31:34Z</time>
      </trkpt>
      <trkpt lat="43.01958" lon="0.05042">
        <ele>1523.83</ele>
        <time>2012-12-01T12:31:46Z</time>
      </trkpt>
      <trkpt lat="43.01964" lon="0.05026">
        <ele>1522.39</ele>
        <time>2012-12-01T12:32:00Z</time>
      </trkpt>
      <trkpt lat="43.0197" lon="0.05012">
        <ele>1519.5</ele>
        <time>2012-12-01T12:32:14Z</time>
      </trkpt>
      <trkpt lat="43.01977" lon="0.05004">
        <ele>1518.06</ele>
        <time>2012-12-01T12:32:24Z</time>
      </trkpt>
      <trkpt lat="43.01982" lon="0.04995">
        <ele>1515.66</ele>
        <time>2012-12-01T12:32:36Z</time>
      </trkpt>
      <trkpt lat="43.01981" lon="0.04989">
        <ele>1514.69</ele>
        <time>2012-12-01T12:32:42Z</time>
      </trkpt>
      <trkpt lat="43.0198" lon="0.04987">
        <ele>1514.21</ele>
        <time>2012-12-01T12:32:44Z</time>
      </trkpt>
      <trkpt lat="43.01978" lon="0.04981">
        <ele>1512.77</ele>
        <time>2012-12-01T12:32:51Z</time>
      </trkpt>
      <trkpt lat="43.01981" lon="0.04962">
        <ele>1507.48</ele>
        <time>2012-12-01T12:33:03Z</time>
      </trkpt>
      <trkpt lat="43.01985" lon="0.04951">
        <ele>1504.6</ele>
        <time>2012-12-01T12:33:16Z</time>
      </trkpt>
      <trkpt lat="43.01985" lon="0.04947">
        <ele>1503.64</ele>
        <time>2012-12-01T12:33:23Z</time>
      </trkpt>
      <trkpt lat="43.01984" lon="0.04932">
        <ele>1502.68</ele>
        <time>2012-12-01T12:33:36Z</time>
      </trkpt>
      <trkpt lat="43.01985" lon="0.04923">
        <ele>1502.2</ele>
        <time>2012-12-01T12:33:48Z</time>
      </trkpt>
      <trkpt lat="43.01986" lon="0.04921">
        <ele>1502.2</ele>
        <time>2012-12-01T12:34:02Z</time>
      </trkpt>
      <trkpt lat="43.01986" lon="0.04921">
        <ele>1502.2</ele>
        <time>2012-12-01T12:34:23Z</time>
      </trkpt>
      <trkpt lat="43.01991" lon="0.04919">
        <ele>1502.2</ele>
        <time>2012-12-01T12:34:41Z</time>
      </trkpt>
      <trkpt lat="43.01999" lon="0.04913">
        <ele>1501.72</ele>
        <time>2012-12-01T12:34:54Z</time>
      </trkpt>
      <trkpt lat="43.0201" lon="0.049">
        <ele>1498.35</ele>
        <time>2012-12-01T12:35:10Z</time>
      </trkpt>
      <trkpt lat="43.02021" lon="0.04887">
        <ele>1496.91</ele>
        <time>2012-12-01T12:35:24Z</time>
      </trkpt>
      <trkpt lat="43.02023" lon="0.04885">
        <ele>1496.43</ele>
        <time>2012-12-01T12:35:26Z</time>
      </trkpt>
      <trkpt lat="43.02036" lon="0.04871">
        <ele>1494.03</ele>
        <time>2012-12-01T12:35:43Z</time>
      </trkpt>
      <trkpt lat="43.02046" lon="0.04864">
        <ele>1491.62</ele>
        <time>2012-12-01T12:35:59Z</time>
      </trkpt>
      <trkpt lat="43.02056" lon="0.04856">
        <ele>1491.14</ele>
        <time>2012-12-01T12:36:14Z</time>
      </trkpt>
      <trkpt lat="43.02064" lon="0.04847">
        <ele>1489.22</ele>
        <time>2012-12-01T12:36:28Z</time>
      </trkpt>
      <trkpt lat="43.02075" lon="0.04838">
        <ele>1486.82</ele>
        <time>2012-12-01T12:36:42Z</time>
      </trkpt>
      <trkpt lat="43.02082" lon="0.0483">
        <ele>1483.93</ele>
        <time>2012-12-01T12:36:54Z</time>
      </trkpt>
      <trkpt lat="43.0209" lon="0.04819">
        <ele>1481.05</ele>
        <time>2012-12-01T12:37:08Z</time>
      </trkpt>
      <trkpt lat="43.02098" lon="0.0481">
        <ele>1476.72</ele>
        <time>2012-12-01T12:37:22Z</time>
      </trkpt>
      <trkpt lat="43.02106" lon="0.04801">
        <ele>1473.84</ele>
        <time>2012-12-01T12:37:37Z</time>
      </trkpt>
      <trkpt lat="43.02112" lon="0.04788">
        <ele>1470.47</ele>
        <time>2012-12-01T12:37:53Z</time>
      </trkpt>
      <trkpt lat="43.02119" lon="0.04776">
        <ele>1468.07</ele>
        <time>2012-12-01T12:38:08Z</time>
      </trkpt>
      <trkpt lat="43.02127" lon="0.04762">
        <ele>1466.15</ele>
        <time>2012-12-01T12:38:22Z</time>
      </trkpt>
      <trkpt lat="43.02135" lon="0.04751">
        <ele>1462.78</ele>
        <time>2012-12-01T12:38:36Z</time>
      </trkpt>
      <trkpt lat="43.02143" lon="0.04741">
        <ele>1461.82</ele>
        <time>2012-12-01T12:38:50Z</time>
      </trkpt>
      <trkpt lat="43.0215" lon="0.04732">
        <ele>1460.86</ele>
        <time>2012-12-01T12:39:02Z</time>
      </trkpt>
      <trkpt lat="43.02161" lon="0.0472">
        <ele>1460.86</ele>
        <time>2012-12-01T12:39:17Z</time>
      </trkpt>
      <trkpt lat="43.02169" lon="0.04712">
        <ele>1460.38</ele>
        <time>2012-12-01T12:39:30Z</time>
      </trkpt>
      <trkpt lat="43.02176" lon="0.04704">
        <ele>1459.9</ele>
        <time>2012-12-01T12:39:42Z</time>
      </trkpt>
      <trkpt lat="43.02183" lon="0.04695">
        <ele>1459.9</ele>
        <time>2012-12-01T12:39:55Z</time>
      </trkpt>
      <trkpt lat="43.0219" lon="0.04686">
        <ele>1459.42</ele>
        <time>2012-12-01T12:40:08Z</time>
      </trkpt>
      <trkpt lat="43.02196" lon="0.04677">
        <ele>1459.9</ele>
        <time>2012-12-01T12:40:21Z</time>
      </trkpt>
      <trkpt lat="43.02204" lon="0.04669">
        <ele>1460.38</ele>
        <time>2012-12-01T12:40:34Z</time>
      </trkpt>
      <trkpt lat="43.02213" lon="0.0466">
        <ele>1460.86</ele>
        <time>2012-12-01T12:40:48Z</time>
      </trkpt>
      <trkpt lat="43.0222" lon="0.04654">
        <ele>1461.82</ele>
        <time>2012-12-01T12:41:00Z</time>
      </trkpt>
      <trkpt lat="43.02226" lon="0.04646">
        <ele>1462.78</ele>
        <time>2012-12-01T12:41:13Z</time>
      </trkpt>
      <trkpt lat="43.02232" lon="0.04641">
        <ele>1464.71</ele>
        <time>2012-12-01T12:41:25Z</time>
      </trkpt>
      <trkpt lat="43.0224" lon="0.04636">
        <ele>1466.63</ele>
        <time>2012-12-01T12:41:39Z</time>
      </trkpt>
      <trkpt lat="43.02247" lon="0.04632">
        <ele>1467.59</ele>
        <time>2012-12-01T12:41:52Z</time>
      </trkpt>
      <trkpt lat="43.0225" lon="0.04629">
        <ele>1468.07</ele>
        <time>2012-12-01T12:41:59Z</time>
      </trkpt>
      <trkpt lat="43.02251" lon="0.04629">
        <ele>1468.07</ele>
        <time>2012-12-01T12:42:15Z</time>
      </trkpt>
      <trkpt lat="43.02251" lon="0.04628">
        <ele>1467.59</ele>
        <time>2012-12-01T12:42:43Z</time>
      </trkpt>
      <trkpt lat="43.02254" lon="0.04628">
        <ele>1467.59</ele>
        <time>2012-12-01T12:42:54Z</time>
      </trkpt>
      <trkpt lat="43.02259" lon="0.0463">
        <ele>1468.07</ele>
        <time>2012-12-01T12:43:05Z</time>
      </trkpt>
      <trkpt lat="43.02266" lon="0.04622">
        <ele>1464.71</ele>
        <time>2012-12-01T12:43:19Z</time>
      </trkpt>
      <trkpt lat="43.02273" lon="0.04608">
        <ele>1462.3</ele>
        <time>2012-12-01T12:43:34Z</time>
      </trkpt>
      <trkpt lat="43.0228" lon="0.04594">
        <ele>1457.98</ele>
        <time>2012-12-01T12:43:49Z</time>
      </trkpt>
      <trkpt lat="43.02283" lon="0.0459">
        <ele>1456.53</ele>
        <time>2012-12-01T12:43:56Z</time>
      </trkpt>
      <trkpt lat="43.02289" lon="0.04576">
        <ele>1453.17</ele>
        <time>2012-12-01T12:44:11Z</time>
      </trkpt>
      <trkpt lat="43.02295" lon="0.04563">
        <ele>1450.77</ele>
        <time>2012-12-01T12:44:26Z</time>
      </trkpt>
      <trkpt lat="43.023" lon="0.04549">
        <ele>1447.88</ele>
        <time>2012-12-01T12:44:40Z</time>
      </trkpt>
      <trkpt lat="43.02306" lon="0.04536">
        <ele>1445.48</ele>
        <time>2012-12-01T12:44:54Z</time>
      </trkpt>
      <trkpt lat="43.02311" lon="0.04524">
        <ele>1443.08</ele>
        <time>2012-12-01T12:45:08Z</time>
      </trkpt>
      <trkpt lat="43.02316" lon="0.04511">
        <ele>1440.19</ele>
        <time>2012-12-01T12:45:22Z</time>
      </trkpt>
      <trkpt lat="43.02321" lon="0.04498">
        <ele>1438.27</ele>
        <time>2012-12-01T12:45:36Z</time>
      </trkpt>
      <trkpt lat="43.02325" lon="0.04486">
        <ele>1435.39</ele>
        <time>2012-12-01T12:45:49Z</time>
      </trkpt>
      <trkpt lat="43.02328" lon="0.04477">
        <ele>1432.98</ele>
        <time>2012-12-01T12:45:58Z</time>
      </trkpt>
      <trkpt lat="43.02331" lon="0.04464">
        <ele>1431.06</ele>
        <time>2012-12-01T12:46:10Z</time>
      </trkpt>
      <trkpt lat="43.02333" lon="0.04451">
        <ele>1430.1</ele>
        <time>2012-12-01T12:46:20Z</time>
      </trkpt>
      <trkpt lat="43.02341" lon="0.04435">
        <ele>1429.62</ele>
        <time>2012-12-01T12:46:34Z</time>
      </trkpt>
      <trkpt lat="43.02347" lon="0.04425">
        <ele>1425.29</ele>
        <time>2012-12-01T12:46:48Z</time>
      </trkpt>
      <trkpt lat="43.02351" lon="0.04408">
        <ele>1424.33</ele>
        <time>2012-12-01T12:47:01Z</time>
      </trkpt>
      <trkpt lat="43.02351" lon="0.04402">
        <ele>1424.81</ele>
        <time>2012-12-01T12:47:05Z</time>
      </trkpt>
      <trkpt lat="43.02352" lon="0.04399">
        <ele>1425.29</ele>
        <time>2012-12-01T12:47:07Z</time>
      </trkpt>
      <trkpt lat="43.02352" lon="0.0438">
        <ele>1424.81</ele>
        <time>2012-12-01T12:47:20Z</time>
      </trkpt>
      <trkpt lat="43.02354" lon="0.04358">
        <ele>1423.85</ele>
        <time>2012-12-01T12:47:36Z</time>
      </trkpt>
      <trkpt lat="43.02354" lon="0.04343">
        <ele>1422.41</ele>
        <time>2012-12-01T12:47:47Z</time>
      </trkpt>
      <trkpt lat="43.02355" lon="0.04333">
        <ele>1422.89</ele>
        <time>2012-12-01T12:47:56Z</time>
      </trkpt>
      <trkpt lat="43.02357" lon="0.0432">
        <ele>1422.89</ele>
        <time>2012-12-01T12:48:07Z</time>
      </trkpt>
      <trkpt lat="43.02361" lon="0.0431">
        <ele>1422.89</ele>
        <time>2012-12-01T12:48:18Z</time>
      </trkpt>
      <trkpt lat="43.02361" lon="0.0431">
        <ele>1422.89</ele>
        <time>2012-12-01T12:48:39Z</time>
      </trkpt>
      <trkpt lat="43.0236" lon="0.04308">
        <ele>1423.37</ele>
        <time>2012-12-01T12:48:51Z</time>
      </trkpt>
      <trkpt lat="43.0236" lon="0.04306">
        <ele>1422.89</ele>
        <time>2012-12-01T12:49:16Z</time>
      </trkpt>
      <trkpt lat="43.0236" lon="0.04306">
        <ele>1423.85</ele>
        <time>2012-12-01T12:49:32Z</time>
      </trkpt>
      <trkpt lat="43.02362" lon="0.04299">
        <ele>1424.33</ele>
        <time>2012-12-01T12:49:39Z</time>
      </trkpt>
      <trkpt lat="43.02368" lon="0.04288">
        <ele>1426.73</ele>
        <time>2012-12-01T12:49:52Z</time>
      </trkpt>
      <trkpt lat="43.02374" lon="0.04278">
        <ele>1429.14</ele>
        <time>2012-12-01T12:50:05Z</time>
      </trkpt>
      <trkpt lat="43.02379" lon="0.0427">
        <ele>1429.62</ele>
        <time>2012-12-01T12:50:15Z</time>
      </trkpt>
      <trkpt lat="43.02388" lon="0.04262">
        <ele>1430.58</ele>
        <time>2012-12-01T12:50:28Z</time>
      </trkpt>
      <trkpt lat="43.02397" lon="0.04256">
        <ele>1431.06</ele>
        <time>2012-12-01T12:50:41Z</time>
      </trkpt>
      <trkpt lat="43.02401" lon="0.04253">
        <ele>1432.02</ele>
        <time>2012-12-01T12:50:48Z</time>
      </trkpt>
      <trkpt lat="43.02404" lon="0.04248">
        <ele>1432.5</ele>
        <time>2012-12-01T12:50:54Z</time>
      </trkpt>
      <trkpt lat="43.02408" lon="0.04236">
        <ele>1433.94</ele>
        <time>2012-12-01T12:51:04Z</time>
      </trkpt>
      <trkpt lat="43.02409" lon="0.04232">
        <ele>1433.94</ele>
        <time>2012-12-01T12:51:07Z</time>
      </trkpt>
      <trkpt lat="43.02414" lon="0.04214">
        <ele>1432.02</ele>
        <time>2012-12-01T12:51:21Z</time>
      </trkpt>
      <trkpt lat="43.02415" lon="0.04209">
        <ele>1431.54</ele>
        <time>2012-12-01T12:51:25Z</time>
      </trkpt>
      <trkpt lat="43.02418" lon="0.04195">
        <ele>1430.58</ele>
        <time>2012-12-01T12:51:37Z</time>
      </trkpt>
      <trkpt lat="43.02422" lon="0.04178">
        <ele>1431.06</ele>
        <time>2012-12-01T12:51:50Z</time>
      </trkpt>
      <trkpt lat="43.02424" lon="0.04174">
        <ele>1431.54</ele>
        <time>2012-12-01T12:51:53Z</time>
      </trkpt>
      <trkpt lat="43.02428" lon="0.04161">
        <ele>1431.54</ele>
        <time>2012-12-01T12:52:04Z</time>
      </trkpt>
      <trkpt lat="43.02434" lon="0.04143">
        <ele>1429.62</ele>
        <time>2012-12-01T12:52:18Z</time>
      </trkpt>
      <trkpt lat="43.02439" lon="0.04132">
        <ele>1429.62</ele>
        <time>2012-12-01T12:52:27Z</time>
      </trkpt>
      <trkpt lat="43.02442" lon="0.04121">
        <ele>1429.62</ele>
        <time>2012-12-01T12:52:35Z</time>
      </trkpt>
      <trkpt lat="43.02443" lon="0.04119">
        <ele>1429.62</ele>
        <time>2012-12-01T12:52:37Z</time>
      </trkpt>
      <trkpt lat="43.02447" lon="0.04101">
        <ele>1428.18</ele>
        <time>2012-12-01T12:52:49Z</time>
      </trkpt>
      <trkpt lat="43.02451" lon="0.04085">
        <ele>1429.14</ele>
        <time>2012-12-01T12:53:00Z</time>
      </trkpt>
      <trkpt lat="43.02456" lon="0.04072">
        <ele>1432.02</ele>
        <time>2012-12-01T12:53:12Z</time>
      </trkpt>
      <trkpt lat="43.02459" lon="0.04064">
        <ele>1433.46</ele>
        <time>2012-12-01T12:53:24Z</time>
      </trkpt>
      <trkpt lat="43.02459" lon="0.04063">
        <ele>1433.46</ele>
        <time>2012-12-01T12:53:40Z</time>
      </trkpt>
      <trkpt lat="43.02461" lon="0.04059">
        <ele>1433.46</ele>
        <time>2012-12-01T12:53:52Z</time>
      </trkpt>
      <trkpt lat="43.02463" lon="0.04052">
        <ele>1432.02</ele>
        <time>2012-12-01T12:54:01Z</time>
      </trkpt>
      <trkpt lat="43.02467" lon="0.0404">
        <ele>1431.54</ele>
        <time>2012-12-01T12:54:10Z</time>
      </trkpt>
      <trkpt lat="43.02469" lon="0.0403">
        <ele>1431.06</ele>
        <time>2012-12-01T12:54:17Z</time>
      </trkpt>
      <trkpt lat="43.02469" lon="0.04023">
        <ele>1431.06</ele>
        <time>2012-12-01T12:54:22Z</time>
      </trkpt>
      <trkpt lat="43.02468" lon="0.04002">
        <ele>1430.1</ele>
        <time>2012-12-01T12:54:35Z</time>
      </trkpt>
      <trkpt lat="43.02466" lon="0.0399">
        <ele>1429.62</ele>
        <time>2012-12-01T12:54:43Z</time>
      </trkpt>
      <trkpt lat="43.02465" lon="0.03973">
        <ele>1430.1</ele>
        <time>2012-12-01T12:54:57Z</time>
      </trkpt>
      <trkpt lat="43.02464" lon="0.03972">
        <ele>1429.62</ele>
        <time>2012-12-01T12:55:09Z</time>
      </trkpt>
      <trkpt lat="43.02464" lon="0.03972">
        <ele>1429.62</ele>
        <time>2012-12-01T12:55:29Z</time>
      </trkpt>
      <trkpt lat="43.02464" lon="0.03972">
        <ele>1430.1</ele>
        <time>2012-12-01T12:55:49Z</time>
      </trkpt>
      <trkpt lat="43.02464" lon="0.03972">
        <ele>1429.62</ele>
        <time>2012-12-01T12:56:10Z</time>
      </trkpt>
      <trkpt lat="43.02464" lon="0.03972">
        <ele>1429.62</ele>
        <time>2012-12-01T12:56:28Z</time>
      </trkpt>
      <trkpt lat="43.02464" lon="0.03972">
        <ele>1429.62</ele>
        <time>2012-12-01T12:56:29Z</time>
      </trkpt>
      <trkpt lat="43.02457" lon="0.03988">
        <ele>1427.7</ele>
        <time>2012-12-01T12:56:43Z</time>
      </trkpt>
      <trkpt lat="43.02453" lon="0.04004">
        <ele>1428.18</ele>
        <time>2012-12-01T12:56:55Z</time>
      </trkpt>
      <trkpt lat="43.02449" lon="0.04018">
        <ele>1428.66</ele>
        <time>2012-12-01T12:57:05Z</time>
      </trkpt>
      <trkpt lat="43.02444" lon="0.04036">
        <ele>1429.14</ele>
        <time>2012-12-01T12:57:19Z</time>
      </trkpt>
      <trkpt lat="43.02438" lon="0.04048">
        <ele>1429.14</ele>
        <time>2012-12-01T12:57:31Z</time>
      </trkpt>
      <trkpt lat="43.02435" lon="0.04062">
        <ele>1429.62</ele>
        <time>2012-12-01T12:57:43Z</time>
      </trkpt>
      <trkpt lat="43.02433" lon="0.04069">
        <ele>1430.58</ele>
        <time>2012-12-01T12:57:48Z</time>
      </trkpt>
      <trkpt lat="43.02428" lon="0.04082">
        <ele>1431.54</ele>
        <time>2012-12-01T12:58:01Z</time>
      </trkpt>
      <trkpt lat="43.02424" lon="0.04094">
        <ele>1432.02</ele>
        <time>2012-12-01T12:58:13Z</time>
      </trkpt>
      <trkpt lat="43.02419" lon="0.04111">
        <ele>1432.5</ele>
        <time>2012-12-01T12:58:26Z</time>
      </trkpt>
      <trkpt lat="43.02416" lon="0.04121">
        <ele>1432.02</ele>
        <time>2012-12-01T12:58:34Z</time>
      </trkpt>
      <trkpt lat="43.02414" lon="0.04128">
        <ele>1432.02</ele>
        <time>2012-12-01T12:58:40Z</time>
      </trkpt>
      <trkpt lat="43.02408" lon="0.04148">
        <ele>1432.02</ele>
        <time>2012-12-01T12:58:53Z</time>
      </trkpt>
      <trkpt lat="43.02403" lon="0.04166">
        <ele>1432.98</ele>
        <time>2012-12-01T12:59:06Z</time>
      </trkpt>
      <trkpt lat="43.02397" lon="0.04182">
        <ele>1432.5</ele>
        <time>2012-12-01T12:59:18Z</time>
      </trkpt>
      <trkpt lat="43.02388" lon="0.042">
        <ele>1433.94</ele>
        <time>2012-12-01T12:59:33Z</time>
      </trkpt>
      <trkpt lat="43.02386" lon="0.04213">
        <ele>1435.87</ele>
        <time>2012-12-01T12:59:45Z</time>
      </trkpt>
      <trkpt lat="43.0238" lon="0.04222">
        <ele>1435.39</ele>
        <time>2012-12-01T12:59:51Z</time>
      </trkpt>
      <trkpt lat="43.02374" lon="0.0423">
        <ele>1434.42</ele>
        <time>2012-12-01T13:00:00Z</time>
      </trkpt>
      <trkpt lat="43.02372" lon="0.04239">
        <ele>1433.94</ele>
        <time>2012-12-01T13:00:07Z</time>
      </trkpt>
      <trkpt lat="43.02368" lon="0.0426">
        <ele>1433.46</ele>
        <time>2012-12-01T13:00:20Z</time>
      </trkpt>
      <trkpt lat="43.02365" lon="0.04272">
        <ele>1432.02</ele>
        <time>2012-12-01T13:00:29Z</time>
      </trkpt>
      <trkpt lat="43.02363" lon="0.0429">
        <ele>1429.62</ele>
        <time>2012-12-01T13:00:42Z</time>
      </trkpt>
      <trkpt lat="43.02361" lon="0.04306">
        <ele>1425.29</ele>
        <time>2012-12-01T13:00:56Z</time>
      </trkpt>
      <trkpt lat="43.02361" lon="0.04306">
        <ele>1424.81</ele>
        <time>2012-12-01T13:01:10Z</time>
      </trkpt>
      <trkpt lat="43.02365" lon="0.04301">
        <ele>1425.29</ele>
        <time>2012-12-01T13:01:33Z</time>
      </trkpt>
      <trkpt lat="43.02368" lon="0.04317">
        <ele>1424.81</ele>
        <time>2012-12-01T13:01:51Z</time>
      </trkpt>
      <trkpt lat="43.02374" lon="0.0432">
        <ele>1423.37</ele>
        <time>2012-12-01T13:02:16Z</time>
      </trkpt>
      <trkpt lat="43.02372" lon="0.04312">
        <ele>1424.81</ele>
        <time>2012-12-01T13:02:41Z</time>
      </trkpt>
      <trkpt lat="43.02362" lon="0.04326">
        <ele>1424.33</ele>
        <time>2012-12-01T13:05:05Z</time>
      </trkpt>
      <trkpt lat="43.02362" lon="0.04326">
        <ele>1424.33</ele>
        <time>2012-12-01T13:05:14Z</time>
      </trkpt>
      <trkpt lat="43.02368" lon="0.04296">
        <ele>1423.37</ele>
        <time>2012-12-01T13:05:43Z</time>
      </trkpt>
      <trkpt lat="43.02368" lon="0.04296">
        <ele>1423.37</ele>
        <time>2012-12-01T13:06:06Z</time>
      </trkpt>
      <trkpt lat="43.02365" lon="0.04301">
        <ele>1423.37</ele>
        <time>2012-12-01T13:06:22Z</time>
      </trkpt>
      <trkpt lat="43.02362" lon="0.04307">
        <ele>1426.73</ele>
        <time>2012-12-01T13:06:37Z</time>
      </trkpt>
      <trkpt lat="43.02362" lon="0.04307">
        <ele>1426.73</ele>
        <time>2012-12-01T13:06:59Z</time>
      </trkpt>
      <trkpt lat="43.02362" lon="0.04307">
        <ele>1426.73</ele>
        <time>2012-12-01T13:07:26Z</time>
      </trkpt>
      <trkpt lat="43.02362" lon="0.04308">
        <ele>1426.25</ele>
        <time>2012-12-01T13:07:58Z</time>
      </trkpt>
      <trkpt lat="43.02362" lon="0.04308">
        <ele>1426.25</ele>
        <time>2012-12-01T13:08:29Z</time>
      </trkpt>
      <trkpt lat="43.02362" lon="0.04308">
        <ele>1426.25</ele>
        <time>2012-12-01T13:08:30Z</time>
      </trkpt>
      <trkpt lat="43.02356" lon="0.04324">
        <ele>1424.33</ele>
        <time>2012-12-01T13:08:40Z</time>
      </trkpt>
      <trkpt lat="43.02354" lon="0.04348">
        <ele>1424.33</ele>
        <time>2012-12-01T13:08:54Z</time>
      </trkpt>
      <trkpt lat="43.02352" lon="0.04367">
        <ele>1424.33</ele>
        <time>2012-12-01T13:09:06Z</time>
      </trkpt>
      <trkpt lat="43.02351" lon="0.04376">
        <ele>1425.77</ele>
        <time>2012-12-01T13:09:12Z</time>
      </trkpt>
      <trkpt lat="43.02351" lon="0.04399">
        <ele>1426.73</ele>
        <time>2012-12-01T13:09:27Z</time>
      </trkpt>
      <trkpt lat="43.02349" lon="0.04416">
        <ele>1425.77</ele>
        <time>2012-12-01T13:09:39Z</time>
      </trkpt>
      <trkpt lat="43.02348" lon="0.04423">
        <ele>1426.25</ele>
        <time>2012-12-01T13:09:44Z</time>
      </trkpt>
      <trkpt lat="43.02348" lon="0.04428">
        <ele>1426.25</ele>
        <time>2012-12-01T13:09:48Z</time>
      </trkpt>
      <trkpt lat="43.02344" lon="0.04439">
        <ele>1427.21</ele>
        <time>2012-12-01T13:09:59Z</time>
      </trkpt>
      <trkpt lat="43.02339" lon="0.04454">
        <ele>1430.1</ele>
        <time>2012-12-01T13:10:12Z</time>
      </trkpt>
      <trkpt lat="43.02341" lon="0.04471">
        <ele>1431.06</ele>
        <time>2012-12-01T13:10:25Z</time>
      </trkpt>
      <trkpt lat="43.02342" lon="0.04474">
        <ele>1431.54</ele>
        <time>2012-12-01T13:10:31Z</time>
      </trkpt>
      <trkpt lat="43.02344" lon="0.04485">
        <ele>1430.58</ele>
        <time>2012-12-01T13:10:46Z</time>
      </trkpt>
      <trkpt lat="43.02341" lon="0.04488">
        <ele>1430.58</ele>
        <time>2012-12-01T13:11:11Z</time>
      </trkpt>
      <trkpt lat="43.02342" lon="0.04501">
        <ele>1429.62</ele>
        <time>2012-12-01T13:11:22Z</time>
      </trkpt>
      <trkpt lat="43.02343" lon="0.04519">
        <ele>1428.66</ele>
        <time>2012-12-01T13:11:37Z</time>
      </trkpt>
      <trkpt lat="43.02344" lon="0.04524">
        <ele>1427.7</ele>
        <time>2012-12-01T13:11:43Z</time>
      </trkpt>
      <trkpt lat="43.02349" lon="0.0454">
        <ele>1424.81</ele>
        <time>2012-12-01T13:11:59Z</time>
      </trkpt>
      <trkpt lat="43.02356" lon="0.04558">
        <ele>1423.37</ele>
        <time>2012-12-01T13:12:15Z</time>
      </trkpt>
      <trkpt lat="43.02366" lon="0.04576">
        <ele>1420.97</ele>
        <time>2012-12-01T13:12:32Z</time>
      </trkpt>
      <trkpt lat="43.02372" lon="0.04592">
        <ele>1417.12</ele>
        <time>2012-12-01T13:12:46Z</time>
      </trkpt>
      <trkpt lat="43.02376" lon="0.04609">
        <ele>1414.72</ele>
        <time>2012-12-01T13:13:00Z</time>
      </trkpt>
      <trkpt lat="43.02376" lon="0.0461">
        <ele>1414.72</ele>
        <time>2012-12-01T13:13:01Z</time>
      </trkpt>
      <trkpt lat="43.02379" lon="0.04622">
        <ele>1412.79</ele>
        <time>2012-12-01T13:13:12Z</time>
      </trkpt>
      <trkpt lat="43.02383" lon="0.04624">
        <ele>1412.31</ele>
        <time>2012-12-01T13:13:16Z</time>
      </trkpt>
      <trkpt lat="43.02387" lon="0.04619">
        <ele>1410.87</ele>
        <time>2012-12-01T13:13:22Z</time>
      </trkpt>
      <trkpt lat="43.02389" lon="0.04611">
        <ele>1410.87</ele>
        <time>2012-12-01T13:13:28Z</time>
      </trkpt>
      <trkpt lat="43.02387" lon="0.04588">
        <ele>1407.99</ele>
        <time>2012-12-01T13:13:46Z</time>
      </trkpt>
      <trkpt lat="43.02388" lon="0.04583">
        <ele>1407.51</ele>
        <time>2012-12-01T13:13:51Z</time>
      </trkpt>
      <trkpt lat="43.02395" lon="0.04583">
        <ele>1405.58</ele>
        <time>2012-12-01T13:14:07Z</time>
      </trkpt>
      <trkpt lat="43.02395" lon="0.04583">
        <ele>1405.58</ele>
        <time>2012-12-01T13:14:38Z</time>
      </trkpt>
      <trkpt lat="43.02396" lon="0.04584">
        <ele>1405.1</ele>
        <time>2012-12-01T13:15:06Z</time>
      </trkpt>
      <trkpt lat="43.02402" lon="0.04606">
        <ele>1404.14</ele>
        <time>2012-12-01T13:15:21Z</time>
      </trkpt>
      <trkpt lat="43.02405" lon="0.0463">
        <ele>1401.26</ele>
        <time>2012-12-01T13:15:37Z</time>
      </trkpt>
      <trkpt lat="43.02407" lon="0.04653">
        <ele>1398.37</ele>
        <time>2012-12-01T13:15:52Z</time>
      </trkpt>
      <trkpt lat="43.0241" lon="0.04654">
        <ele>1397.89</ele>
        <time>2012-12-01T13:15:55Z</time>
      </trkpt>
      <trkpt lat="43.02416" lon="0.04646">
        <ele>1396.45</ele>
        <time>2012-12-01T13:16:02Z</time>
      </trkpt>
      <trkpt lat="43.02417" lon="0.04641">
        <ele>1395.97</ele>
        <time>2012-12-01T13:16:05Z</time>
      </trkpt>
      <trkpt lat="43.02421" lon="0.04612">
        <ele>1393.09</ele>
        <time>2012-12-01T13:16:21Z</time>
      </trkpt>
      <trkpt lat="43.02425" lon="0.04585">
        <ele>1391.17</ele>
        <time>2012-12-01T13:16:37Z</time>
      </trkpt>
      <trkpt lat="43.02425" lon="0.04584">
        <ele>1391.17</ele>
        <time>2012-12-01T13:16:38Z</time>
      </trkpt>
      <trkpt lat="43.0242" lon="0.04555">
        <ele>1389.24</ele>
        <time>2012-12-01T13:16:56Z</time>
      </trkpt>
      <trkpt lat="43.02415" lon="0.04538">
        <ele>1388.28</ele>
        <time>2012-12-01T13:17:08Z</time>
      </trkpt>
      <trkpt lat="43.02425" lon="0.04538">
        <ele>1385.4</ele>
        <time>2012-12-01T13:17:20Z</time>
      </trkpt>
      <trkpt lat="43.02435" lon="0.04562">
        <ele>1382.51</ele>
        <time>2012-12-01T13:17:37Z</time>
      </trkpt>
      <trkpt lat="43.02436" lon="0.04565">
        <ele>1382.51</ele>
        <time>2012-12-01T13:17:39Z</time>
      </trkpt>
      <trkpt lat="43.02448" lon="0.04595">
        <ele>1380.59</ele>
        <time>2012-12-01T13:17:58Z</time>
      </trkpt>
      <trkpt lat="43.02458" lon="0.04616">
        <ele>1378.19</ele>
        <time>2012-12-01T13:18:13Z</time>
      </trkpt>
      <trkpt lat="43.0246" lon="0.04643">
        <ele>1375.3</ele>
        <time>2012-12-01T13:18:29Z</time>
      </trkpt>
      <trkpt lat="43.0246" lon="0.04667">
        <ele>1371.46</ele>
        <time>2012-12-01T13:18:44Z</time>
      </trkpt>
      <trkpt lat="43.02461" lon="0.04667">
        <ele>1370.98</ele>
        <time>2012-12-01T13:18:45Z</time>
      </trkpt>
      <trkpt lat="43.02471" lon="0.04658">
        <ele>1366.65</ele>
        <time>2012-12-01T13:19:00Z</time>
      </trkpt>
      <trkpt lat="43.02473" lon="0.04649">
        <ele>1365.69</ele>
        <time>2012-12-01T13:19:08Z</time>
      </trkpt>
      <trkpt lat="43.02478" lon="0.04629">
        <ele>1362.81</ele>
        <time>2012-12-01T13:19:25Z</time>
      </trkpt>
      <trkpt lat="43.02479" lon="0.04615">
        <ele>1360.4</ele>
        <time>2012-12-01T13:19:36Z</time>
      </trkpt>
      <trkpt lat="43.02481" lon="0.04614">
        <ele>1359.92</ele>
        <time>2012-12-01T13:19:38Z</time>
      </trkpt>
      <trkpt lat="43.02489" lon="0.04632">
        <ele>1358</ele>
        <time>2012-12-01T13:19:54Z</time>
      </trkpt>
      <trkpt lat="43.0249" lon="0.04652">
        <ele>1357.52</ele>
        <time>2012-12-01T13:20:10Z</time>
      </trkpt>
      <trkpt lat="43.02489" lon="0.0466">
        <ele>1356.56</ele>
        <time>2012-12-01T13:20:16Z</time>
      </trkpt>
      <trkpt lat="43.02487" lon="0.04679">
        <ele>1354.63</ele>
        <time>2012-12-01T13:20:30Z</time>
      </trkpt>
      <trkpt lat="43.02492" lon="0.04683">
        <ele>1353.67</ele>
        <time>2012-12-01T13:20:35Z</time>
      </trkpt>
      <trkpt lat="43.02502" lon="0.04661">
        <ele>1349.83</ele>
        <time>2012-12-01T13:20:54Z</time>
      </trkpt>
      <trkpt lat="43.02508" lon="0.04641">
        <ele>1348.39</ele>
        <time>2012-12-01T13:21:11Z</time>
      </trkpt>
      <trkpt lat="43.02511" lon="0.04622">
        <ele>1347.43</ele>
        <time>2012-12-01T13:21:26Z</time>
      </trkpt>
      <trkpt lat="43.02508" lon="0.04599">
        <ele>1345.5</ele>
        <time>2012-12-01T13:21:43Z</time>
      </trkpt>
      <trkpt lat="43.02511" lon="0.04597">
        <ele>1344.06</ele>
        <time>2012-12-01T13:21:47Z</time>
      </trkpt>
      <trkpt lat="43.02516" lon="0.04605">
        <ele>1344.54</ele>
        <time>2012-12-01T13:21:57Z</time>
      </trkpt>
      <trkpt lat="43.02523" lon="0.04625">
        <ele>1345.02</ele>
        <time>2012-12-01T13:22:15Z</time>
      </trkpt>
      <trkpt lat="43.02528" lon="0.0464">
        <ele>1344.06</ele>
        <time>2012-12-01T13:22:28Z</time>
      </trkpt>
      <trkpt lat="43.02527" lon="0.04659">
        <ele>1341.66</ele>
        <time>2012-12-01T13:22:44Z</time>
      </trkpt>
      <trkpt lat="43.02522" lon="0.04678">
        <ele>1341.18</ele>
        <time>2012-12-01T13:23:00Z</time>
      </trkpt>
      <trkpt lat="43.0252" lon="0.04698">
        <ele>1338.29</ele>
        <time>2012-12-01T13:23:16Z</time>
      </trkpt>
      <trkpt lat="43.02524" lon="0.047">
        <ele>1337.81</ele>
        <time>2012-12-01T13:23:20Z</time>
      </trkpt>
      <trkpt lat="43.0253" lon="0.04695">
        <ele>1336.37</ele>
        <time>2012-12-01T13:23:26Z</time>
      </trkpt>
      <trkpt lat="43.02538" lon="0.04678">
        <ele>1333.49</ele>
        <time>2012-12-01T13:23:42Z</time>
      </trkpt>
      <trkpt lat="43.02547" lon="0.04662">
        <ele>1331.56</ele>
        <time>2012-12-01T13:23:58Z</time>
      </trkpt>
      <trkpt lat="43.02548" lon="0.04659">
        <ele>1331.08</ele>
        <time>2012-12-01T13:24:01Z</time>
      </trkpt>
      <trkpt lat="43.02555" lon="0.04643">
        <ele>1328.68</ele>
        <time>2012-12-01T13:24:16Z</time>
      </trkpt>
      <trkpt lat="43.02561" lon="0.04628">
        <ele>1327.72</ele>
        <time>2012-12-01T13:24:31Z</time>
      </trkpt>
      <trkpt lat="43.02561" lon="0.04625">
        <ele>1327.72</ele>
        <time>2012-12-01T13:24:36Z</time>
      </trkpt>
      <trkpt lat="43.02564" lon="0.04604">
        <ele>1326.76</ele>
        <time>2012-12-01T13:24:53Z</time>
      </trkpt>
      <trkpt lat="43.02565" lon="0.04585">
        <ele>1324.83</ele>
        <time>2012-12-01T13:25:09Z</time>
      </trkpt>
      <trkpt lat="43.02562" lon="0.04565">
        <ele>1323.39</ele>
        <time>2012-12-01T13:25:25Z</time>
      </trkpt>
      <trkpt lat="43.0255" lon="0.04549">
        <ele>1321.47</ele>
        <time>2012-12-01T13:25:43Z</time>
      </trkpt>
      <trkpt lat="43.02543" lon="0.0454">
        <ele>1320.99</ele>
        <time>2012-12-01T13:25:54Z</time>
      </trkpt>
      <trkpt lat="43.02529" lon="0.04526">
        <ele>1320.51</ele>
        <time>2012-12-01T13:26:12Z</time>
      </trkpt>
      <trkpt lat="43.02521" lon="0.04517">
        <ele>1319.55</ele>
        <time>2012-12-01T13:26:23Z</time>
      </trkpt>
      <trkpt lat="43.0252" lon="0.04514">
        <ele>1319.07</ele>
        <time>2012-12-01T13:26:26Z</time>
      </trkpt>
      <trkpt lat="43.02511" lon="0.04496">
        <ele>1317.14</ele>
        <time>2012-12-01T13:26:44Z</time>
      </trkpt>
      <trkpt lat="43.0251" lon="0.04493">
        <ele>1316.66</ele>
        <time>2012-12-01T13:26:47Z</time>
      </trkpt>
      <trkpt lat="43.02513" lon="0.04479">
        <ele>1313.3</ele>
        <time>2012-12-01T13:27:02Z</time>
      </trkpt>
      <trkpt lat="43.02518" lon="0.04488">
        <ele>1312.82</ele>
        <time>2012-12-01T13:27:12Z</time>
      </trkpt>
      <trkpt lat="43.02527" lon="0.04503">
        <ele>1311.38</ele>
        <time>2012-12-01T13:27:28Z</time>
      </trkpt>
      <trkpt lat="43.02541" lon="0.04508">
        <ele>1309.93</ele>
        <time>2012-12-01T13:27:43Z</time>
      </trkpt>
      <trkpt lat="43.02556" lon="0.04509">
        <ele>1307.53</ele>
        <time>2012-12-01T13:27:59Z</time>
      </trkpt>
      <trkpt lat="43.02571" lon="0.0451">
        <ele>1304.65</ele>
        <time>2012-12-01T13:28:16Z</time>
      </trkpt>
      <trkpt lat="43.02584" lon="0.04512">
        <ele>1303.69</ele>
        <time>2012-12-01T13:28:31Z</time>
      </trkpt>
      <trkpt lat="43.02597" lon="0.04515">
        <ele>1302.24</ele>
        <time>2012-12-01T13:28:46Z</time>
      </trkpt>
      <trkpt lat="43.02609" lon="0.04519">
        <ele>1302.24</ele>
        <time>2012-12-01T13:29:00Z</time>
      </trkpt>
      <trkpt lat="43.02622" lon="0.04526">
        <ele>1301.28</ele>
        <time>2012-12-01T13:29:14Z</time>
      </trkpt>
      <trkpt lat="43.02635" lon="0.04537">
        <ele>1301.76</ele>
        <time>2012-12-01T13:29:29Z</time>
      </trkpt>
      <trkpt lat="43.02643" lon="0.04552">
        <ele>1299.84</ele>
        <time>2012-12-01T13:29:44Z</time>
      </trkpt>
      <trkpt lat="43.02648" lon="0.04574">
        <ele>1295.99</ele>
        <time>2012-12-01T13:30:03Z</time>
      </trkpt>
      <trkpt lat="43.02652" lon="0.04593">
        <ele>1294.55</ele>
        <time>2012-12-01T13:30:19Z</time>
      </trkpt>
      <trkpt lat="43.02654" lon="0.04612">
        <ele>1293.59</ele>
        <time>2012-12-01T13:30:35Z</time>
      </trkpt>
      <trkpt lat="43.02658" lon="0.04633">
        <ele>1292.15</ele>
        <time>2012-12-01T13:30:51Z</time>
      </trkpt>
      <trkpt lat="43.02661" lon="0.04649">
        <ele>1290.23</ele>
        <time>2012-12-01T13:31:05Z</time>
      </trkpt>
      <trkpt lat="43.02661" lon="0.04666">
        <ele>1288.3</ele>
        <time>2012-12-01T13:31:18Z</time>
      </trkpt>
      <trkpt lat="43.02658" lon="0.04683">
        <ele>1286.86</ele>
        <time>2012-12-01T13:31:32Z</time>
      </trkpt>
      <trkpt lat="43.02663" lon="0.04688">
        <ele>1285.9</ele>
        <time>2012-12-01T13:31:39Z</time>
      </trkpt>
      <trkpt lat="43.02667" lon="0.04686">
        <ele>1284.94</ele>
        <time>2012-12-01T13:31:43Z</time>
      </trkpt>
      <trkpt lat="43.02668" lon="0.04685">
        <ele>1284.46</ele>
        <time>2012-12-01T13:31:45Z</time>
      </trkpt>
      <trkpt lat="43.02674" lon="0.04679">
        <ele>1283.5</ele>
        <time>2012-12-01T13:31:54Z</time>
      </trkpt>
      <trkpt lat="43.02681" lon="0.04664">
        <ele>1282.06</ele>
        <time>2012-12-01T13:32:08Z</time>
      </trkpt>
      <trkpt lat="43.02685" lon="0.04647">
        <ele>1280.61</ele>
        <time>2012-12-01T13:32:22Z</time>
      </trkpt>
      <trkpt lat="43.02688" lon="0.04634">
        <ele>1278.69</ele>
        <time>2012-12-01T13:32:37Z</time>
      </trkpt>
      <trkpt lat="43.02688" lon="0.04634">
        <ele>1278.69</ele>
        <time>2012-12-01T13:32:48Z</time>
      </trkpt>
      <trkpt lat="43.02691" lon="0.0464">
        <ele>1278.21</ele>
        <time>2012-12-01T13:33:05Z</time>
      </trkpt>
      <trkpt lat="43.02697" lon="0.04655">
        <ele>1275.81</ele>
        <time>2012-12-01T13:33:18Z</time>
      </trkpt>
      <trkpt lat="43.027" lon="0.04673">
        <ele>1272.92</ele>
        <time>2012-12-01T13:33:33Z</time>
      </trkpt>
      <trkpt lat="43.02706" lon="0.04685">
        <ele>1271</ele>
        <time>2012-12-01T13:33:46Z</time>
      </trkpt>
      <trkpt lat="43.02714" lon="0.04697">
        <ele>1267.64</ele>
        <time>2012-12-01T13:34:00Z</time>
      </trkpt>
      <trkpt lat="43.02722" lon="0.0471">
        <ele>1262.83</ele>
        <time>2012-12-01T13:34:15Z</time>
      </trkpt>
      <trkpt lat="43.02727" lon="0.04717">
        <ele>1261.39</ele>
        <time>2012-12-01T13:34:22Z</time>
      </trkpt>
      <trkpt lat="43.02732" lon="0.04725">
        <ele>1259.94</ele>
        <time>2012-12-01T13:34:30Z</time>
      </trkpt>
      <trkpt lat="43.02733" lon="0.04727">
        <ele>1259.46</ele>
        <time>2012-12-01T13:34:32Z</time>
      </trkpt>
      <trkpt lat="43.02739" lon="0.04736">
        <ele>1256.58</ele>
        <time>2012-12-01T13:34:48Z</time>
      </trkpt>
      <trkpt lat="43.02747" lon="0.04742">
        <ele>1254.18</ele>
        <time>2012-12-01T13:35:00Z</time>
      </trkpt>
      <trkpt lat="43.02763" lon="0.04747">
        <ele>1252.25</ele>
        <time>2012-12-01T13:35:17Z</time>
      </trkpt>
      <trkpt lat="43.02763" lon="0.04747">
        <ele>1252.25</ele>
        <time>2012-12-01T13:35:41Z</time>
      </trkpt>
      <trkpt lat="43.02763" lon="0.04747">
        <ele>1251.77</ele>
        <time>2012-12-01T13:36:01Z</time>
      </trkpt>
      <trkpt lat="43.02763" lon="0.04747">
        <ele>1251.77</ele>
        <time>2012-12-01T13:36:27Z</time>
      </trkpt>
      <trkpt lat="43.02763" lon="0.04747">
        <ele>1251.77</ele>
        <time>2012-12-01T13:36:53Z</time>
      </trkpt>
      <trkpt lat="43.02763" lon="0.04747">
        <ele>1251.77</ele>
        <time>2012-12-01T13:37:22Z</time>
      </trkpt>
      <trkpt lat="43.02763" lon="0.04747">
        <ele>1251.77</ele>
        <time>2012-12-01T13:37:53Z</time>
      </trkpt>
      <trkpt lat="43.02766" lon="0.04749">
        <ele>1251.29</ele>
        <time>2012-12-01T13:38:11Z</time>
      </trkpt>
      <trkpt lat="43.02775" lon="0.04754">
        <ele>1249.85</ele>
        <time>2012-12-01T13:38:26Z</time>
      </trkpt>
      <trkpt lat="43.02778" lon="0.04755">
        <ele>1249.37</ele>
        <time>2012-12-01T13:38:29Z</time>
      </trkpt>
      <trkpt lat="43.02794" lon="0.04765">
        <ele>1246.97</ele>
        <time>2012-12-01T13:38:46Z</time>
      </trkpt>
      <trkpt lat="43.028" lon="0.04769">
        <ele>1245.53</ele>
        <time>2012-12-01T13:38:54Z</time>
      </trkpt>
      <trkpt lat="43.0281" lon="0.04785">
        <ele>1243.6</ele>
        <time>2012-12-01T13:39:08Z</time>
      </trkpt>
      <trkpt lat="43.02818" lon="0.04801">
        <ele>1242.64</ele>
        <time>2012-12-01T13:39:22Z</time>
      </trkpt>
      <trkpt lat="43.02819" lon="0.04807">
        <ele>1242.16</ele>
        <time>2012-12-01T13:39:27Z</time>
      </trkpt>
      <trkpt lat="43.02821" lon="0.04809">
        <ele>1242.16</ele>
        <time>2012-12-01T13:39:29Z</time>
      </trkpt>
      <trkpt lat="43.02832" lon="0.04816">
        <ele>1241.68</ele>
        <time>2012-12-01T13:39:43Z</time>
      </trkpt>
      <trkpt lat="43.02833" lon="0.04816">
        <ele>1242.16</ele>
        <time>2012-12-01T13:39:45Z</time>
      </trkpt>
      <trkpt lat="43.02842" lon="0.04825">
        <ele>1241.2</ele>
        <time>2012-12-01T13:39:58Z</time>
      </trkpt>
      <trkpt lat="43.02852" lon="0.04836">
        <ele>1241.68</ele>
        <time>2012-12-01T13:40:12Z</time>
      </trkpt>
      <trkpt lat="43.0286" lon="0.04843">
        <ele>1241.2</ele>
        <time>2012-12-01T13:40:24Z</time>
      </trkpt>
      <trkpt lat="43.02867" lon="0.04851">
        <ele>1241.2</ele>
        <time>2012-12-01T13:40:38Z</time>
      </trkpt>
      <trkpt lat="43.02875" lon="0.0486">
        <ele>1242.64</ele>
        <time>2012-12-01T13:40:52Z</time>
      </trkpt>
      <trkpt lat="43.02883" lon="0.04869">
        <ele>1242.16</ele>
        <time>2012-12-01T13:41:06Z</time>
      </trkpt>
      <trkpt lat="43.02884" lon="0.0487">
        <ele>1242.16</ele>
        <time>2012-12-01T13:41:07Z</time>
      </trkpt>
      <trkpt lat="43.02891" lon="0.04877">
        <ele>1240.24</ele>
        <time>2012-12-01T13:41:19Z</time>
      </trkpt>
      <trkpt lat="43.02897" lon="0.04884">
        <ele>1238.32</ele>
        <time>2012-12-01T13:41:31Z</time>
      </trkpt>
      <trkpt lat="43.02905" lon="0.04887">
        <ele>1237.83</ele>
        <time>2012-12-01T13:41:45Z</time>
      </trkpt>
      <trkpt lat="43.02908" lon="0.04891">
        <ele>1237.83</ele>
        <time>2012-12-01T13:42:01Z</time>
      </trkpt>
      <trkpt lat="43.0291" lon="0.04897">
        <ele>1235.91</ele>
        <time>2012-12-01T13:42:13Z</time>
      </trkpt>
      <trkpt lat="43.02911" lon="0.04898">
        <ele>1235.43</ele>
        <time>2012-12-01T13:42:25Z</time>
      </trkpt>
      <trkpt lat="43.02911" lon="0.04898">
        <ele>1235.43</ele>
        <time>2012-12-01T13:42:42Z</time>
      </trkpt>
      <trkpt lat="43.02911" lon="0.04898">
        <ele>1234.95</ele>
        <time>2012-12-01T13:43:09Z</time>
      </trkpt>
      <trkpt lat="43.02911" lon="0.04898">
        <ele>1234.95</ele>
        <time>2012-12-01T13:43:33Z</time>
      </trkpt>
      <trkpt lat="43.02911" lon="0.04898">
        <ele>1234.95</ele>
        <time>2012-12-01T13:43:49Z</time>
      </trkpt>
      <trkpt lat="43.02911" lon="0.04898">
        <ele>1234.95</ele>
        <time>2012-12-01T13:44:09Z</time>
      </trkpt>
      <trkpt lat="43.02909" lon="0.04898">
        <ele>1234.95</ele>
        <time>2012-12-01T13:44:21Z</time>
      </trkpt>
      <trkpt lat="43.02904" lon="0.04895">
        <ele>1234.95</ele>
        <time>2012-12-01T13:44:26Z</time>
      </trkpt>
      <trkpt lat="43.0289" lon="0.04888">
        <ele>1233.99</ele>
        <time>2012-12-01T13:44:40Z</time>
      </trkpt>
      <trkpt lat="43.02876" lon="0.04881">
        <ele>1233.03</ele>
        <time>2012-12-01T13:44:53Z</time>
      </trkpt>
      <trkpt lat="43.02865" lon="0.04875">
        <ele>1232.07</ele>
        <time>2012-12-01T13:45:05Z</time>
      </trkpt>
      <trkpt lat="43.02862" lon="0.04872">
        <ele>1232.07</ele>
        <time>2012-12-01T13:45:09Z</time>
      </trkpt>
      <trkpt lat="43.02859" lon="0.04871">
        <ele>1232.07</ele>
        <time>2012-12-01T13:45:11Z</time>
      </trkpt>
      <trkpt lat="43.0285" lon="0.04868">
        <ele>1231.59</ele>
        <time>2012-12-01T13:45:20Z</time>
      </trkpt>
      <trkpt lat="43.02843" lon="0.04861">
        <ele>1231.11</ele>
        <time>2012-12-01T13:45:28Z</time>
      </trkpt>
      <trkpt lat="43.02839" lon="0.04856">
        <ele>1230.14</ele>
        <time>2012-12-01T13:45:33Z</time>
      </trkpt>
      <trkpt lat="43.02836" lon="0.04854">
        <ele>1229.66</ele>
        <time>2012-12-01T13:45:36Z</time>
      </trkpt>
      <trkpt lat="43.02831" lon="0.04855">
        <ele>1229.18</ele>
        <time>2012-12-01T13:45:41Z</time>
      </trkpt>
      <trkpt lat="43.02829" lon="0.04853">
        <ele>1228.7</ele>
        <time>2012-12-01T13:45:43Z</time>
      </trkpt>
      <trkpt lat="43.02826" lon="0.0485">
        <ele>1227.74</ele>
        <time>2012-12-01T13:45:55Z</time>
      </trkpt>
      <trkpt lat="43.02814" lon="0.04839">
        <ele>1225.34</ele>
        <time>2012-12-01T13:46:09Z</time>
      </trkpt>
      <trkpt lat="43.028" lon="0.04829">
        <ele>1223.9</ele>
        <time>2012-12-01T13:46:24Z</time>
      </trkpt>
      <trkpt lat="43.02787" lon="0.04825">
        <ele>1222.93</ele>
        <time>2012-12-01T13:46:36Z</time>
      </trkpt>
      <trkpt lat="43.02781" lon="0.04824">
        <ele>1221.97</ele>
        <time>2012-12-01T13:46:41Z</time>
      </trkpt>
      <trkpt lat="43.02764" lon="0.04821">
        <ele>1221.01</ele>
        <time>2012-12-01T13:46:56Z</time>
      </trkpt>
      <trkpt lat="43.02763" lon="0.04821">
        <ele>1221.01</ele>
        <time>2012-12-01T13:46:57Z</time>
      </trkpt>
      <trkpt lat="43.02757" lon="0.0482">
        <ele>1220.53</ele>
        <time>2012-12-01T13:47:07Z</time>
      </trkpt>
      <trkpt lat="43.0274" lon="0.04826">
        <ele>1219.09</ele>
        <time>2012-12-01T13:47:22Z</time>
      </trkpt>
      <trkpt lat="43.02726" lon="0.04833">
        <ele>1219.09</ele>
        <time>2012-12-01T13:47:36Z</time>
      </trkpt>
      <trkpt lat="43.02712" lon="0.04841">
        <ele>1219.09</ele>
        <time>2012-12-01T13:47:49Z</time>
      </trkpt>
      <trkpt lat="43.02707" lon="0.04843">
        <ele>1218.13</ele>
        <time>2012-12-01T13:47:54Z</time>
      </trkpt>
      <trkpt lat="43.027" lon="0.0485">
        <ele>1216.21</ele>
        <time>2012-12-01T13:48:03Z</time>
      </trkpt>
      <trkpt lat="43.02687" lon="0.04865">
        <ele>1212.36</ele>
        <time>2012-12-01T13:48:20Z</time>
      </trkpt>
      <trkpt lat="43.02684" lon="0.04867">
        <ele>1211.88</ele>
        <time>2012-12-01T13:48:23Z</time>
      </trkpt>
      <trkpt lat="43.02672" lon="0.04883">
        <ele>1210.44</ele>
        <time>2012-12-01T13:48:39Z</time>
      </trkpt>
      <trkpt lat="43.02658" lon="0.04896">
        <ele>1209</ele>
        <time>2012-12-01T13:48:55Z</time>
      </trkpt>
      <trkpt lat="43.02646" lon="0.04907">
        <ele>1206.59</ele>
        <time>2012-12-01T13:49:09Z</time>
      </trkpt>
      <trkpt lat="43.02632" lon="0.04918">
        <ele>1206.11</ele>
        <time>2012-12-01T13:49:25Z</time>
      </trkpt>
      <trkpt lat="43.02623" lon="0.04923">
        <ele>1205.63</ele>
        <time>2012-12-01T13:49:34Z</time>
      </trkpt>
      <trkpt lat="43.02622" lon="0.04933">
        <ele>1204.67</ele>
        <time>2012-12-01T13:49:42Z</time>
      </trkpt>
      <trkpt lat="43.02627" lon="0.04936">
        <ele>1203.71</ele>
        <time>2012-12-01T13:49:47Z</time>
      </trkpt>
      <trkpt lat="43.02639" lon="0.04939">
        <ele>1202.27</ele>
        <time>2012-12-01T13:50:03Z</time>
      </trkpt>
      <trkpt lat="43.02641" lon="0.04938">
        <ele>1202.27</ele>
        <time>2012-12-01T13:50:14Z</time>
      </trkpt>
      <trkpt lat="43.02657" lon="0.04932">
        <ele>1200.82</ele>
        <time>2012-12-01T13:50:31Z</time>
      </trkpt>
      <trkpt lat="43.02668" lon="0.04925">
        <ele>1197.94</ele>
        <time>2012-12-01T13:50:46Z</time>
      </trkpt>
      <trkpt lat="43.02678" lon="0.04914">
        <ele>1195.06</ele>
        <time>2012-12-01T13:50:59Z</time>
      </trkpt>
      <trkpt lat="43.02691" lon="0.04904">
        <ele>1193.13</ele>
        <time>2012-12-01T13:51:15Z</time>
      </trkpt>
      <trkpt lat="43.02707" lon="0.04895">
        <ele>1191.21</ele>
        <time>2012-12-01T13:51:32Z</time>
      </trkpt>
      <trkpt lat="43.02722" lon="0.0489">
        <ele>1190.25</ele>
        <time>2012-12-01T13:51:48Z</time>
      </trkpt>
      <trkpt lat="43.02733" lon="0.04889">
        <ele>1188.33</ele>
        <time>2012-12-01T13:52:00Z</time>
      </trkpt>
      <trkpt lat="43.0275" lon="0.04891">
        <ele>1188.33</ele>
        <time>2012-12-01T13:52:16Z</time>
      </trkpt>
      <trkpt lat="43.02767" lon="0.04897">
        <ele>1188.33</ele>
        <time>2012-12-01T13:52:33Z</time>
      </trkpt>
      <trkpt lat="43.02782" lon="0.04909">
        <ele>1187.85</ele>
        <time>2012-12-01T13:52:49Z</time>
      </trkpt>
      <trkpt lat="43.02784" lon="0.0491">
        <ele>1187.85</ele>
        <time>2012-12-01T13:52:52Z</time>
      </trkpt>
      <trkpt lat="43.02801" lon="0.04924">
        <ele>1187.85</ele>
        <time>2012-12-01T13:53:10Z</time>
      </trkpt>
      <trkpt lat="43.02808" lon="0.0493">
        <ele>1187.37</ele>
        <time>2012-12-01T13:53:18Z</time>
      </trkpt>
      <trkpt lat="43.02821" lon="0.04943">
        <ele>1186.4</ele>
        <time>2012-12-01T13:53:33Z</time>
      </trkpt>
      <trkpt lat="43.02832" lon="0.04954">
        <ele>1185.44</ele>
        <time>2012-12-01T13:53:47Z</time>
      </trkpt>
      <trkpt lat="43.02844" lon="0.04967">
        <ele>1183.04</ele>
        <time>2012-12-01T13:54:03Z</time>
      </trkpt>
      <trkpt lat="43.02862" lon="0.04981">
        <ele>1182.56</ele>
        <time>2012-12-01T13:54:22Z</time>
      </trkpt>
      <trkpt lat="43.02864" lon="0.04982">
        <ele>1182.08</ele>
        <time>2012-12-01T13:54:24Z</time>
      </trkpt>
      <trkpt lat="43.02875" lon="0.04989">
        <ele>1179.67</ele>
        <time>2012-12-01T13:54:40Z</time>
      </trkpt>
      <trkpt lat="43.02886" lon="0.04998">
        <ele>1177.75</ele>
        <time>2012-12-01T13:54:54Z</time>
      </trkpt>
      <trkpt lat="43.029" lon="0.05011">
        <ele>1177.27</ele>
        <time>2012-12-01T13:55:09Z</time>
      </trkpt>
      <trkpt lat="43.0292" lon="0.05025">
        <ele>1175.35</ele>
        <time>2012-12-01T13:55:28Z</time>
      </trkpt>
      <trkpt lat="43.02924" lon="0.0503">
        <ele>1174.39</ele>
        <time>2012-12-01T13:55:46Z</time>
      </trkpt>
      <trkpt lat="43.02924" lon="0.0503">
        <ele>1174.39</ele>
        <time>2012-12-01T13:56:08Z</time>
      </trkpt>
      <trkpt lat="43.02927" lon="0.05033">
        <ele>1174.39</ele>
        <time>2012-12-01T13:56:30Z</time>
      </trkpt>
      <trkpt lat="43.0294" lon="0.05044">
        <ele>1173.43</ele>
        <time>2012-12-01T13:56:43Z</time>
      </trkpt>
      <trkpt lat="43.02958" lon="0.05056">
        <ele>1168.62</ele>
        <time>2012-12-01T13:56:58Z</time>
      </trkpt>
      <trkpt lat="43.02974" lon="0.05069">
        <ele>1166.22</ele>
        <time>2012-12-01T13:57:13Z</time>
      </trkpt>
      <trkpt lat="43.02996" lon="0.05079">
        <ele>1163.33</ele>
        <time>2012-12-01T13:57:29Z</time>
      </trkpt>
      <trkpt lat="43.03015" lon="0.05068">
        <ele>1160.45</ele>
        <time>2012-12-01T13:57:45Z</time>
      </trkpt>
      <trkpt lat="43.03031" lon="0.05051">
        <ele>1159.49</ele>
        <time>2012-12-01T13:58:00Z</time>
      </trkpt>
      <trkpt lat="43.03048" lon="0.05037">
        <ele>1159.01</ele>
        <time>2012-12-01T13:58:17Z</time>
      </trkpt>
      <trkpt lat="43.03063" lon="0.05023">
        <ele>1158.05</ele>
        <time>2012-12-01T13:58:33Z</time>
      </trkpt>
      <trkpt lat="43.03074" lon="0.05022">
        <ele>1156.6</ele>
        <time>2012-12-01T13:58:43Z</time>
      </trkpt>
      <trkpt lat="43.03084" lon="0.05021">
        <ele>1154.68</ele>
        <time>2012-12-01T13:58:57Z</time>
      </trkpt>
      <trkpt lat="43.03097" lon="0.05024">
        <ele>1150.84</ele>
        <time>2012-12-01T13:59:13Z</time>
      </trkpt>
      <trkpt lat="43.03105" lon="0.05027">
        <ele>1149.87</ele>
        <time>2012-12-01T13:59:30Z</time>
      </trkpt>
      <trkpt lat="43.03106" lon="0.05028">
        <ele>1149.87</ele>
        <time>2012-12-01T13:59:51Z</time>
      </trkpt>
      <trkpt lat="43.03106" lon="0.05027">
        <ele>1150.35</ele>
        <time>2012-12-01T14:00:13Z</time>
      </trkpt>
      <trkpt lat="43.03106" lon="0.05027">
        <ele>1150.35</ele>
        <time>2012-12-01T14:00:39Z</time>
      </trkpt>
      <trkpt lat="43.0312" lon="0.05029">
        <ele>1147.47</ele>
        <time>2012-12-01T14:00:54Z</time>
      </trkpt>
      <trkpt lat="43.0314" lon="0.05033">
        <ele>1146.51</ele>
        <time>2012-12-01T14:01:11Z</time>
      </trkpt>
      <trkpt lat="43.03153" lon="0.0504">
        <ele>1141.7</ele>
        <time>2012-12-01T14:01:26Z</time>
      </trkpt>
      <trkpt lat="43.03161" lon="0.05049">
        <ele>1136.9</ele>
        <time>2012-12-01T14:01:39Z</time>
      </trkpt>
      <trkpt lat="43.03177" lon="0.05062">
        <ele>1132.09</ele>
        <time>2012-12-01T14:01:58Z</time>
      </trkpt>
      <trkpt lat="43.03188" lon="0.05075">
        <ele>1130.65</ele>
        <time>2012-12-01T14:02:11Z</time>
      </trkpt>
      <trkpt lat="43.032" lon="0.05098">
        <ele>1133.53</ele>
        <time>2012-12-01T14:02:25Z</time>
      </trkpt>
      <trkpt lat="43.0321" lon="0.05115">
        <ele>1134.97</ele>
        <time>2012-12-01T14:02:39Z</time>
      </trkpt>
      <trkpt lat="43.03218" lon="0.05131">
        <ele>1132.57</ele>
        <time>2012-12-01T14:02:53Z</time>
      </trkpt>
      <trkpt lat="43.03226" lon="0.05146">
        <ele>1129.69</ele>
        <time>2012-12-01T14:03:07Z</time>
      </trkpt>
      <trkpt lat="43.03235" lon="0.05163">
        <ele>1126.32</ele>
        <time>2012-12-01T14:03:19Z</time>
      </trkpt>
      <trkpt lat="43.03237" lon="0.05166">
        <ele>1124.88</ele>
        <time>2012-12-01T14:03:22Z</time>
      </trkpt>
      <trkpt lat="43.03245" lon="0.05181">
        <ele>1122.48</ele>
        <time>2012-12-01T14:03:35Z</time>
      </trkpt>
      <trkpt lat="43.03252" lon="0.05193">
        <ele>1118.63</ele>
        <time>2012-12-01T14:03:48Z</time>
      </trkpt>
      <trkpt lat="43.03262" lon="0.05208">
        <ele>1116.23</ele>
        <time>2012-12-01T14:04:02Z</time>
      </trkpt>
      <trkpt lat="43.03274" lon="0.05229">
        <ele>1115.27</ele>
        <time>2012-12-01T14:04:19Z</time>
      </trkpt>
      <trkpt lat="43.03287" lon="0.05242">
        <ele>1115.27</ele>
        <time>2012-12-01T14:04:34Z</time>
      </trkpt>
      <trkpt lat="43.03289" lon="0.05244">
        <ele>1115.27</ele>
        <time>2012-12-01T14:04:36Z</time>
      </trkpt>
      <trkpt lat="43.03303" lon="0.05253">
        <ele>1114.79</ele>
        <time>2012-12-01T14:04:51Z</time>
      </trkpt>
      <trkpt lat="43.03314" lon="0.05261">
        <ele>1112.86</ele>
        <time>2012-12-01T14:05:05Z</time>
      </trkpt>
      <trkpt lat="43.03323" lon="0.05274">
        <ele>1111.9</ele>
        <time>2012-12-01T14:05:15Z</time>
      </trkpt>
      <trkpt lat="43.03338" lon="0.05289">
        <ele>1109.02</ele>
        <time>2012-12-01T14:05:30Z</time>
      </trkpt>
      <trkpt lat="43.03345" lon="0.0529">
        <ele>1108.06</ele>
        <time>2012-12-01T14:05:38Z</time>
      </trkpt>
      <trkpt lat="43.03358" lon="0.05283">
        <ele>1105.65</ele>
        <time>2012-12-01T14:05:52Z</time>
      </trkpt>
      <trkpt lat="43.03372" lon="0.05268">
        <ele>1103.25</ele>
        <time>2012-12-01T14:06:08Z</time>
      </trkpt>
      <trkpt lat="43.03384" lon="0.05256">
        <ele>1100.37</ele>
        <time>2012-12-01T14:06:23Z</time>
      </trkpt>
      <trkpt lat="43.03393" lon="0.05241">
        <ele>1096.04</ele>
        <time>2012-12-01T14:06:39Z</time>
      </trkpt>
      <trkpt lat="43.03394" lon="0.05223">
        <ele>1098.92</ele>
        <time>2012-12-01T14:06:55Z</time>
      </trkpt>
      <trkpt lat="43.03398" lon="0.05205">
        <ele>1102.77</ele>
        <time>2012-12-01T14:07:11Z</time>
      </trkpt>
      <trkpt lat="43.03398" lon="0.05205">
        <ele>1102.77</ele>
        <time>2012-12-01T14:07:39Z</time>
      </trkpt>
      <trkpt lat="43.03406" lon="0.05188">
        <ele>1101.33</ele>
        <time>2012-12-01T14:07:59Z</time>
      </trkpt>
      <trkpt lat="43.03414" lon="0.05163">
        <ele>1098.44</ele>
        <time>2012-12-01T14:08:17Z</time>
      </trkpt>
      <trkpt lat="43.03419" lon="0.0514">
        <ele>1097</ele>
        <time>2012-12-01T14:08:30Z</time>
      </trkpt>
      <trkpt lat="43.03419" lon="0.05134">
        <ele>1096.52</ele>
        <time>2012-12-01T14:08:33Z</time>
      </trkpt>
      <trkpt lat="43.03421" lon="0.05113">
        <ele>1097.48</ele>
        <time>2012-12-01T14:08:42Z</time>
      </trkpt>
      <trkpt lat="43.03428" lon="0.05092">
        <ele>1096.04</ele>
        <time>2012-12-01T14:08:58Z</time>
      </trkpt>
      <trkpt lat="43.03434" lon="0.0507">
        <ele>1094.12</ele>
        <time>2012-12-01T14:09:13Z</time>
      </trkpt>
      <trkpt lat="43.03436" lon="0.05049">
        <ele>1092.2</ele>
        <time>2012-12-01T14:09:27Z</time>
      </trkpt>
      <trkpt lat="43.03436" lon="0.05034">
        <ele>1090.75</ele>
        <time>2012-12-01T14:09:40Z</time>
      </trkpt>
      <trkpt lat="43.0344" lon="0.05016">
        <ele>1088.35</ele>
        <time>2012-12-01T14:09:54Z</time>
      </trkpt>
      <trkpt lat="43.03444" lon="0.04998">
        <ele>1085.47</ele>
        <time>2012-12-01T14:10:09Z</time>
      </trkpt>
      <trkpt lat="43.03447" lon="0.0498">
        <ele>1084.02</ele>
        <time>2012-12-01T14:10:24Z</time>
      </trkpt>
      <trkpt lat="43.03456" lon="0.04958">
        <ele>1084.02</ele>
        <time>2012-12-01T14:10:41Z</time>
      </trkpt>
      <trkpt lat="43.03461" lon="0.04951">
        <ele>1082.1</ele>
        <time>2012-12-01T14:10:50Z</time>
      </trkpt>
      <trkpt lat="43.03471" lon="0.04936">
        <ele>1079.22</ele>
        <time>2012-12-01T14:11:07Z</time>
      </trkpt>
      <trkpt lat="43.03488" lon="0.0492">
        <ele>1081.14</ele>
        <time>2012-12-01T14:11:24Z</time>
      </trkpt>
      <trkpt lat="43.03495" lon="0.04909">
        <ele>1075.85</ele>
        <time>2012-12-01T14:11:40Z</time>
      </trkpt>
      <trkpt lat="43.03509" lon="0.04896">
        <ele>1074.41</ele>
        <time>2012-12-01T14:11:56Z</time>
      </trkpt>
      <trkpt lat="43.03519" lon="0.04888">
        <ele>1074.89</ele>
        <time>2012-12-01T14:12:12Z</time>
      </trkpt>
      <trkpt lat="43.0353" lon="0.04879">
        <ele>1075.37</ele>
        <time>2012-12-01T14:12:25Z</time>
      </trkpt>
      <trkpt lat="43.03545" lon="0.04872">
        <ele>1074.41</ele>
        <time>2012-12-01T14:12:39Z</time>
      </trkpt>
      <trkpt lat="43.03566" lon="0.04864">
        <ele>1075.37</ele>
        <time>2012-12-01T14:12:56Z</time>
      </trkpt>
      <trkpt lat="43.03578" lon="0.0485">
        <ele>1072.01</ele>
        <time>2012-12-01T14:13:12Z</time>
      </trkpt>
      <trkpt lat="43.03588" lon="0.04833">
        <ele>1068.64</ele>
        <time>2012-12-01T14:13:28Z</time>
      </trkpt>
      <trkpt lat="43.03596" lon="0.04816">
        <ele>1065.28</ele>
        <time>2012-12-01T14:13:45Z</time>
      </trkpt>
      <trkpt lat="43.03608" lon="0.04801">
        <ele>1064.32</ele>
        <time>2012-12-01T14:14:01Z</time>
      </trkpt>
      <trkpt lat="43.0362" lon="0.04788">
        <ele>1064.8</ele>
        <time>2012-12-01T14:14:16Z</time>
      </trkpt>
      <trkpt lat="43.03632" lon="0.04776">
        <ele>1064.8</ele>
        <time>2012-12-01T14:14:32Z</time>
      </trkpt>
      <trkpt lat="43.03645" lon="0.0476">
        <ele>1062.39</ele>
        <time>2012-12-01T14:14:50Z</time>
      </trkpt>
      <trkpt lat="43.03656" lon="0.04748">
        <ele>1060.95</ele>
        <time>2012-12-01T14:15:06Z</time>
      </trkpt>
      <trkpt lat="43.03669" lon="0.04736">
        <ele>1058.55</ele>
        <time>2012-12-01T14:15:24Z</time>
      </trkpt>
      <trkpt lat="43.03671" lon="0.04735">
        <ele>1058.55</ele>
        <time>2012-12-01T14:15:40Z</time>
      </trkpt>
      <trkpt lat="43.03671" lon="0.04734">
        <ele>1058.55</ele>
        <time>2012-12-01T14:16:04Z</time>
      </trkpt>
      <trkpt lat="43.0367" lon="0.04734">
        <ele>1058.55</ele>
        <time>2012-12-01T14:16:26Z</time>
      </trkpt>
      <trkpt lat="43.0367" lon="0.04734">
        <ele>1058.55</ele>
        <time>2012-12-01T14:16:55Z</time>
      </trkpt>
      <trkpt lat="43.0367" lon="0.04734">
        <ele>1058.55</ele>
        <time>2012-12-01T14:17:19Z</time>
      </trkpt>
      <trkpt lat="43.0367" lon="0.04732">
        <ele>1058.55</ele>
        <time>2012-12-01T14:17:35Z</time>
      </trkpt>
      <trkpt lat="43.0367" lon="0.04732">
        <ele>1057.59</ele>
        <time>2012-12-01T14:17:57Z</time>
      </trkpt>
      <trkpt lat="43.0367" lon="0.04733">
        <ele>1057.59</ele>
        <time>2012-12-01T14:18:18Z</time>
      </trkpt>
      <trkpt lat="43.0367" lon="0.04733">
        <ele>1057.59</ele>
        <time>2012-12-01T14:18:43Z</time>
      </trkpt>
      <trkpt lat="43.0367" lon="0.04733">
        <ele>1057.59</ele>
        <time>2012-12-01T14:19:17Z</time>
      </trkpt>
      <trkpt lat="43.0367" lon="0.04733">
        <ele>1057.59</ele>
        <time>2012-12-01T14:19:42Z</time>
      </trkpt>
      <trkpt lat="43.0367" lon="0.04732">
        <ele>1057.11</ele>
        <time>2012-12-01T14:20:09Z</time>
      </trkpt>
      <trkpt lat="43.0367" lon="0.04732">
        <ele>1057.11</ele>
        <time>2012-12-01T14:20:33Z</time>
      </trkpt>
      <trkpt lat="43.0367" lon="0.04733">
        <ele>1056.15</ele>
        <time>2012-12-01T14:20:48Z</time>
      </trkpt>
      <trkpt lat="43.03671" lon="0.04733">
        <ele>1056.63</ele>
        <time>2012-12-01T14:21:17Z</time>
      </trkpt>
      <trkpt lat="43.03671" lon="0.04733">
        <ele>1056.15</ele>
        <time>2012-12-01T14:21:43Z</time>
      </trkpt>
      <trkpt lat="43.03671" lon="0.04733">
        <ele>1056.15</ele>
        <time>2012-12-01T14:22:09Z</time>
      </trkpt>
      <trkpt lat="43.03671" lon="0.04733">
        <ele>1056.63</ele>
        <time>2012-12-01T14:22:37Z</time>
      </trkpt>
      <trkpt lat="43.03671" lon="0.04733">
        <ele>1056.63</ele>
        <time>2012-12-01T14:22:59Z</time>
      </trkpt>
      <trkpt lat="43.03671" lon="0.04733">
        <ele>1056.15</ele>
        <time>2012-12-01T14:23:15Z</time>
      </trkpt>
      <trkpt lat="43.0367" lon="0.04734">
        <ele>1056.15</ele>
        <time>2012-12-01T14:23:28Z</time>
      </trkpt>
      <trkpt lat="43.0367" lon="0.04734">
        <ele>1055.67</ele>
        <time>2012-12-01T14:23:42Z</time>
      </trkpt>
      <trkpt lat="43.03673" lon="0.04731">
        <ele>1055.18</ele>
        <time>2012-12-01T14:23:59Z</time>
      </trkpt>
      <trkpt lat="43.03685" lon="0.04722">
        <ele>1055.18</ele>
        <time>2012-12-01T14:24:14Z</time>
      </trkpt>
      <trkpt lat="43.03696" lon="0.04713">
        <ele>1055.18</ele>
        <time>2012-12-01T14:24:28Z</time>
      </trkpt>
      <trkpt lat="43.03708" lon="0.04699">
        <ele>1054.22</ele>
        <time>2012-12-01T14:24:44Z</time>
      </trkpt>
      <trkpt lat="43.03709" lon="0.04698">
        <ele>1054.7</ele>
        <time>2012-12-01T14:24:46Z</time>
      </trkpt>
      <trkpt lat="43.03722" lon="0.04682">
        <ele>1055.18</ele>
        <time>2012-12-01T14:25:03Z</time>
      </trkpt>
      <trkpt lat="43.03735" lon="0.0466">
        <ele>1052.3</ele>
        <time>2012-12-01T14:25:22Z</time>
      </trkpt>
      <trkpt lat="43.03743" lon="0.04645">
        <ele>1047.01</ele>
        <time>2012-12-01T14:25:37Z</time>
      </trkpt>
      <trkpt lat="43.03756" lon="0.04626">
        <ele>1040.76</ele>
        <time>2012-12-01T14:25:54Z</time>
      </trkpt>
      <trkpt lat="43.03773" lon="0.04612">
        <ele>1039.32</ele>
        <time>2012-12-01T14:26:10Z</time>
      </trkpt>
      <trkpt lat="43.0378" lon="0.04607">
        <ele>1038.36</ele>
        <time>2012-12-01T14:26:18Z</time>
      </trkpt>
      <trkpt lat="43.03791" lon="0.04588">
        <ele>1037.4</ele>
        <time>2012-12-01T14:26:38Z</time>
      </trkpt>
      <trkpt lat="43.03792" lon="0.04587">
        <ele>1036.92</ele>
        <time>2012-12-01T14:26:50Z</time>
      </trkpt>
      <trkpt lat="43.03796" lon="0.04576">
        <ele>1036.92</ele>
        <time>2012-12-01T14:27:08Z</time>
      </trkpt>
      <trkpt lat="43.03797" lon="0.04566">
        <ele>1036.92</ele>
        <time>2012-12-01T14:27:20Z</time>
      </trkpt>
      <trkpt lat="43.03799" lon="0.04548">
        <ele>1036.44</ele>
        <time>2012-12-01T14:27:34Z</time>
      </trkpt>
      <trkpt lat="43.03802" lon="0.04524">
        <ele>1034.04</ele>
        <time>2012-12-01T14:27:50Z</time>
      </trkpt>
      <trkpt lat="43.03805" lon="0.04501">
        <ele>1031.63</ele>
        <time>2012-12-01T14:28:06Z</time>
      </trkpt>
      <trkpt lat="43.03809" lon="0.0448">
        <ele>1028.75</ele>
        <time>2012-12-01T14:28:21Z</time>
      </trkpt>
      <trkpt lat="43.03805" lon="0.04458">
        <ele>1026.83</ele>
        <time>2012-12-01T14:28:37Z</time>
      </trkpt>
      <trkpt lat="43.03798" lon="0.04439">
        <ele>1024.42</ele>
        <time>2012-12-01T14:28:52Z</time>
      </trkpt>
      <trkpt lat="43.03797" lon="0.04436">
        <ele>1023.94</ele>
        <time>2012-12-01T14:28:54Z</time>
      </trkpt>
      <trkpt lat="43.03789" lon="0.04412">
        <ele>1021.06</ele>
        <time>2012-12-01T14:29:12Z</time>
      </trkpt>
      <trkpt lat="43.0378" lon="0.0439">
        <ele>1019.13</ele>
        <time>2012-12-01T14:29:28Z</time>
      </trkpt>
      <trkpt lat="43.03774" lon="0.04377">
        <ele>1019.13</ele>
        <time>2012-12-01T14:29:38Z</time>
      </trkpt>
      <trkpt lat="43.03768" lon="0.04357">
        <ele>1017.69</ele>
        <time>2012-12-01T14:29:53Z</time>
      </trkpt>
      <trkpt lat="43.03757" lon="0.04335">
        <ele>1015.77</ele>
        <time>2012-12-01T14:30:10Z</time>
      </trkpt>
      <trkpt lat="43.03746" lon="0.04314">
        <ele>1013.85</ele>
        <time>2012-12-01T14:30:27Z</time>
      </trkpt>
      <trkpt lat="43.03745" lon="0.04304">
        <ele>1013.37</ele>
        <time>2012-12-01T14:30:33Z</time>
      </trkpt>
      <trkpt lat="43.03748" lon="0.043">
        <ele>1012.89</ele>
        <time>2012-12-01T14:30:37Z</time>
      </trkpt>
      <trkpt lat="43.03757" lon="0.04299">
        <ele>1011.93</ele>
        <time>2012-12-01T14:30:52Z</time>
      </trkpt>
      <trkpt lat="43.03757" lon="0.04299">
        <ele>1011.93</ele>
        <time>2012-12-01T14:31:15Z</time>
      </trkpt>
      <trkpt lat="43.03757" lon="0.04299">
        <ele>1011.93</ele>
        <time>2012-12-01T14:31:32Z</time>
      </trkpt>
      <trkpt lat="43.0376" lon="0.04306">
        <ele>1010</ele>
        <time>2012-12-01T14:31:40Z</time>
      </trkpt>
      <trkpt lat="43.03769" lon="0.04321">
        <ele>1007.6</ele>
        <time>2012-12-01T14:31:53Z</time>
      </trkpt>
      <trkpt lat="43.03784" lon="0.04333">
        <ele>1006.64</ele>
        <time>2012-12-01T14:32:09Z</time>
      </trkpt>
      <trkpt lat="43.03788" lon="0.04334">
        <ele>1006.16</ele>
        <time>2012-12-01T14:32:13Z</time>
      </trkpt>
      <trkpt lat="43.03806" lon="0.0435">
        <ele>1004.72</ele>
        <time>2012-12-01T14:32:30Z</time>
      </trkpt>
      <trkpt lat="43.03821" lon="0.04368">
        <ele>1001.83</ele>
        <time>2012-12-01T14:32:47Z</time>
      </trkpt>
      <trkpt lat="43.03831" lon="0.04381">
        <ele>999.43</ele>
        <time>2012-12-01T14:33:02Z</time>
      </trkpt>
      <trkpt lat="43.03846" lon="0.04398">
        <ele>997.51</ele>
        <time>2012-12-01T14:33:19Z</time>
      </trkpt>
      <trkpt lat="43.03858" lon="0.0441">
        <ele>995.58</ele>
        <time>2012-12-01T14:33:33Z</time>
      </trkpt>
      <trkpt lat="43.03873" lon="0.04421">
        <ele>993.18</ele>
        <time>2012-12-01T14:33:49Z</time>
      </trkpt>
      <trkpt lat="43.03887" lon="0.04428">
        <ele>991.74</ele>
        <time>2012-12-01T14:34:02Z</time>
      </trkpt>
      <trkpt lat="43.0389" lon="0.04431">
        <ele>990.78</ele>
        <time>2012-12-01T14:34:11Z</time>
      </trkpt>
      <trkpt lat="43.03898" lon="0.04435">
        <ele>989.81</ele>
        <time>2012-12-01T14:34:19Z</time>
      </trkpt>
      <trkpt lat="43.03915" lon="0.04445">
        <ele>987.41</ele>
        <time>2012-12-01T14:34:36Z</time>
      </trkpt>
      <trkpt lat="43.03931" lon="0.04454">
        <ele>985.49</ele>
        <time>2012-12-01T14:34:52Z</time>
      </trkpt>
      <trkpt lat="43.03947" lon="0.04465">
        <ele>983.09</ele>
        <time>2012-12-01T14:35:09Z</time>
      </trkpt>
      <trkpt lat="43.03963" lon="0.04475">
        <ele>981.16</ele>
        <time>2012-12-01T14:35:25Z</time>
      </trkpt>
      <trkpt lat="43.03976" lon="0.0449">
        <ele>978.28</ele>
        <time>2012-12-01T14:35:41Z</time>
      </trkpt>
      <trkpt lat="43.03986" lon="0.04506">
        <ele>975.88</ele>
        <time>2012-12-01T14:35:56Z</time>
      </trkpt>
      <trkpt lat="43.03999" lon="0.04529">
        <ele>973.47</ele>
        <time>2012-12-01T14:36:15Z</time>
      </trkpt>
      <trkpt lat="43.04008" lon="0.04549">
        <ele>971.55</ele>
        <time>2012-12-01T14:36:31Z</time>
      </trkpt>
      <trkpt lat="43.04012" lon="0.0456">
        <ele>970.59</ele>
        <time>2012-12-01T14:36:39Z</time>
      </trkpt>
      <trkpt lat="43.04018" lon="0.04583">
        <ele>968.67</ele>
        <time>2012-12-01T14:36:55Z</time>
      </trkpt>
      <trkpt lat="43.04023" lon="0.04589">
        <ele>967.7</ele>
        <time>2012-12-01T14:37:01Z</time>
      </trkpt>
      <trkpt lat="43.04039" lon="0.04576">
        <ele>964.34</ele>
        <time>2012-12-01T14:37:17Z</time>
      </trkpt>
      <trkpt lat="43.04039" lon="0.04565">
        <ele>961.94</ele>
        <time>2012-12-01T14:37:24Z</time>
      </trkpt>
      <trkpt lat="43.04041" lon="0.0454">
        <ele>957.61</ele>
        <time>2012-12-01T14:37:41Z</time>
      </trkpt>
      <trkpt lat="43.04044" lon="0.04514">
        <ele>953.77</ele>
        <time>2012-12-01T14:37:58Z</time>
      </trkpt>
      <trkpt lat="43.04048" lon="0.04494">
        <ele>950.88</ele>
        <time>2012-12-01T14:38:16Z</time>
      </trkpt>
      <trkpt lat="43.04049" lon="0.04485">
        <ele>949.92</ele>
        <time>2012-12-01T14:38:30Z</time>
      </trkpt>
      <trkpt lat="43.04047" lon="0.04471">
        <ele>949.92</ele>
        <time>2012-12-01T14:38:41Z</time>
      </trkpt>
      <trkpt lat="43.04038" lon="0.04441">
        <ele>950.4</ele>
        <time>2012-12-01T14:39:00Z</time>
      </trkpt>
      <trkpt lat="43.04031" lon="0.04428">
        <ele>948.96</ele>
        <time>2012-12-01T14:39:11Z</time>
      </trkpt>
      <trkpt lat="43.04026" lon="0.04403">
        <ele>947.04</ele>
        <time>2012-12-01T14:39:29Z</time>
      </trkpt>
      <trkpt lat="43.0402" lon="0.04378">
        <ele>945.11</ele>
        <time>2012-12-01T14:39:47Z</time>
      </trkpt>
      <trkpt lat="43.04017" lon="0.04365">
        <ele>944.15</ele>
        <time>2012-12-01T14:40:00Z</time>
      </trkpt>
      <trkpt lat="43.04013" lon="0.04354">
        <ele>944.15</ele>
        <time>2012-12-01T14:40:08Z</time>
      </trkpt>
      <trkpt lat="43.04008" lon="0.04331">
        <ele>943.19</ele>
        <time>2012-12-01T14:40:23Z</time>
      </trkpt>
      <trkpt lat="43.04001" lon="0.04303">
        <ele>941.27</ele>
        <time>2012-12-01T14:40:41Z</time>
      </trkpt>
      <trkpt lat="43.03996" lon="0.04274">
        <ele>939.83</ele>
        <time>2012-12-01T14:40:59Z</time>
      </trkpt>
      <trkpt lat="43.0399" lon="0.04246">
        <ele>938.86</ele>
        <time>2012-12-01T14:41:17Z</time>
      </trkpt>
      <trkpt lat="43.03984" lon="0.04222">
        <ele>937.42</ele>
        <time>2012-12-01T14:41:33Z</time>
      </trkpt>
      <trkpt lat="43.03984" lon="0.04219">
        <ele>937.42</ele>
        <time>2012-12-01T14:41:35Z</time>
      </trkpt>
      <trkpt lat="43.03982" lon="0.04195">
        <ele>934.06</ele>
        <time>2012-12-01T14:41:50Z</time>
      </trkpt>
      <trkpt lat="43.03982" lon="0.04169">
        <ele>931.17</ele>
        <time>2012-12-01T14:42:06Z</time>
      </trkpt>
      <trkpt lat="43.03979" lon="0.04145">
        <ele>930.21</ele>
        <time>2012-12-01T14:42:21Z</time>
      </trkpt>
      <trkpt lat="43.03974" lon="0.0413">
        <ele>928.77</ele>
        <time>2012-12-01T14:42:32Z</time>
      </trkpt>
      <trkpt lat="43.03976" lon="0.0412">
        <ele>927.33</ele>
        <time>2012-12-01T14:42:38Z</time>
      </trkpt>
      <trkpt lat="43.03978" lon="0.0411">
        <ele>926.37</ele>
        <time>2012-12-01T14:42:53Z</time>
      </trkpt>
      <trkpt lat="43.03978" lon="0.0411">
        <ele>926.37</ele>
        <time>2012-12-01T14:43:27Z</time>
      </trkpt>
      <trkpt lat="43.0398" lon="0.04114">
        <ele>926.85</ele>
        <time>2012-12-01T14:43:37Z</time>
      </trkpt>
      <trkpt lat="43.03986" lon="0.04118">
        <ele>928.77</ele>
        <time>2012-12-01T14:43:53Z</time>
      </trkpt>
      <trkpt lat="43.03986" lon="0.04118">
        <ele>928.77</ele>
        <time>2012-12-01T14:44:14Z</time>
      </trkpt>
      <trkpt lat="43.03987" lon="0.04125">
        <ele>928.29</ele>
        <time>2012-12-01T14:44:19Z</time>
      </trkpt>
      <trkpt lat="43.03999" lon="0.04161">
        <ele>923.96</ele>
        <time>2012-12-01T14:44:44Z</time>
      </trkpt>
      <trkpt lat="43.04012" lon="0.04178">
        <ele>923</ele>
        <time>2012-12-01T14:44:59Z</time>
      </trkpt>
      <trkpt lat="43.04027" lon="0.04197">
        <ele>922.04</ele>
        <time>2012-12-01T14:45:16Z</time>
      </trkpt>
      <trkpt lat="43.04043" lon="0.04214">
        <ele>920.6</ele>
        <time>2012-12-01T14:45:33Z</time>
      </trkpt>
      <trkpt lat="43.04062" lon="0.0423">
        <ele>918.2</ele>
        <time>2012-12-01T14:45:50Z</time>
      </trkpt>
      <trkpt lat="43.04082" lon="0.04247">
        <ele>915.79</ele>
        <time>2012-12-01T14:46:09Z</time>
      </trkpt>
      <trkpt lat="43.04098" lon="0.0426">
        <ele>913.39</ele>
        <time>2012-12-01T14:46:26Z</time>
      </trkpt>
      <trkpt lat="43.04099" lon="0.04262">
        <ele>912.91</ele>
        <time>2012-12-01T14:46:29Z</time>
      </trkpt>
      <trkpt lat="43.04112" lon="0.04276">
        <ele>910.99</ele>
        <time>2012-12-01T14:46:44Z</time>
      </trkpt>
      <trkpt lat="43.04129" lon="0.04293">
        <ele>909.06</ele>
        <time>2012-12-01T14:47:01Z</time>
      </trkpt>
      <trkpt lat="43.04143" lon="0.04306">
        <ele>906.18</ele>
        <time>2012-12-01T14:47:15Z</time>
      </trkpt>
      <trkpt lat="43.04156" lon="0.04326">
        <ele>904.26</ele>
        <time>2012-12-01T14:47:32Z</time>
      </trkpt>
      <trkpt lat="43.04163" lon="0.04345">
        <ele>902.82</ele>
        <time>2012-12-01T14:47:46Z</time>
      </trkpt>
      <trkpt lat="43.04173" lon="0.0436">
        <ele>902.33</ele>
        <time>2012-12-01T14:47:59Z</time>
      </trkpt>
      <trkpt lat="43.04175" lon="0.04364">
        <ele>902.33</ele>
        <time>2012-12-01T14:48:02Z</time>
      </trkpt>
      <trkpt lat="43.04185" lon="0.04378">
        <ele>901.37</ele>
        <time>2012-12-01T14:48:16Z</time>
      </trkpt>
      <trkpt lat="43.04187" lon="0.0438">
        <ele>900.89</ele>
        <time>2012-12-01T14:48:18Z</time>
      </trkpt>
      <trkpt lat="43.04189" lon="0.04383">
        <ele>900.89</ele>
        <time>2012-12-01T14:48:21Z</time>
      </trkpt>
      <trkpt lat="43.04203" lon="0.04401">
        <ele>898.97</ele>
        <time>2012-12-01T14:48:39Z</time>
      </trkpt>
      <trkpt lat="43.04216" lon="0.04419">
        <ele>897.53</ele>
        <time>2012-12-01T14:48:56Z</time>
      </trkpt>
      <trkpt lat="43.0423" lon="0.04435">
        <ele>895.61</ele>
        <time>2012-12-01T14:49:12Z</time>
      </trkpt>
      <trkpt lat="43.04244" lon="0.04453">
        <ele>893.2</ele>
        <time>2012-12-01T14:49:29Z</time>
      </trkpt>
      <trkpt lat="43.04256" lon="0.04469">
        <ele>889.84</ele>
        <time>2012-12-01T14:49:44Z</time>
      </trkpt>
      <trkpt lat="43.04265" lon="0.04483">
        <ele>887.91</ele>
        <time>2012-12-01T14:49:58Z</time>
      </trkpt>
      <trkpt lat="43.04278" lon="0.045">
        <ele>885.51</ele>
        <time>2012-12-01T14:50:15Z</time>
      </trkpt>
      <trkpt lat="43.04281" lon="0.04505">
        <ele>885.51</ele>
        <time>2012-12-01T14:50:21Z</time>
      </trkpt>
      <trkpt lat="43.04294" lon="0.04523">
        <ele>884.55</ele>
        <time>2012-12-01T14:50:35Z</time>
      </trkpt>
      <trkpt lat="43.04295" lon="0.04528">
        <ele>885.51</ele>
        <time>2012-12-01T14:50:39Z</time>
      </trkpt>
      <trkpt lat="43.043" lon="0.04544">
        <ele>885.99</ele>
        <time>2012-12-01T14:50:52Z</time>
      </trkpt>
      <trkpt lat="43.04303" lon="0.04554">
        <ele>885.99</ele>
        <time>2012-12-01T14:50:59Z</time>
      </trkpt>
      <trkpt lat="43.04307" lon="0.04564">
        <ele>886.47</ele>
        <time>2012-12-01T14:51:07Z</time>
      </trkpt>
      <trkpt lat="43.04307" lon="0.04569">
        <ele>886.47</ele>
        <time>2012-12-01T14:51:10Z</time>
      </trkpt>
      <trkpt lat="43.04314" lon="0.0459">
        <ele>885.99</ele>
        <time>2012-12-01T14:51:26Z</time>
      </trkpt>
      <trkpt lat="43.04321" lon="0.04609">
        <ele>886.95</ele>
        <time>2012-12-01T14:51:41Z</time>
      </trkpt>
      <trkpt lat="43.04326" lon="0.04631">
        <ele>887.91</ele>
        <time>2012-12-01T14:51:57Z</time>
      </trkpt>
      <trkpt lat="43.04327" lon="0.04638">
        <ele>888.4</ele>
        <time>2012-12-01T14:52:01Z</time>
      </trkpt>
      <trkpt lat="43.04327" lon="0.04654">
        <ele>888.88</ele>
        <time>2012-12-01T14:52:12Z</time>
      </trkpt>
      <trkpt lat="43.04327" lon="0.04671">
        <ele>888.88</ele>
        <time>2012-12-01T14:52:23Z</time>
      </trkpt>
      <trkpt lat="43.04323" lon="0.04688">
        <ele>888.88</ele>
        <time>2012-12-01T14:52:37Z</time>
      </trkpt>
      <trkpt lat="43.04319" lon="0.04708">
        <ele>888.4</ele>
        <time>2012-12-01T14:52:51Z</time>
      </trkpt>
      <trkpt lat="43.04318" lon="0.04727">
        <ele>888.4</ele>
        <time>2012-12-01T14:53:04Z</time>
      </trkpt>
      <trkpt lat="43.04317" lon="0.04742">
        <ele>888.4</ele>
        <time>2012-12-01T14:53:13Z</time>
      </trkpt>
      <trkpt lat="43.04315" lon="0.04758">
        <ele>888.88</ele>
        <time>2012-12-01T14:53:23Z</time>
      </trkpt>
      <trkpt lat="43.04312" lon="0.04779">
        <ele>888.88</ele>
        <time>2012-12-01T14:53:35Z</time>
      </trkpt>
      <trkpt lat="43.04312" lon="0.04782">
        <ele>887.91</ele>
        <time>2012-12-01T14:53:37Z</time>
      </trkpt>
      <trkpt lat="43.04307" lon="0.04791">
        <ele>886.95</ele>
        <time>2012-12-01T14:53:51Z</time>
      </trkpt>
      <trkpt lat="43.04307" lon="0.04791">
        <ele>886.95</ele>
        <time>2012-12-01T14:54:10Z</time>
      </trkpt>
      <trkpt lat="43.04307" lon="0.0479">
        <ele>886.95</ele>
        <time>2012-12-01T14:54:36Z</time>
      </trkpt>
    </trkseg>
  </trk>
</gpx>